     2              OBSERVATION DATA    GPS                 RINEX VERSION / TYPE
ASRINEXO V2.4.4 UX USGS 07-NOV-97 15:31                     PGM / RUN BY / DATE
                                                            COMMENT
Contact: kwendt@isdmnl.wr.usgs.gov (Ph: 415-329-4866)       COMMENT
Contact: kwendt@isdmnl.wr.usgs.gov (Ph: 415-329-4866)       COMMENT
Contact: kwendt@isdmnl.wr.usgs.gov (Ph: 415-329-4866)       COMMENT
Contact: kwendt@isdmnl.wr.usgs.gov (Ph: 415-329-4866)       COMMENT
Contact: kwendt@isdmnl.wr.usgs.gov (Ph: 415-329-4866)       COMMENT
Original Marker Name: f23x F_23_1933_USC&GS                 COMMENT
Campaign Name: USGS Yucca Profile                           COMMENT
4-Character Station Name: F23X                              COMMENT
6-Character Antenna Code: DMRCHT                            COMMENT
Vertical Measurement Point: BCR                             COMMENT
Vertical Offset to Rinex Ref. Point: 0.0348                 COMMENT
Radial Measurement Point: ECF                               COMMENT
Radial Offset to Rinex Ref. Point: 0.1897                   COMMENT
Antenna Height from Field Measurement: 1.3180 m             COMMENT
Additional Antenna Identification Info.:                    COMMENT
Turborogue and Ashtech Choke Ring                           COMMENT
Original XYZ: -2328455.1425 -4564450.8320 3785227.6552      COMMENT
New XYZ position is based on association with SCEC monument COMMENT
E1G0G1B4+0011. Position of that monument is believed to be  COMMENT
valid to within 1 m horizontally; vertical accuracy         COMMENT
should be no worse than 3-times this value.                 COMMENT
                                                            COMMENT
Revised Rinex header created by UCSD GPS archive for        COMMENT
GSAC on 08-Aug-2000 (2000:221) 00:33:19 GMT                 COMMENT
For assistance contact dagnew@ucsd.edu                      COMMENT
or anderson@python.ucsd.edu                                 COMMENT
                                                            COMMENT
F23 1933                                                    MARKER NAME
CHS US GEOLOGICAL SURVEY                                    OBSERVER / AGENCY
O4597 ASHTECH Z-XII3 1E95                                   REC # / TYPE / VERS
CR14244 DORNE-MARGOL. TYPE T                                ANT # / TYPE
 -2309061.6469 -4558908.0661  3805382.4812                  APPROX POSITION XYZ
        1.2695        0.0000        0.0000                  ANTENNA: DELTA H/E/N
     1     1     0                                          WAVELENGTH FACT L1/2
     5    C1    L1    L2    P1    P2                        # / TYPES OF OBSERV
    30                                                      INTERVAL
  1997    10    29    17     5    0.000000                  TIME OF FIRST OBS
  1997    10    29    23    58   60.000000                  TIME OF LAST OBS
                                                            END OF HEADER
 97 10 29 17  5  0.0000000  0  9 17 29 25 23 21  9  3  1 31
  24319770.332    24319780.296                                    24319878.3804
  23836580.657    23836585.905                                    23836577.6004
  24787096.198     -322138.45649                  24787094.202    24787102.9574
  22871467.374       38549.04649     27350.45649  22871465.6344   22871472.3774
  20911190.373     -112183.64849    -81311.93949  20911188.9454   20911194.4444
  24284613.773       23948.08649     16452.51549  24284612.1834   24284618.2404
  22488089.842                                    22488091.578    22488081.6424
  20538990.801     -216642.99349   -157287.12249  20538989.8034   20538995.0674
  22758626.103     -114505.99349    -83001.74249  22758624.5024   22758630.7224
 97 10 29 17  5 30.0000000  0  9 17 29 25 23 21  9  3  1 31
  24330572.384    24330569.048                                    24330574.5184
  23809302.357    23809308.119                                    23809308.8184
  24759119.959     -590552.47359   -436700.74649  24759117.5704   24759125.2584
  22873231.715       47821.59649     34575.79349  22873230.8724   22873236.5144
  20903772.520     -151162.18849   -111684.83049  20903771.6004   20903777.2504
  24285488.342       28543.21549     20033.08449  24285487.1574   24285492.9694
  22492114.093       13249.52159                  22492112.634    22492119.6784
  20525213.162     -289045.30249   -213704.49249  20525211.9714   20525217.3464
  22751188.033     -153589.47649   -113456.43249  22751187.2214   22751193.1974
 97 10 29 17  6  0.0000000  0  9 17 29 25 23 21  9  3  1 31
  24341109.877    24341107.382                                    24341116.7174
  23781763.062     -203119.70759                  23781762.528    23781768.8804
  24730837.061     -739177.49549   -552512.26149  24730835.9894   24730843.5794
  22874721.905       55651.17349     40676.73849  22874720.7804   22874726.7964
  20896102.567     -191469.12649   -143092.84549  20896101.2904   20896106.8094
  24286161.360       32081.23949     22789.93549  24286160.7614   24286166.8524
  22495913.608      112617.45059     28807.41949  22495912.3844   22495919.5434
  20511234.452     -362504.18249   -270945.16849  20511233.3394   20511238.5114
  22743564.546     -193652.91849   -144674.74249  22743564.3384   22743569.5934
 97 10 29 17  6 30.0000000  0  9 17 29 25 23 21  9  3  1 31
  24351399.863      120947.88259                  24351397.998    24351406.1734
  23753978.840     -869011.03459   -316891.44549  23753977.6134   23753985.0754
  24702262.730     -889335.79149   -669518.50749  24702261.7504   24702268.6754
  22875950.535       62107.76049     45707.82049  22875949.3304   22875955.0084
  20888191.311     -233043.31849   -175488.32849  20888190.4574   20888195.8654
  24286647.962       34638.66049     24782.67549  24286647.4144   24286652.9594
  22499498.055      131453.76449     43485.00149  22499497.3624   22499503.9024
  20497068.051     -436949.23749   -328954.28749  20497066.8564   20497072.3454
  22735767.878     -234625.50449   -176601.46449  22735767.3364   22735772.7584
 97 10 29 17  7  0.0000000  0  9 17 29 25 23 21  9  3  1 31
  24361462.159      398058.30259    162151.30049  24361460.2624   24361468.5614
  23725973.212    -1016181.04649   -431569.22949  23725970.9724   23725979.2744
  24673417.478    -1040917.95849   -787634.27049  24673415.8104   24673423.2334
  22876937.575       67294.74649     49749.60549  22876936.5464   22876942.1374
  20880058.471     -275781.96149   -208791.17249  20880057.3274   20880062.9184
  24286967.373       36317.10149     26090.50449  24286967.5324   24286972.5944
  22502884.872      149251.27249     57353.11649  22502883.6084   22502890.1364
  20482736.425     -512262.29149   -387639.76949  20482735.1284   20482740.5554
  22727821.094     -276386.87649   -209142.82749  22727820.5274   22727826.0444
 97 10 29 17  7 30.0000000  0  9 17 29 25 23 21  9  3  1 31
  24371314.542      449833.26949    202495.29849  24371313.2114   24371321.7534
  23697770.172    -1164387.84949   -547054.89749  23697769.0764   23697776.0774
  24644321.280    -1193818.84449   -906777.61049  24644319.6334   24644326.5094
  22877704.241       71323.36349     52888.75949  22877703.1764   22877708.7634
  20871723.356     -319583.46949   -242922.22549  20871722.2274   20871727.7044
  24287141.519       37232.39149     26803.67949  24287140.6024   24287147.6094
  22506095.484      166122.85349     70499.73749  22506094.5054   22506101.6154
  20468257.438     -588349.94349   -446928.83149  20468256.4414   20468261.6714
  22719743.986     -318832.61749   -242217.45849  22719743.3394   22719748.8294
 97 10 29 17  8  0.0000000  0  9 17 29 25 23 21  9  3  1 31
  24380975.613      500602.23249    242055.40749  24380974.1434   24380982.3254
  23669389.205    -1313530.30749   -663269.68949  23669388.6534   23669395.8004
  24614988.660    -1347960.97449  -1026888.14449  24614986.2604   24614994.0384
  22878263.815       74263.46549     55179.72149  22878261.8094   22878268.8304
  20863199.306     -364377.85749   -277826.95049  20863198.3484   20863203.7394
  24287188.186       37477.95149     26994.95849  24287187.1304   24287193.5034
  22509145.383      182149.89949     82988.27149  22509144.6834   22509151.2824
  20453644.123     -665143.17649   -506767.70149  20453642.9684   20453648.2764
  22711550.104     -361892.08649   -275770.31749  22711548.9024   22711555.1344
 97 10 29 17  8 30.0000000  0  9 17 29 25 23 21  9  3  1 31
  24390462.016      550453.71349    280900.59049  24390459.9364   24390468.7054
  23640846.309    -1463524.58649   -780148.27749  23640845.5934   23640852.8294
  24585435.524    -1503262.01349  -1147901.72749  24585434.0084   24585442.2724
  22878632.363       76200.28149     56688.89549  22878631.3634   22878637.3934
  20854502.964     -410077.50249   -313437.06849  20854501.7594   20854507.1524
  24287118.150       37109.18549     26707.56749  24287117.0394   24287121.6614
  22512050.795      197417.65549     94885.14449  22512050.0324   22512056.9144
  20438913.033     -742555.65849   -567089.10149  20438911.8864   20438917.1074
  22703252.176     -405498.20849   -309749.15449  22703250.7074   22703257.1294
 97 10 29 17  9  0.0000000  0  9 17 29 25 23 21  9  3  1 31
  24399782.337      599432.15249    319065.50349  24399780.4244   24399789.0944
  23612151.277    -1614317.68449   -897649.34349  23612150.6884   23612157.2124
  24555676.770    -1659644.25849  -1269757.82449  24555675.2304   24555683.0204
  22878818.990       77180.84849     57452.94449  22878818.3444   22878823.5684
  20845644.795     -456627.44849   -349709.75749  20845643.6414   20845649.1914
  24286940.896       36178.00849     25981.92949  24286940.3114   24286946.4914
  22514824.836      211995.38849    106244.34749  22514823.6524   22514830.3314
  20424076.325     -820523.10149   -627842.93649  20424075.1574   20424080.4414
  22694857.224     -449614.09249   -344125.21249  22694856.6684   22694861.7894
 97 10 29 17  9 30.0000000  0  9 17 29 25 23 21  9  3  1 31
  24408946.030      647587.89849    356589.34449  24408945.0494   24408953.7864
  23583310.246    -1765877.12049  -1015747.54449  23583309.6044   23583316.9494
  24525722.855    -1817052.17849  -1392413.18149  24525721.2274   24525728.0334
  22878835.271       77266.34149     57519.53549  22878833.7534   22878839.9664
  20836634.286     -503978.15149   -386606.41249  20836633.1994   20836638.6714
  24286665.877       34732.35349     24855.40649  24286664.6824   24286671.4394
  22517480.033      225948.27449    117116.65949  22517479.1844   22517485.8754
  20409143.792     -898994.01049   -688989.08449  20409142.6454   20409147.9594
  22686372.511     -494201.32849   -378868.55349  22686371.4024   22686377.2304
 97 10 29 17 10  0.0000000  0  9 17 29 25 23 21  9  3  1 31
  24417962.545      694969.97949    393510.32749  24417962.0574   24417970.1154
  23554327.039    -1918184.08549  -1134428.23149  23554326.2394   23554333.8404
  24495581.640    -1975444.30949  -1515835.44349  24495580.5724   24495588.4464
  22878686.899       76486.43249     56911.78749  22878685.9254   22878691.6534
  20827481.138     -552078.25749   -424087.01749  20827480.0864   20827485.5484
  24286298.706       32802.72349     23351.73249  24286298.5754   24286304.4894
  22520022.252      239307.67949    127526.50049  22520021.3044   22520028.8304
  20394126.417     -977910.68649   -750482.59049  20394125.2314   20394130.5104
  22677804.268     -539227.79849   -413954.14449  22677802.7644   22677809.1584
 97 10 29 17 10 30.0000000  0  9 17 29 25 23 21  9  3  1 31
  24426837.926      741610.76849    429853.65949  24426837.5924   24426844.8324
  23525205.885    -2071217.21749  -1253674.78749  23525205.4194   23525213.0354
  24465262.607    -2134771.02049  -1639985.94149  24465260.8224   24465269.1084
  22878378.834       74867.21949     55650.03549  22878378.3384   22878383.7394
  20818193.123     -600887.20149   -462119.95549  20818192.1854   20818197.5184
  24285844.978       30418.31149     21493.69749  24285844.6304   24285850.4824
  22522456.289      252098.61249    137493.38149  22522455.6784   22522462.4904
  20379032.955    -1057227.28149   -812287.71449  20379031.8204   20379037.2134
  22669160.530     -584651.00949   -449348.88349  22669159.5374   22669165.4434
 97 10 29 17 11  0.0000000  0  9 17 29 25 23 21  9  3  1 31
  24435576.697      787532.65049    465636.82649  24435575.7034   24435583.8824
  23495953.617    -2224939.27649  -1373458.20449  23495953.4104   23495959.6914
  24434771.646    -2295001.19449  -1764840.43749  24434769.7714   24434776.7144
  22877915.945       72434.71949     53754.55049  22877914.5894   22877921.1024
  20808776.081     -650374.21149   -500681.26349  20808775.2254   20808780.3274
  24285313.404       27624.32549     19316.48749  24285311.7784   24285318.6994
  22524787.561      264349.21549    147039.23449  22524786.8354   22524793.6154
  20363869.036    -1136914.04649   -874381.28849  20363867.9284   20363873.3614
  22660451.091     -630419.59449   -485012.75149  22660450.0574   22660457.0414
 97 10 29 17 11 30.0000000  0  9 17 29 25 23 21  9  3  1 31
  24444185.769      832772.63049    500888.66249  24444185.7424   24444193.2454
  23466576.095    -2379319.86949  -1493754.77949  23466574.9184   23466582.8274
  24404111.522    -2456119.98749  -1890387.37749  24404110.7464   24404118.2484
  22877306.249       69230.81149     51257.98249  22877305.1714   22877311.0854
  20799236.756     -700503.74749   -539743.23449  20799235.6794   20799241.0024
  24284708.087       24443.79449     16838.06549  24284707.1874   24284713.9884
  22527020.095      276080.68149    156180.56149  22527019.3594   22527026.1404
  20348638.354    -1216951.77949   -936748.34049  20348637.3324   20348642.6824
  22651684.130     -676490.59149   -520912.25949  22651683.1964   22651688.9074
 97 10 29 17 12  0.0000000  0  9 17 29 25 23 21  9  3  1 31
  24452669.647      877354.94649    535628.02849  24452668.9704   24452676.2504
  23437080.407    -2534321.07549  -1614534.95449  23437079.8974   23437085.7504
  24373288.227    -2618096.89949  -2016602.98849  24373287.5244   24373294.5064
  22876554.754       65281.40249     48180.49549  22876553.7414   22876559.5174
  20789580.517     -751247.64949   -579283.93449  20789579.6044   20789584.9574
  24284034.896       20905.92749     14081.23049  24284033.2244   24284040.6964
  22529155.968      287304.40549    164926.22949  22529155.5004   22529162.4074
  20333343.944    -1297324.53949   -999376.45549  20333343.0604   20333348.4074
  22642867.336     -722823.17449   -557015.60649  22642866.8094   22642871.9284
 97 10 29 17 12 30.0000000  0  9 17 29 25 23 21  9  3  1 31
  24461030.647      921291.66649    569864.32449  24461029.5824   24461038.8644
  23407470.774    -2689920.00249  -1735780.86849  23407469.9664   23407477.3854
  24342306.068    -2780908.69749  -2143469.18949  24342305.0534   24342312.2744
  22875668.057       60621.46749     44549.35949  22875667.7054   22875672.8194
  20779810.769     -802588.16249   -619289.52849  20779809.8474   20779815.0424
  24283297.496       17031.15849     11061.84949  24283296.7834   24283302.6524
  22531200.174      298046.11749    173296.32049  22531199.6954   22531206.7734
  20317987.034    -1378025.75249  -1062260.50549  20317986.1614   20317991.4484
  22634006.681     -769386.70749   -593298.91649  22634005.3344   22634011.6234
 97 10 29 17 13  0.0000000  0 10 17 15 29 25 23 21  9  3  1 31
  24469269.776      964588.54249    603602.03949  24469269.5874   24469278.0364
  24371538.318    -3010584.70949  -2319292.24449  24371537.0064   24371545.0964
  23377752.484    -2846091.02749  -1857472.54649  23377751.6894   23377758.4604
  24311167.363    -2944543.18449  -2270976.44549  24311166.5104   24311173.8434
  22874653.152       55287.87649     40393.29849  22874652.3084   22874657.8064
  20769931.310     -854505.46349   -659744.57149  20769930.4564   20769935.8764
  24282499.061       12835.11449      7792.13749  24282498.8264   24282504.7414
  22533158.689      308337.89849    181315.80449  22533158.2394   22533165.2444
  20302568.493    -1459051.01749  -1125397.06549  20302567.5954   20302572.8094
  22625104.103     -816170.30049   -629753.69649  22625102.9974   22625109.0074
 97 10 29 17 13 29.9990000  0 10 17 15 29 25 23 21  9  3  1 31
  24477392.887     1007274.85349    636863.96349  24477392.3444   24477400.3124
  24338818.986    -3182526.00849  -2453272.47649  24338817.5974   24338825.9634
  23347927.769    -3002821.47249  -1979600.13849  23347927.4664   23347933.7574
  24279876.747    -3108975.94749  -2399105.74049  24279876.6614   24279882.1764
  22873513.976       49301.09349     35728.23749  22873512.4974   22873518.9764
  20759945.446     -906981.71349   -700635.15749  20759944.4304   20759949.6564
  24281642.910        8335.01949      4285.51049  24281642.7394   24281648.6354
  22535033.274      318188.40649    188991.44349  22535033.0514   22535039.4504
  20287094.247    -1540369.05249  -1188761.75549  20287093.2684   20287098.5634
  22616160.434     -863169.83449   -666376.74349  22616159.1394   22616165.8944
 97 10 29 17 13 59.9990000  0 10 17 15 29 25 23 21  9  3  1 31
  24485404.200     1049373.56749    669668.03349  24485403.0684   24485411.8424
  24305963.631    -3355181.91249  -2587809.51349  24305962.9824   24305968.3394
  23317998.825    -3160099.40549  -2102154.35149  23317999.2154   23318005.2904
  24248438.289    -3274185.73749  -2527840.49849  24248437.9364   24248445.0384
  22872251.874       42668.14749     30559.68949  22872250.6704   22872256.0324
  20749855.164     -960006.62049   -741953.26849  20749854.0154   20749859.4634
  24280732.203        3548.34649       555.57149  24280731.1304   24280737.1384
  22536826.454      327611.27949    196333.85349  22536825.9604   22536832.5364
  20271570.945    -1621944.72849  -1252327.20749  20271569.9844   20271575.2734
  22607178.275     -910371.39549   -703157.21849  22607177.6874   22607183.3024
 97 10 29 17 14 29.9990000  0 10 17 15 29 25 23 21  9  3  1 31
  24493305.810     1090895.93549    702023.02149  24493304.9684   24493313.0114
  24272977.350    -3528526.26249  -2722883.03049  24272975.1994   24272983.9224
  23287971.311    -3317894.79249  -2225111.75849  23287970.8334   23287976.7504
  24216858.083    -3440139.84249  -2657155.26249  24216857.1694   24216864.2244
  22870869.819       35405.20649     24900.23449  22870868.7474   22870874.3084
  20739665.773    -1013552.32649   -783677.20049  20739664.6394   20739670.1714
  24279770.184       -1507.81449     -3384.33649  24279770.6254   24279775.1324
  22538543.071      336631.70049    203362.67249  22538542.0624   22538549.0474
  20256005.214    -1703743.44049  -1316066.45749  20256004.1904   20256009.5064
  22598159.331     -957766.64449   -740088.61549  22598158.8804   22598164.4874
 97 10 29 17 14 59.9990000  0 10 17 15 29 25 23 21  9  3  1 31
  24501103.384     1131871.48549    733951.92049  24501103.8294   24501110.3994
  24239863.300    -3702542.16449  -2858479.80349  24239862.6424   24239869.5104
  23257848.993    -3476188.35149  -2348457.36649  23257847.8074   23257855.1034
  24185140.261    -3606817.26349  -2787033.66049  24185139.0674   24185146.9654
  22869369.568       27521.29049     18756.89549  22869368.1664   22869374.3994
  20729378.843    -1067610.33149   -825800.32949  20729377.6504   20729383.3424
  24278761.482       -6809.46649     -7515.52949  24278760.5944   24278766.9384
  22540185.629      345263.35149    210088.56049  22540184.7754   22540191.8394
  20240401.166    -1785743.39749  -1379962.51949  20240400.1734   20240405.5514
  22589107.666    -1005334.00949   -777154.13449  22589106.9474   22589112.7744
 97 10 29 17 15 29.9990000  0 10 17 15 29 25 23 21  9  3  1 31
  24508805.237     1172343.79649    765488.67949  24508804.7184   24508812.4944
  24206627.849    -3877195.86349  -2994573.55849  24206624.7124   24206633.0034
  23227638.482    -3634945.62949  -2472164.32549  23227638.0814   23227644.2694
  24153292.862    -3774176.21249  -2917443.14949  24153291.6644   24153300.1374
  22867755.003       19036.81449     12145.59449  22867754.2034   22867760.3104
  20719001.883    -1122141.85749   -868292.43249  20719000.8744   20719006.4634
  24277710.957      -12330.43149    -11817.62649  24277710.3014   24277716.8874
  22541757.789      353524.32949    216525.60149  22541757.2764   22541764.0334
  20224764.590    -1867914.12249  -1443991.64949  20224763.4784   20224768.8454
  22580029.952    -1053037.98549   -814326.10249  22580029.4414   22580035.3414
 97 10 29 17 15 59.9990000  0  9 15 29 25 23 21  9  3  1 31
  24173270.091    -4052491.43749  -3131167.45949  24173266.9854   24173275.7924
  23197343.661    -3794146.02249  -2596216.55849  23197343.2434   23197350.5864
  24121315.469    -3942218.03949  -3048384.75449  24121313.8224   24121322.2544
  22866025.771        9949.39649      5064.44649  22866024.8804   22866030.8914
  20708537.147    -1177134.53849   -911143.87849  20708536.1694   20708541.5424
  24276617.179      -18078.17049    -16296.40549  24276616.0284   24276623.7364
  22543259.611      361415.83149    222674.73849  22543259.0574   22543266.7064
  20209090.530    -1950281.60249  -1508174.09449  20209089.4584   20209094.7804
  22570926.597    -1100877.05149   -851603.33349  22570925.7634   22570931.3704
 97 10 29 17 16 29.9990000  0  9 15 29 25 23 21  9  3  1 31
  24139792.703    -4228415.51549  -3268251.06749  24139790.0614   24139800.0464
  23166967.441    -3953774.12249  -2720602.05049  23166966.3534   23166974.1034
  24089208.369    -4110942.11149  -3179858.02149  24089207.7294   24089215.3344
  22864185.169         276.68549     -2472.76149  22864184.0354   22864190.1734
  20697987.968    -1232570.98749   -954341.12249  20697986.9824   20697992.4604
  24275484.846      -24028.76849    -20933.28649  24275483.5324   24275489.5094
  22544695.792      368962.25449    228554.97749  22544695.4824   22544702.3424
  20193376.910    -2032857.30649  -1572518.79149  20193375.9874   20193381.2134
  22561799.883    -1148838.80149   -888976.16249  22561798.9724   22561805.1294
 97 10 29 17 16 59.9990000  0  9 15 29 25 23 21  9  3  1 31
  24106198.017    -4404956.23149  -3405815.13549  24106196.9674   24106203.0004
  23136514.385    -4113805.40149  -2845301.69149  23136513.4354   23136520.8204
  24056973.536    -4280337.24749  -3311854.19549  24056972.6044   24056979.8354
  22862237.412       -9958.85549    -10448.53349  22862235.8334   22862242.9394
  20687355.031    -1288447.63149   -997881.37749  20687353.9734   20687359.4124
  24274317.153      -30165.08549    -25714.86449  24274315.9614   24274321.3354
  22546066.513      376164.96149    234167.38949  22546065.8334   22546072.3764
  20177625.110    -2115633.66949  -1637019.84449  20177624.0524   20177629.4134
  22552651.567    -1196913.52849   -926437.02249  22552651.1944   22552656.8874
 97 10 29 17 17 29.9990000  0  9 15 29 25 23 21  9  3  1 31
  24072488.458    -4582100.66649  -3543849.67849  24072487.7044   24072494.2524
  23105990.207    -4274210.32649  -2970292.52949  23105989.5864   23105996.1174
  24024613.058    -4450392.56249  -3444364.79949  24024612.7074   24024619.0544
  22860187.278      -20732.81649    -18843.84949  22860187.0824   22860192.4374
  20676642.038    -1344744.76949  -1041749.28749  20676641.2194   20676646.3164
  24273115.206      -36481.22649    -30636.60149  24273114.2434   24273121.4094
  22547371.396      383022.00749    239510.45649  22547370.7404   22547378.0414
  20161839.646    -2198586.84449  -1701658.67149  20161838.6304   20161843.9574
  22543481.485    -1245103.00849   -963987.29749  22543480.0934   22543486.6184
 97 10 29 17 17 59.9990000  0  9 15 29 25 23 21  9  3  1 31
  24038666.431    -4759835.94549  -3682344.63849  24038664.1294   24038672.1694
  23075395.320    -4434987.83349  -3095573.71249  23075394.4174   23075401.7124
  23992128.548    -4621099.60449  -3577383.23449  23992128.6954   23992134.5494
  22858038.144      -32026.76149    -27644.35449  22858037.0904   22858042.7494
  20665847.066    -1401472.82949  -1085952.98549  20665846.0824   20665851.5264
  24271882.718      -42957.94849    -35683.44749  24271882.8754   24271888.4954
  22548611.851      389540.29349    244589.56349  22548611.1314   22548617.5464
  20146023.748    -2281699.80949  -1766422.01149  20146022.6594   20146027.9704
  22534291.474    -1293396.84449  -1001618.89849  22534290.3154   22534296.3454
 97 10 29 17 18 29.9990000  0  9 15 29 25 23 21  9  3  1 31
  24004734.327    -4938149.23049  -3821289.97849  24004732.9294   24004740.6394
  23044728.979    -4596141.16349  -3221147.73249  23044728.0174   23044735.4494
  23959523.565    -4792439.52049  -3710894.80149  23959522.9074   23959530.1054
  22855792.838      -43826.27449    -36838.80849  22855792.0644   22855798.1544
  20654969.741    -1458633.68349  -1130493.92149  20654968.8934   20654974.1834
  24270621.385      -49587.29049    -40849.19249  24270620.4494   24270627.7094
  22549788.527      395723.35249    249407.44349  22549787.7874   22549795.3514
  20130180.471    -2364956.56249  -1831297.38949  20130179.4974   20130184.6914
  22525081.775    -1341794.07949  -1039331.05349  22525080.7214   22525087.1754
 97 10 29 17 18 59.9990000  0  9 15 29 25 23 21  9  3  1 31
  23970694.421    -5117030.13849  -3960677.62149  23970693.3244   23970701.2154
  23013991.597    -4757666.85749  -3347011.88049  23013989.3374   23013998.1434
  23926804.001    -4964381.68449  -3844875.67149  23926802.8994   23926810.2854
  22853452.417      -56125.41749    -46422.57949  22853451.1654   22853457.2564
  20644011.436    -1516220.28749  -1175366.61249  20644010.6994   20644015.7574
  24269329.282      -56377.89149    -46140.61349  24269329.1834   24269335.0744
  22550899.163      401559.45449    253954.98449  22550898.7284   22550905.2544
  20114313.968    -2448335.64449  -1896268.08949  20114313.0114   20114318.2014
  22515851.079    -1390301.45849  -1077129.05249  22515849.9614   22515856.4224
 97 10 29 17 19 29.9990000  0  9 15 29 25 23 21  9  3  1 31
  23936549.019    -5296465.65849  -4100497.43949  23936547.4134   23936555.3474
  22983182.435    -4919569.66849  -3473169.87549  22983181.8244   22983189.0564
  23893971.612    -5136916.80349  -3979318.59449  23893970.8284   23893978.2704
  22851015.206      -68933.10749    -56402.61649  22851014.1524   22851020.7084
  20632975.189    -1574216.36449  -1220558.37349  20632974.1694   20632979.4324
  24268006.245      -63331.16249    -51558.77949  24268004.8504   24268012.0964
  22551947.058      407065.77149    258245.54049  22551946.4124   22551953.7144
  20098424.640    -2531834.76049  -1961332.32349  20098423.8614   20098429.0144
  22506601.707    -1438907.24849  -1115003.72749  22506600.5254   22506607.1174
 97 10 29 17 19 59.9990000  0  9 15 29 25 23 21  9  3  1 31
  23902299.658    -5476447.84449  -4240743.22649  23902298.3734   23902305.3764
  22952301.347    -5081851.40549  -3599623.15449  22952300.9534   22952307.8464
  23861027.907    -5310036.91049  -4114217.35549  23861027.5344   23861033.9964
  22848480.521      -82252.78349    -66781.61149  22848479.6174   22848485.4974
  20621863.255    -1632609.78949  -1266059.75249  20621862.2124   20621867.5354
  24266652.701      -70444.43849    -57101.62549  24266652.5764   24266659.0324
  22552935.106      412257.56749    262291.01849  22552934.3184   22552941.2094
  20082509.219    -2615471.10049  -2026503.48149  20082508.2994   20082513.4534
  22497333.529    -1487612.19149  -1152955.67349  22497332.6214   22497339.5564
 97 10 29 17 20 29.9990000  0  9 15 29 25 23 21  9  3  1 31
  23867948.119    -5656966.57049  -4381407.11049  23867946.1454   23867953.7534
  22921350.901    -5244497.48349  -3726360.34849  22921351.0994   22921356.7984
  23827974.348    -5483734.79149  -4249566.33049  23827974.1274   23827980.2564
  22845848.430      -96084.67849    -77559.73849  22845847.3194   22845853.6034
  20610679.930    -1691378.60349  -1311853.64549  20610679.0844   20610684.4434
  24265267.102      -77726.33849    -62775.86749  24265266.2464   24265273.1654
  22553862.837      417132.30849    266089.44949  22553862.6564   22553869.2894
  20066569.901    -2699232.84949  -2091772.36249  20066568.9334   20066574.0964
  22488045.682    -1536420.52549  -1190988.17449  22488045.2904   22488050.7644
 97 10 29 17 20 59.9990000  0  9 15 29 25 23 21  9  3  1 31
  23833496.507    -5838010.80649  -4522480.51849  23833494.5354   23833502.2334
  22890331.077    -5407507.49049  -3853381.08749  22890329.7444   22890336.3884
  23794811.295    -5658008.43049  -4385363.96949  23794811.1754   23794817.9374
  22843119.150     -110426.96449    -88735.57249  22843118.3384   22843123.8684
  20599425.945    -1750518.60049  -1357936.76949  20599425.0254   20599430.4654
  24263848.604      -85180.81849    -68584.58649  24263848.2274   24263855.0694
  22554730.722      421692.52849    269642.78149  22554729.9854   22554736.8524
  20050609.542    -2783105.12049  -2157127.36549  20050608.3434   20050613.6984
  22478740.246    -1585321.24849  -1229092.66349  22478739.6424   22478744.8324
 97 10 29 17 21 29.9990000  0  9 15 29 25 23 21  9  3  1 31
  23798946.786    -6019570.68949  -4663955.71749  23798945.8534   23798952.5634
  22859243.013    -5570875.85449  -3980681.04849  22859242.3464   22859249.6344
  23761537.978    -5832861.53849  -4521613.15349  23761537.5104   23761543.6994
  22840295.998     -125263.00949   -100296.15149  22840295.0134   22840300.6674
  20588103.996    -1810015.99549  -1404298.38349  20588103.1534   20588108.4864
  24262398.488      -92801.66849    -74522.95149  24262397.8614   24262403.5464
  22555541.046      425950.79649    272960.82649  22555540.4444   22555547.8444
  20034628.022    -2867088.40549  -2222568.87449  20034627.1864   20034632.2394
  22469422.191    -1634288.49849  -1267248.99649  22469421.1634   22469427.9154
 97 10 29 17 21 59.9990000  0  9 15 29 25 23 21  9  3  1 31
  23764300.500    -6201638.07249  -4805826.36449  23764299.8584   23764306.2444
  22828087.886    -5734597.23049  -4108256.06249  22828087.7344   22828093.7704
  23728157.748    -6008276.07349  -4658299.80549  23728157.1194   23728164.3804
  22837380.575     -140583.50249   -112234.22449  22837379.6214   22837385.7234
  20576714.654    -1869867.74949  -1450936.12649  20576713.9474   20576719.1304
  24260916.140     -100591.60549    -80593.07349  24260915.3884   24260922.5004
  22556291.960      429896.48049    276035.30049  22556291.4544   22556298.1834
  20018627.583    -2951171.26049  -2288087.97349  20018626.6334   20018631.9664
  22460094.573    -1683305.67749  -1305444.23549  22460094.1704   22460099.1124
 97 10 29 17 22 29.9990000  0  9 15 29 25 23 21  9  3  1 31
  23729560.568    -6384197.24449  -4948080.21249  23729559.6084   23729566.0424
  22796866.977    -5898664.43449  -4236100.55949  22796867.2274   22796872.7924
  23694676.498    -6184221.44949  -4795400.08549  23694676.5674   23694683.1294
  22834373.448     -156386.14249   -124547.99049  22834372.4034   22834378.8324
  20565258.724    -1930069.15849  -1497846.32349  20565257.6484   20565263.2704
  24259402.751     -108544.49649    -86790.17549  24259402.1854   24259409.0424
  22556985.107      433538.73049    278873.34049  22556984.4854   22556991.6434
  20002612.329    -3035331.97849  -2353667.74649  20002611.3304   20002616.6834
  22450763.341    -1732341.86049  -1343654.28049  22450762.3814   22450768.3924
 97 10 29 17 22 59.9990000  0  9 15 29 25 23 21  9  3  1 31
  23694728.988    -6567237.69049  -5090709.08149  23694728.1014   23694736.4864
  22765580.947    -6063073.08749  -4364211.13449  22765580.6464   22765587.5024
  23661097.957    -6360677.76549  -4932898.47549  23661096.6344   23661104.7574
  22831276.676     -172660.00549   -137228.96049  22831275.5774   22831282.4194
  20553738.239    -1990609.71249  -1545020.78849  20553737.5544   20553742.8264
  24257861.794     -116641.95949    -93099.94049  24257860.9524   24257867.8854
  22557624.778      436900.28049    281492.64949  22557624.1224   22557632.0034
  19986581.008    -3119577.16449  -2419313.33749  19986579.9294   19986585.2784
  22441433.433    -1781370.92949  -1381858.78649  22441432.1204   22441438.5754
 97 10 29 17 23 29.9990000  0  9 15 29 25 23 21  9  3  1 31
  23659809.043    -6750742.44649  -5233699.76449  23659808.6354   23659815.4364
  22734236.467    -6227788.84949  -4492561.00249  22734235.4264   22734242.4054
  23627425.798    -6537626.41849  -5070780.48649  23627425.3844   23627432.3634
  22828092.633     -189392.56849   -150267.35149  22828092.2014   22828097.5424
  20542157.302    -2051468.10749  -1592442.91749  20542156.5714   20542161.8104
  24256298.621     -124857.12249    -99501.41349  24256298.4044   24256305.0524
  22558213.958      439996.10849    283904.88349  22558213.4844   22558221.2774
  19970534.457    -3203902.39749  -2485021.30349  19970533.6874   19970538.8184
  22432106.764    -1830383.30949  -1420050.28349  22432105.7264   22432112.0174
 97 10 29 17 23 59.9990000  0  9 15 29 25 23 21  9  3  1 31
  23624804.154    -6934694.36749  -5377038.88549  23624802.1404   23624810.0124
  22702839.419    -6392781.82249  -4621126.87949  22702838.8824   22702846.1074
  23593663.640    -6715047.48749  -5209030.60049  23593662.8774   23593669.8444
  22824822.195     -206578.86449   -163659.31249  22824821.0754   22824826.7814
  20530516.769    -2112639.66949  -1640109.07349  20530515.6904   20530521.1524
  24254716.412     -133172.11649   -105980.65949  24254714.8704   24254722.5994
  22558752.602      442825.99549    286109.90049  22558751.9714   22558759.6484
  19954475.607    -3288292.32849  -2550779.68249  19954474.7954   19954479.7794
  22422781.658    -1879386.92049  -1458234.95149  22422780.8324   22422787.0124
 97 10 29 17 24 29.9980000  0  9 15 29 25 23 21  9  3  1 31
  23589723.101    -7119046.57749  -5520689.91949  23589723.0954   23589728.7844
  22671399.385    -6558000.50249  -4749868.64449  22671398.5974   22671405.8044
  23559817.535    -6892909.72349  -5347624.46349  23559817.0284   23559823.9254
  22821475.017     -224168.29349   -177365.39949  22821474.3724   22821480.1644
  20518822.791    -2174091.90149  -1687993.93749  20518821.7154   20518827.2204
  24253125.783     -141531.26349   -112494.33649  24253124.8614   24253131.6744
  22559248.647      445432.36049    288140.74249  22559248.2774   22559255.1184
  19938413.097    -3372701.62049  -2616553.14949  19938412.1254   19938417.2924
  22413461.426    -1928364.82349  -1496399.59449  22413460.5244   22413466.2934
 97 10 29 17 24 59.9980000  0  9 15 29 25 23 21  9  3  1 31
  23554572.222    -7303765.85149  -5664626.99149  23554569.9714   23554576.3014
  22639924.281    -6723402.94349  -4878753.58849  22639923.3274   22639929.7874
  23525890.076    -7071199.52649  -5486551.50749  23525889.6064   23525896.7714
  22818061.569     -242106.03649   -191342.89049  22818061.1754   22818066.3914
  20507084.141    -2235779.05349  -1736061.84749  20507083.4024   20507088.6454
  24251536.469     -149883.38549   -119002.51949  24251534.6724   24251542.5024
  22559708.412      447848.06649    290023.03449  22559707.8594   22559714.8524
  19922355.503    -3457084.72949  -2682306.21349  19922354.4614   19922359.6494
  22404149.001    -1977302.22549  -1534532.67649  22404148.0414   22404154.1694
 97 10 29 17 25 29.9980000  0  9 15 29 25 23 21  9  3  1 31
  23519351.936    -7488849.39649  -5808847.87949  23519349.9034   23519357.5664
  22608416.187    -6888978.65649  -5007773.57349  22608414.5704   22608422.0294
  23491879.614    -7249925.18149  -5625818.14549  23491878.1214   23491886.1424
  22814581.655     -260393.35449   -205592.79449  22814580.7944   22814586.7224
  20495298.588    -2297712.82149  -1784321.92849  20495297.8114   20495303.1494
  24249945.519     -158243.56249   -125516.98149  24249944.3634   24249952.1454
  22560128.420      450055.11149    291742.72149  22560127.5994   22560134.6084
  19906305.336    -3541428.97449  -2748028.99149  19906304.4424   19906309.4804
  22394839.867    -2026222.75849  -1572652.61349  22394839.1554   22394844.8274
 97 10 29 17 25 59.9980000  0  9 15 29 25 23 21  9  3  1 31
  23484059.862    -7674309.53149  -5953362.22549  23484059.2344   23484066.6414
  22576871.016    -7054749.63149  -5136945.70749  22576870.8584   22576877.1534
  23457786.689    -7429084.13549  -5765422.41449  23457785.9034   23457792.3664
  22811034.764     -279032.93849   -220117.16949  22811034.3704   22811040.2994
  20483463.582    -2359906.12749  -1832784.24849  20483462.6644   20483467.8704
  24248348.835     -166633.69949   -132054.80449  24248349.9474   24248356.1294
  22560505.505      452036.21849    293286.35049  22560505.2474   22560512.0244
  19890262.756    -3625733.26849  -2813720.63949  19890261.7984   19890267.0254
  22385533.785    -2075126.71549  -1610759.63249  22385533.0884   22385539.2114
 97 10 29 17 26 29.9980000  0  8 15 29 25 23 21  3  1 31
  23448696.677    -7860143.65149  -6098168.00449  23448695.8664   23448703.5834
  22545286.682    -7220725.83949  -5266277.76449  22545285.7134   22545292.7394
  23423613.140    -7608666.42449  -5905356.54849  23423611.9914   23423617.9304
  22807422.778     -298014.29649   -234907.87749  22807420.9114   22807428.3344
  20471582.318    -2422342.66149  -1881436.09049  20471581.3794   20471586.7074
  22560841.994      453803.74949    294663.55749  22560841.8844   22560849.0164
  19874228.704    -3709992.61549  -2879377.26049  19874227.6684   19874232.8844
  22376233.712    -2123999.37349  -1648842.26949  22376232.3874   22376239.7164
 97 10 29 17 26 59.9980000  0  8 15 29 25 23 21  3  1 31
  23413262.871    -8046349.58949  -6243263.50349  23413261.8364   23413269.2124
  22513662.192    -7386913.07349  -5395774.24349  22513661.2374   22513668.0734
  23389362.460    -7788654.39849  -6045606.80949  23389361.2424   23389367.7284
  22803746.196     -317334.70649   -249962.77849  22803745.7554   22803750.7654
  20459656.749    -2485011.70249  -1930269.10549  20459655.8454   20459661.1574
  22561136.303      455349.89849    295868.25749  22561135.5914   22561143.5804
  19858200.247    -3794222.60449  -2945011.00549  19858199.2954   19858204.5374
  22366942.199    -2172826.66349  -1686889.55649  22366941.5794   22366947.8654
 97 10 29 17 27 29.9980000  0  8 15 29 25 23 21  3  1 31
  23377758.225    -8232927.59449  -6388648.93749  23377757.3254   23377764.4984
  22481997.424    -7553312.10449  -5525435.75949  22481996.7084   22482003.7544
  23355038.869    -7969025.56649  -6186155.65049  23355037.8244   23355044.3844
  22800006.198     -336988.66749   -265277.58549  22800005.9344   22800011.6614
  20447685.069    -2547923.08949  -1979290.96249  20447684.2634   20447689.4924
  22561387.569      456670.29149    296897.03349  22561386.7574   22561393.8164
  19842174.556    -3878438.01549  -3010633.39049  19842173.6194   19842178.6744
  22357662.536    -2221591.95649  -1724888.52549  22357662.0434   22357668.1584
 97 10 29 17 27 59.9980000  0  8 15 29 25 23 21  3  1 31
  23342183.552    -8419874.23449  -6534321.62949  23342183.0534   23342189.8564
  22450291.604    -7719927.60649  -5655265.95849  22450291.0774   22450297.3424
  23320645.206    -8149765.34949  -6326991.71449  23320644.5244   23320651.1594
  22796201.854     -356981.26049   -280856.25849  22796200.9094   22796206.7364
  20435669.018    -2611067.78949  -2028494.62149  20435668.1014   20435673.5554
  22561595.944      457765.17749    297750.08949  22561595.2334   22561603.0354
  19826151.166    -3962641.41149  -3076246.41449  19826150.3724   19826155.3564
  22348396.789    -2270283.83749  -1762830.30649  22348396.3874   22348403.0524
 97 10 29 17 28 29.9980000  0  8 15 29 25 23 21  3  1 31
  23306541.445    -8607175.80449  -6680270.86849  23306540.6084   23306547.9874
  22418547.616    -7886743.26549  -5785252.12149  22418546.9534   22418553.8204
  23286181.291    -8330874.57749  -6468115.63849  23286180.7734   23286187.1504
  22792332.105     -377317.30349   -296702.56249  22792330.8584   22792337.2704
  20423609.763    -2674439.45849  -2077875.14149  20423608.9204   20423614.1244
  22561764.117      458648.34249    298438.19449  22561764.0164   22561770.7754
  19810128.162    -4046842.66349  -3141857.76949  19810127.3944   19810132.4164
  22339144.213    -2318906.81149  -1800718.38449  22339143.1734   22339150.3634
 97 10 29 17 28 59.9980000  0  8 15 29 25 23 21  3  1 31
  23270836.816    -8794805.37149  -6826475.68349  23270835.8364   23270843.1234
  22386770.691    -8053731.80049  -5915372.96649  22386769.1324   22386776.7274
  23251650.803    -8512333.29249  -6609511.88149  23251650.4074   23251656.3864
  22788400.256     -397979.42449   -312802.93849  22788398.8704   22788404.2044
  20411509.753    -2738025.67149  -2127422.84049  20411509.0864   20411514.1614
  22561893.229      459326.08249    298966.22649  22561893.9164   22561900.7474
  19794108.340    -4131027.43349  -3207456.27949  19794107.5644   19794112.6734
  22329907.662    -2367445.05749  -1838540.45049  22329906.6574   22329913.5784
 97 10 29 17 29 29.9980000  0  8 15 29 25 23 21  3  1 31
  23235071.785    -8982752.15749  -6972927.68249  23235071.3154   23235077.7074
  22354965.039    -8220871.30049  -6045611.44649  22354964.2104   22354970.3984
  23217053.220    -8694143.88449  -6751182.30649  23217051.9294   23217058.3524
  22784405.468     -418972.39849   -329161.12949  22784404.4054   22784409.8044
  20399369.442    -2801823.59949  -2177135.50849  20399368.7514   20399374.2214
  22561985.526      459810.54549    299343.64449  22561985.0234   22561992.6014
  19778094.943    -4215178.40549  -3273028.45449  19778094.0004   19778099.1494
  22320685.511    -2415907.81049  -1876303.68749  22320684.2924   22320691.2014
 97 10 29 17 29 59.9980000  0  8 15 29 25 23 21  3  1 31
  23199247.170    -9171011.72349  -7119623.38049  23199246.4764   23199253.2044
  22323130.967    -8388160.61049  -6175966.63949  22323129.8794   22323137.6524
  23182385.682    -8876322.67349  -6893139.64649  23182385.1894   23182391.3524
  22780345.066     -440310.28549   -345788.09049  22780344.3464   22780350.1144
  20387190.274    -2865825.46549  -2227007.09149  20387189.4124   20387194.7514
  22562042.305      460109.10149    299576.18749  22562041.5044   22562048.9654
  19762087.822    -4299296.39649  -3338574.93049  19762087.0324   19762092.0604
  22311473.984    -2464315.04949  -1914023.66949  22311472.7794   22311479.5644
 97 10 29 17 30 29.9980000  0  8 15 29 25 23 21  3  1 31
  23163364.323    -9359577.33449  -7266557.57149  23163362.9384   23163370.3504
  22291270.211    -8555589.54549  -6306430.63849  22291269.7654   22291275.5574
  23147647.213    -9058873.95649  -7035387.21249  23147646.1384   23147652.6774
  22776221.336     -461980.81149   -362674.23849  22776220.7304   22776225.7564
  20374972.781    -2930028.82349  -2277035.68449  20374971.8514   20374977.3224
  22562062.882      460217.59749    299660.63249  22562062.7594   22562069.1104
  19746086.502    -4383383.89949  -3404097.65249  19746085.6694   19746090.8504
  22302271.483    -2512674.63249  -1951706.51549  22302270.6494   22302277.2944
 97 10 29 17 30 59.9980000  0  8 15 29 25 23 21  3  1 31
  23127424.486    -9548442.21449  -7413724.95949  23127423.9084   23127429.6004
  22259383.881    -8723153.12349  -6436999.53549  22259383.5694   22259389.3504
  23112838.865    -9241791.61049  -7177920.29849  23112837.9254   23112844.0044
  22772036.581     -483971.88949   -379810.18449  22772035.1184   22772042.4724
  20362717.116    -2994432.76549  -2327220.57249  20362716.3654   20362721.7204
  22562048.295      460140.63749    299600.58049  22562047.8594   22562055.4084
  19730093.428    -4467427.82749  -3469586.41949  19730092.6414   19730097.5734
  22293077.857    -2560987.27949  -1989352.78249  22293077.0644   22293083.1474
 97 10 29 17 31 29.9980000  0  8 15 29 25 23 21  3  1 31
  23091428.844    -9737600.18149  -7561120.72949  23091428.3674   23091435.0544
  22227473.847    -8890841.35849  -6567665.57749  22227473.0314   22227479.4924
  23077960.901    -9425075.77449  -7320738.97249  23077959.8014   23077966.9394
  22767790.989     -506282.67149   -397195.24649  22767789.6974   22767796.1784
  20350424.604    -3059030.60949  -2377556.55949  20350423.8554   20350429.0804
  22562002.888      459901.48549    299414.16249  22562002.3214   22562009.7694
  19714109.719    -4551422.64349  -3535036.91749  19714108.8464   19714114.0134
  22283893.424    -2609251.96649  -2026961.69249  22283892.1724   22283899.3564
 97 10 29 17 31 59.9980000  0  8 15 29 25 23 21  3  1 31
  23055380.571    -9927035.00949  -7708732.23449  23055378.8334   23055385.2464
  22195539.149    -9058659.11949  -6698432.53249  22195538.2694   22195544.8304
  23043018.148    -9608700.60749  -7463823.10449  23043017.5214   23043022.4924
  22763487.234     -528899.04449   -414818.43249  22763486.1764   22763492.0044
  20338097.641    -3123809.46549  -2428033.58749  20338096.8394   20338102.0564
  22561924.904      459490.93049    299094.16649  22561924.4654   22561932.4634
  19698137.593    -4635356.64749  -3600440.03049  19698136.8344   19698141.8454
  22274724.218    -2657436.86949  -2064508.41549  22274723.1104   22274729.4604
 97 10 29 17 32 29.9980000  0  8 15 29 25 23 21  3  1 31
  23019282.487   -10116731.64849  -7856547.75249  23019281.6934   23019288.2734
  22163582.062    -9226594.26549  -6829290.96949  22163581.2324   22163587.1094
  23008015.307    -9792641.28049  -7607153.34949  23008014.6534   23008021.1354
  22759127.900     -551807.76449   -432669.42749  22759128.0634   22759132.7204
  20325738.274    -3188758.46149  -2478643.19749  20325737.4154   20325742.6484
  22561814.323      458909.46949    298640.96549  22561814.1414   22561821.6144
  19682180.551    -4719211.59449  -3665781.54249  19682179.7804   19682184.7844
  22265574.368    -2705519.98649  -2101975.82649  22265573.2344   22265579.8514
 97 10 29 17 32 59.9980000  0  8 15 29 25 23 21  3  1 31
  22983137.416   -10306675.03749  -8004555.54349  22983136.2564   22983143.1674
  22131603.151    -9394644.16349  -6960238.83149  22131602.4004   22131608.8494
  22972956.798    -9976874.80349  -7750711.79749  22972956.3234   22972962.2034
  22754715.404     -574995.88949   -450738.14249  22754714.3094   22754720.0504
  20313350.352    -3253857.37149  -2529369.61849  20313349.5414   20313354.8844
  22561672.184      458162.14049    298058.53349  22561672.3694   22561678.9794
  19666241.827    -4802970.18549  -3731047.96549  19666241.0154   19666246.1294
  22256447.796    -2753480.52949  -2139347.72949  22256447.2224   22256453.5014
 97 10 29 17 33 29.9980000  0  8 15 29 25 23 21  3  1 31
  22946949.014   -10496845.87349  -8152740.57049  22946947.6794   22946956.0574
  22099603.413    -9562803.03249  -7091271.60749  22099602.8234   22099609.0604
  22937850.132   -10161360.98349  -7894467.12749  22937848.7984   22937855.5434
  22750254.706     -598437.23149   -469004.16249  22750253.7274   22750260.7684
  20300940.253    -3319072.74349  -2580186.79249  20300939.2424   20300944.9154
  22561497.296      457242.30249    297341.68249  22561496.6014   22561504.7274
  19650327.571    -4886600.36049  -3796214.32849  19650326.6824   19650331.8594
  22247351.359    -2801282.88249  -2176596.35549  22247350.2604   22247357.2464
 97 10 29 17 33 59.9970000  0  8 15 29 25 23 21  3  1 31
  22910722.038   -10687219.65749  -8301083.72049  22910719.5594   22910727.5144
  22067587.914    -9731044.86649  -7222369.01949  22067587.2374   22067593.4814
  22902704.396   -10346052.25149  -8038382.26649  22902703.7384   22902709.7814
  22745750.008     -622109.34349   -487450.00049  22745748.7164   22745756.1014
  20288511.474    -3384386.57549  -2631080.68849  20288510.6564   20288515.6544
  22561289.171      456148.11449    296488.97549  22561288.3654   22561295.9824
  19634442.642    -4970076.25149  -3861260.46649  19634441.8794   19634446.9184
  22238288.658    -2848908.37949  -2213707.16949  22238288.2234   22238294.1124
 97 10 29 17 34 29.9970000  0  8 15 29 25 23 21  3  1 31
  22874459.599   -10877779.88949  -8449572.17249  22874458.9424   22874465.8384
  22035562.297    -9899340.05749  -7353508.02149  22035562.0884   22035568.0194
  22867522.724   -10530932.84649  -8182444.95349  22867522.3144   22867527.7994
  22741208.313     -645976.38249   -506047.73249  22741206.8604   22741213.9914
  20276069.324    -3449770.45649  -2682029.16349  20276068.4304   20276073.7654
  22561057.312      454929.17149    295539.06349  22561057.1654   22561064.6434
  19618590.988    -5053377.44349  -3926170.47949  19618590.2334   19618595.3644
  22229262.651    -2896340.64249  -2250667.42549  22229262.0424   22229268.0094
 97 10 29 17 34 59.9970000  0  8 15 29 25 23 21  3  1 31
  22838165.970   -11068504.18449  -8598188.45049  22838164.0284   22838171.5864
  22003531.429   -10067663.23749  -7484668.86449  22003530.7334   22003537.9124
  22832310.353   -10715975.22649  -8326633.72649  22832309.9214   22832315.7944
  22736633.707     -670016.38049   -524780.25649  22736632.7174   22736639.8544
  20263617.008    -3515208.12349  -2733019.55349  20263616.2504   20263621.6574
  22560804.479      453600.50849    294503.63849  22560803.6914   22560812.0354
  19602774.230    -5136495.12449  -3990937.49849  19602773.4224   19602778.4744
  22220276.103    -2943565.52549  -2287466.07149  22220274.7144   22220280.9524
 97 10 29 17 35 29.9970000  0  8 15 29 25 23 21  3  1 31
  22801845.895   -11259367.49149  -8746913.05549  22801845.5514   22801851.8764
  21971502.380   -10235976.52549  -7615821.97349  21971501.7764   21971508.0434
  22797071.099   -10901158.21349  -8470932.08049  22797070.4874   22797077.1224
  22732029.250     -694213.16249   -543634.92449  22732028.5044   22732034.5394
  20251154.942    -3580696.75849  -2784049.65849  20251154.1184   20251159.5444
  22560536.483      452191.85149    293405.87449  22560535.8264   22560543.3624
  19586994.631    -5219417.51249  -4055552.33949  19586993.7864   19586998.8684
  22211329.641    -2990579.74549  -2324100.57649  22211329.2974   22211335.1894
 97 10 29 17 35 59.9970000  0  8 15 29 25 23 21  3  1 31
  22765503.611   -11450347.78949  -8895728.81649  22765503.0604   22765509.8744
  21939481.563   -10404246.78349  -7746941.56049  21939481.0634   21939486.7704
  22761804.436   -11086485.21349  -8615342.67549  22761803.3514   22761810.2684
  22727397.391     -718553.75549   -562601.65349  22727396.5614   22727402.9914
  20238683.815    -3646232.84049  -2835116.72949  20238683.0214   20238688.4214
  22560260.075      450738.70949    292273.45649  22560260.4674   22560268.0574
  19571251.076    -5302150.48849  -4120019.58149  19571250.1854   19571255.3734
  22202422.801    -3037386.39849  -2360573.32449  22202421.7434   22202428.2584
 97 10 29 17 36 29.9970000  0  8 15 29 25 23 21  3  1 31
  22729142.308   -11641427.45649  -9044622.00549  22729141.2334   22729148.4434
  21907470.997   -10572463.39849  -7878019.37049  21907470.2444   21907476.3244
  22726510.246   -11271957.28349  -8759866.31649  22726509.7754   22726515.3284
  22722741.011     -743023.96849   -581669.40049  22722740.2444   22722746.8254
  20226207.669    -3711795.68849  -2886204.66149  20226206.8584   20226212.0704
  22559976.767      449248.93749    291112.50749  22559976.4434   22559983.7064
  19555543.295    -5384695.38149  -4184340.26549  19555542.5604   19555547.5514
  22193556.495    -3083979.34949  -2396879.56949  22193555.8014   22193561.9734
 97 10 29 17 36 59.9970000  0  8 15 29 25 23 21  3  1 31
  22692765.257   -11832589.84249  -9193579.64249  22692764.2964   22692770.8414
  21875472.404   -10740616.79249  -8009047.90949  21875472.0164   21875477.9344
  22691190.151   -11457565.61549  -8904496.13949  22691188.9474   22691195.1784
  22718063.220     -767606.29249   -600824.49849  22718061.9234   22718067.9894
  20213727.779    -3777378.05549  -2937307.80349  20213726.7984   20213732.2964
  22559685.665      447718.30449    289919.71849  22559684.8954   22559693.1534
  19539873.287    -5467042.02649  -4248506.47149  19539872.5884   19539877.5404
  22184729.504    -3130365.56049  -2433024.71749  22184728.9224   22184735.0974
 97 10 29 17 37 29.9970000  0  8 15 29 25 23 21  3  1 31
  22656375.887   -12023816.98749  -9342587.74749  22656374.0194   22656381.5854
  21843487.477   -10908697.98149  -8140020.19449  21843487.4884   21843492.9044
  22655845.962   -11643300.00249  -9049224.17749  22655845.2454   22655851.6554
  22713365.757     -792291.70349   -620059.93649  22713364.6554   22713371.2354
  20201246.975    -3842965.08449  -2988414.57849  20201246.3184   20201251.5144
  22559388.937      446159.03249    288704.59049  22559387.7414   22559396.2664
  19524244.600    -5549171.41349  -4312503.38649  19524243.9274   19524248.8174
  22175944.259    -3176532.69449  -2468999.15149  22175943.6844   22175949.5554
 97 10 29 17 37 59.9970000  0  8 15 29 25 23 21  3  1 31
  22619976.563   -12215096.39849  -9491636.57549  22619975.0474   22619983.1874
  21811517.706   -11076700.35749  -8270931.07449  21811517.2614   21811523.1934
  22620481.429   -11829141.45849  -9194035.67249  22620480.3474   22620487.1244
  22708650.505     -817070.50249   -639368.12349  22708648.8604   22708656.6254
  20188772.986    -3908516.48249  -3039493.58849  20188772.2844   20188777.5854
  22559088.147      444578.13549    287472.62849  22559087.4394   22559094.7844
  19508660.689    -5631065.38949  -4376316.86149  19508659.9664   19508664.8354
  22167205.603    -3222455.38549  -2504783.10149  22167205.0934   22167210.4494
 97 10 29 17 38 29.9970000  0  8 15 29 25 23 21  3  1 31
  22583570.156   -12406413.12449  -9640714.49449  22583569.4204   22583575.7794
  21779563.339   -11244621.52149  -8401778.67949  21779562.6234   21779569.0454
  22585101.555   -12015063.68949  -9338910.11149  22585100.6704   22585106.1314
  22703921.105     -841923.72949   -658734.32549  22703919.6044   22703926.8084
  20176311.023    -3974004.72649  -3090523.38349  20176310.3314   20176315.5444
  22558784.055      442979.35649    286226.75449  22558783.9894   22558790.8834
  19493126.792    -5712696.71849  -4439925.68049  19493126.0404   19493130.9004
  22158515.139    -3268124.11849  -2540369.17449  22158514.4704   22158521.0304
 97 10 29 17 38 59.9970000  0  8 15 29 25 23 21  3  1 31
  22547161.046   -12597744.19349  -9789803.59049  22547158.9974   22547166.8514
  21747627.029   -11412447.49349  -8532552.11149  21747626.5714   21747632.6724
  22549711.622   -12201038.98949  -9483825.91049  22549710.8604   22549717.3704
  22699180.676     -866834.91049   -678145.68849  22699179.4054   22699186.0054
  20163864.994    -4039409.04749  -3141487.79349  20163864.3874   20163869.4314
  22558483.212      441397.63749    284994.18749  22558482.5184   22558490.4224
  19477649.420    -5794030.75849  -4503302.85049  19477648.5944   19477653.6834
  22149878.838    -3313508.37449  -2575733.57949  22149878.1684   22149885.1674
 97 10 29 17 39 29.9970000  0  8 15 29 25 23 21  3  1 31
  22510752.228   -12789073.05849  -9938890.95649  22510750.9714   22510758.6554
  21715712.285   -11580160.49949  -8663237.52349  21715711.7164   21715717.8904
  22514314.716   -12387051.29049  -9628770.55449  22514313.4054   22514318.8364
  22694429.660     -891802.09949   -697600.69249  22694429.2544   22694434.5784
  20151439.723    -4104704.25449  -3192367.17549  20151438.7994   20151444.4234
  22558190.134      439856.84149    283793.49849  22558190.4604   22558196.5994
  19462232.040    -5875049.61649  -4566434.41949  19462231.1384   19462236.1844
  22141302.964    -3358574.97949  -2610850.45349  22141301.5864   22141309.1284
 97 10 29 17 39 59.9970000  0  8 15 29 25 23 21  3  1 31
  22474343.143   -12980403.76349 -10087979.77749  22474342.0174   22474348.2764
  21683818.385   -11747764.24249  -8793837.78349  21683817.8754   21683824.1394
  22478909.398   -12573107.80749  -9773749.63849  22478908.3964   22478914.1794
  22689668.961     -916820.46549   -717095.57149  22689667.5004   22689674.6604
  20139034.553    -4169893.90849  -3243164.31449  20139033.9274   20139039.3104
  22557902.285      438344.23749    282614.76949  22557901.4604   22557908.6204
  19446872.941    -5955762.17349  -4629327.31549  19446872.2604   19446877.0434
  22132785.316    -3403335.77049  -2645729.02549  22132784.5424   22132791.0104
 97 10 29 17 40 29.9970000  0  8 15 29 25 23 21  3  1 31
  22437932.026   -13171745.75049 -10237077.38849  22437931.5034   22437937.5724
  21651941.411   -11915278.63149  -8924368.41949  21651940.9134   21651946.3044
  22443494.232   -12759215.78349  -9918768.81349  22443493.8234   22443500.0254
  22684895.300     -941906.93949   -736643.51849  22684894.0854   22684900.5474
  20126641.340    -4235020.67249  -3293912.44749  20126640.4474   20126645.8904
  22557614.222      436830.60149    281435.22049  22557614.5284   22557620.5294
  19431568.130    -6036189.52149  -4691997.97249  19431567.4664   19431572.4414
  22124322.062    -3447810.34349  -2680384.58349  22124320.9214   22124327.4504
 97 10 29 17 40 59.9970000  0  8 15 29 25 23 21  3  1 31
  22401520.366   -13363090.37549 -10386177.04349  22401519.3114   22401526.7754
  21620085.472   -12082682.44749  -9054812.90649  21620084.8774   21620090.8194
  22408070.238   -12945369.90549 -10063823.95149  22408070.4964   22408075.9204
  22680106.532     -967072.36549   -756252.99649  22680105.8594   22680111.3164
  20114256.718    -4300102.38949  -3344625.47949  20114255.9304   20114261.3464
  22557324.428      435307.72749    280248.47949  22557323.3704   22557331.7754
  19416316.258    -6116338.75449  -4754451.91949  19416315.5244   19416320.4514
  22115916.339    -3491982.83749  -2714804.75149  22115915.3704   22115921.9264
 97 10 29 17 41 29.9970000  0  8 15 29 25 23 21  3  1 31
  22365109.164   -13554432.28049 -10535274.60449  22365107.5984   22365114.4334
  21588255.577   -12249949.35149  -9185150.70149  21588255.0124   21588261.3904
  22372637.807   -13131568.81049 -10208913.97249  22372637.8454   22372643.5354
  22675304.164     -992308.96549   -775917.93249  22675303.7844   22675308.9724
  20101880.490    -4365139.95249  -3395304.10149  20101879.7184   20101885.0874
  22557028.138      433750.22049    279034.76849  22557027.4154   22557035.8134
  19401116.924    -6196212.05449  -4816690.85649  19401116.2574   19401121.2104
  22107564.022    -3535874.61049  -2749006.17449  22107563.1534   22107569.7454
 97 10 29 17 41 59.9970000  0  8 15 29 25 23 21  3  1 31
  22328701.328   -13745756.65549 -10684358.49249  22328699.5734   22328706.9534
  21556454.873   -12417063.07749  -9315369.12949  21556454.0474   21556460.7814
  22337200.867   -13317791.06949 -10354022.20449  22337200.7884   22337206.0364
  22670489.818    -1017608.88349   -795632.20149  22670488.6674   22670495.2044
  20089513.350    -4430129.90449  -3445945.62649  20089512.5004   20089517.6314
  22556723.290      432147.87849    277786.13149  22556722.7964   22556730.7444
  19385970.115    -6275809.07349  -4878714.50949  19385969.4534   19385974.3704
  22099264.077    -3579491.34849  -2782993.29149  22099263.8184   22099269.3434
 97 10 29 17 42 29.9970000  0  8 15 29 25 23 21  3  1 31
  22292298.265   -13937055.47249 -10833422.46749  22292296.6144   22292303.0434
  21524685.280   -12584013.10249  -9445460.00749  21524685.0114   21524690.9794
  22301762.114   -13504022.96149 -10499137.91849  22301760.9424   22301767.5004
  22665662.384    -1042977.62249   -815400.10849  22665661.1094   22665667.8374
  20077156.142    -4495067.38949  -3496546.27049  20077155.3854   20077160.5354
  22556411.898      430511.23749    276510.76549  22556412.0614   22556419.5884
  19370878.050    -6355118.53049  -4940514.09049  19370877.3914   19370882.1674
  22091018.791    -3622820.80649  -2816756.54949  22091018.1164   22091023.7944
 97 10 29 17 42 59.9960000  0  8 15 29 25 23 21  3  1 31
  22255904.549   -14128305.69749 -10982448.58349  22255903.0094   22255911.1094
  21492953.918   -12750762.35549  -9575394.44349  21492953.5084   21492959.4194
  22266323.502   -13690253.78849 -10644252.78949  22266322.8354   22266328.6394
  22660828.396    -1068380.98849   -835194.98549  22660827.5564   22660834.0834
  20064818.089    -4559904.22349  -3547068.48449  20064817.1564   20064822.7084
  22556098.902      428865.97749    275228.66849  22556098.4184   22556106.3374
  19355845.436    -6434115.59449  -5002070.24449  19355844.6584   19355849.6974
  22082829.721    -3665854.65749  -2850289.46549  22082828.8964   22082835.4314
 97 10 29 17 43 29.9960000  0  8 15 29 25 23 21  3  1 31
  22219521.198   -14319501.52049 -11131432.32049  22219519.9564   22219527.1594
  21461260.067   -12917314.19449  -9705175.03349  21461259.7494   21461265.4874
  22230889.413   -13876460.86549 -10789349.15449  22230888.4464   22230895.0624
  22655993.110    -1093791.04649   -854995.08349  22655992.3234   22655998.7524
  20052506.170    -4624604.06549  -3597483.95349  20052505.2494   20052510.5424
  22555789.392      427239.52549    273961.20949  22555789.2124   22555797.5754
  19340874.476    -6512788.34849  -5063373.69449  19340873.6824   19340878.6594
  22074699.344    -3708580.54449  -2883582.41049  22074698.7344   22074704.7704
 97 10 29 17 43 59.9960000  0  8 15 29 25 23 21  3  1 31
  22183150.526   -14510630.75049 -11280364.15549  22183149.1354   22183156.6004
  21429600.399   -13083686.44849  -9834815.69049  21429599.7774   21429605.8344
  22195465.825   -14062613.11849 -10934402.78749  22195465.7194   22195471.2664
  22651156.205    -1119209.13049   -874801.42449  22651155.8614   22651160.9544
  20040222.022    -4689157.71749  -3647785.50749  20040221.2244   20040226.7404
  22555487.323      425651.83649    272723.95349  22555486.8414   22555495.1874
  19325965.678    -6591134.65249  -5124422.76849  19325964.8234   19325969.9454
  22066632.267    -3750973.58949  -2916615.99249  22066631.5894   22066637.7834
 97 10 29 17 44 29.9960000  0  8 15 29 25 23 21  3  1 31
  22146794.927   -14701680.62549 -11429234.16449  22146793.7244   22146800.9154
  21397977.184   -13249867.23049  -9964307.15449  21397976.6494   21397982.2634
  22160056.171   -14248692.42149 -11079399.58149  22160055.3734   22160061.4764
  22646322.830    -1144608.97849   -894593.57249  22646322.1874   22646327.9044
  20027970.150    -4753541.90249  -3697955.01549  20027969.4254   20027974.8194
  22555197.069      424125.96549    271534.86649  22555196.7624   22555204.5854
  19311122.879    -6669134.01049  -5185201.49549  19311122.1284   19311127.2084
  22058630.871    -3793021.17849  -2949380.39049  22058629.3494   22058635.2104
 97 10 29 17 44 59.9960000  0  8 15 29 25 23 21  3  1 31
  22110458.653   -14892628.90849 -11578025.00449  22110457.7094   22110465.1294
  21366394.579   -13415834.57249 -10093632.29149  21366394.0234   21366399.8954
  22124665.440   -14434671.75549 -11224318.45849  22124665.2634   22124671.3874
  22641496.676    -1169970.70449   -914355.99949  22641496.1884   22641500.9064
  20015753.775    -4817739.27049  -3747978.94649  20015752.9434   20015758.2234
  22554919.736      422668.65949    270399.23149  22554919.6944   22554927.9874
  19296347.001    -6746781.85449  -5245706.30849  19296346.1684   19296351.2764
  22050696.487    -3834716.41249  -2981870.22849  22050696.1514   22050702.7374
 97 10 29 17 45 29.9960000  0  8 15 29 25 23 21  3  1 31
  22074139.120   -15083489.53249 -11726747.53849  22074138.2724   22074144.1344
  21334846.968   -13581618.36449 -10222814.40449  21334846.3534   21334852.2214
  22089292.916   -14620555.39549 -11369162.76149  22089292.5114   22089298.0864
  22636672.366    -1195322.57149   -934110.73849  22636671.7184   22636677.7584
  20003564.528    -4881794.19149  -3797891.87949  20003563.9814   20003569.1654
  22554651.653      421258.94349    269300.67749  22554651.5004   22554658.7534
  19281633.096    -6824103.82149  -5305957.19349  19281632.5044   19281637.2894
  22042825.508    -3876079.30349  -3014101.09149  22042824.2304   22042831.1324
 97 10 29 17 45 59.9960000  0  8 15 29 25 23 21  3  1 31
  22037839.020   -15274247.78949 -11875390.31049  22037836.5534   22037844.0484
  21303334.608   -13747216.77649 -10351852.06549  21303334.1794   21303340.2474
  22053938.640   -14806343.35549 -11513932.51949  22053938.0464   22053944.4394
  22631852.527    -1220650.79349   -953847.06449  22631851.5054   22631857.5334
  19991402.101    -4945708.30649  -3847695.09649  19991401.2514   19991406.7104
  22554393.390      419901.09649    268242.52549  22554393.2884   22554401.4194
  19266985.328    -6901078.41249  -5365937.39149  19266984.5244   19266989.5594
  22035020.302    -3917096.02449  -3046062.22749  22035019.2844   22035025.4874
 97 10 29 17 46 29.9960000  0  8 15 29 25 23 21  3  1 31
  22001561.973   -15464884.65549 -12023938.47649  22001559.8674   22001568.1904
  21271862.459   -13912603.79549 -10480725.00549  21271861.9064   21271867.8124
  22018602.325   -14992036.68549 -11658628.53649  22018601.3594   22018607.1894
  22627041.896    -1245931.31149   -973546.22649  22627041.4554   22627047.4934
  19979267.453    -5009476.38749  -3897384.51949  19979266.5224   19979271.7814
  22554145.382      418597.52349    267226.66349  22554145.2404   22554152.7364
  19252406.179    -6977692.53849  -5425636.70749  19252405.3174   19252410.3034
  22027282.163    -3957760.17649  -3077748.62049  22027281.5804   22027288.4564
 97 10 29 17 46 59.9960000  0  8 15 29 25 23 21  3  1 31
  21965312.051   -15655379.09649 -12172375.65349  21965311.8714   21965317.3224
  21240431.402   -14077775.11849 -10609429.88449  21240431.1264   21240436.8614
  21983285.227   -15177628.95249 -11803245.78749  21983284.2194   21983290.5914
  22622242.637    -1271151.41649   -993198.31949  22622242.3484   22622247.6374
  19967160.722    -5073097.77749  -3946959.63649  19967160.0034   19967165.5044
  22553909.620      417358.50749    266261.08549  22553908.3744   22553917.4994
  19237897.961    -7053933.67349  -5485045.37649  19237897.1914   19237902.2294
  22019614.108    -3998056.18349  -3109148.14749  22019612.9794   22019620.1114
 97 10 29 17 47 29.9960000  0  8 15 29 25 23 21  3  1 31
  21929076.970   -15845795.15249 -12320751.75849  21929076.1364   21929083.8704
  21209028.233   -14242799.86549 -10738020.53949  21209027.5364   21209033.4674
  21947972.423   -15363198.60849 -11947845.43549  21947971.9654   21947978.2174
  22617445.241    -1296362.12049  -1012843.06449  22617444.3494   22617452.0424
  19955068.590    -5136642.35349  -3996474.90449  19955067.9044   19955073.1274
  22553672.696      416113.79849    265291.05849  22553672.3184   22553681.0424
  19223451.317    -7129851.28949  -5544201.95349  19223450.5524   19223455.4964
  22012006.592    -4038034.18349  -3140299.88249  22012006.3754   22012012.0774
 97 10 29 17 47 59.9960000  0  8 15 29 25 23 21  3  1 31
  21892875.646   -16036034.29849 -12468989.99949  21892874.5784   21892881.2304
  21177674.144   -14407566.51149 -10866410.07249  21177673.6224   21177678.8034
  21912682.180   -15548649.69149 -12092352.69749  21912681.5064   21912687.5394
  22612666.329    -1321475.80249  -1032412.21149  22612665.3584   22612672.1864
  19943011.128    -5200004.73049  -4045848.19149  19943010.4014   19943015.6664
  22553451.101      414948.78249    264383.14949  22553451.0714   22553459.4164
  19209087.065    -7205336.02449  -5603021.21449  19209086.5064   19209091.3934
  22004479.520    -4077589.34349  -3171122.13849  22004479.4264   22004485.8414
 97 10 29 17 48 29.9960000  0  8 15 29 25 23 21  3  1 31
  21856712.109   -16226074.71949 -12617073.39049  21856711.0344   21856717.8404
  21146378.063   -14572028.41549 -10994562.15449  21146377.6874   21146382.9374
  21877417.342   -15733967.16849 -12236755.84249  21877417.0994   21877421.6204
  22607908.871    -1346477.19449  -1051893.86749  22607908.2214   22607914.9364
  19930993.120    -5263159.99149  -4095060.09649  19930992.3814   19930997.7164
  22553247.374      413877.84649    263548.54849  22553247.2724   22553255.3674
  19194806.289    -7280382.26649  -5661498.79549  19194805.6534   19194810.4904
  21997033.283    -4116719.77749  -3201613.44749  21997033.1814   21997039.2694
 97 10 29 17 48 59.9960000  0  8 15 29 25 23 21  3  1 31
  21820568.167   -16416012.22949 -12765076.57949  21820567.1564   21820574.1654
  21115123.318   -14736273.05249 -11122544.92549  21115122.6754   21115128.2704
  21842160.983   -15919240.20749 -12381124.34949  21842159.9774   21842166.5124
  22603152.927    -1371469.98949  -1071368.83649  22603151.5344   22603158.2324
  19918998.800    -5326190.59949  -4144174.86849  19918997.9254   19919003.4374
  22553044.015      412808.55049    262715.23349  22553044.1324   22553052.2694
  19180589.958    -7355089.70149  -5719712.36849  19180589.0744   19180594.0534
  21989649.216    -4155523.75449  -3231850.35849  21989648.6634   21989654.8844
 97 10 29 17 49 29.9960000  0  8 15 29 25 23 21  3  1 31
  21784461.458   -16605754.28649 -12912927.47949  21784460.2724   21784467.1494
  21083931.121   -14900188.76449 -11250271.39049  21083930.6194   21083936.3914
  21806933.374   -16104361.80049 -12525374.84949  21806932.2354   21806938.3814
  22598413.384    -1396375.89749  -1090776.09649  22598412.7744   22598418.8834
  19907047.224    -5388996.36549  -4193114.44049  19907046.2494   19907051.6764
  22552858.943      411835.21449    261956.68549  22552858.1714   22552866.8134
  19166453.746    -7429375.94549  -5777597.74549  19166452.9314   19166457.9534
  21982343.549    -4193915.64649  -3261766.17549  21982343.5004   21982349.0464
 97 10 29 17 49 59.9960000  0  8 15 29 25 23 21  3  1 31
  21748378.489   -16795371.18549 -13060680.83949  21748377.2824   21748384.7014
  21052787.188   -15063851.08849 -11377800.42149  21052787.0094   21052792.3294
  21771724.421   -16289385.56149 -12669549.13249  21771723.9794   21771729.8554
  22593672.923    -1421287.58049  -1110187.84249  22593672.3664   22593678.8874
  19895127.473    -5451635.33249  -4241924.03649  19895126.8904   19895132.2384
  22552679.412      410891.67749    261221.35749  22552679.4054   22552687.5644
  19152379.966    -7503334.09949  -5835227.46749  19152379.1144   19152384.1194
  21975095.122    -4232006.89249  -3291447.71849  21975094.2194   21975101.0764
 97 10 29 17 50 29.9960000  0  8 15 29 25 23 21  3  1 31
  21712328.950   -16984812.59149 -13208297.46649  21712328.1384   21712334.5044
  21021698.612   -15227222.66249 -11505102.88849  21021697.7814   21021704.0794
  21736543.691   -16474261.10049 -12813607.93049  21736543.1244   21736548.8594
  22588943.239    -1446142.74949  -1129555.56249  22588942.9004   22588948.8284
  19883251.488    -5514044.22349  -4290554.35449  19883250.7324   19883256.2414
  22552515.123      410027.46149    260547.83749  22552514.8494   22552523.3664
  19138373.377    -7576939.14549  -5892582.04349  19138372.5704   19138377.5574
  21967908.880    -4269770.88349  -3320874.26549  21967907.8944   21967914.7344
 97 10 29 17 50 59.9960000  0  8 15 29 25 23 21  3  1 31
  21676311.042   -17174087.88349 -13355784.66049  21676310.4734   21676316.9984
  20990659.550   -15390333.84349 -11632202.44649  20990659.0994   20990664.7064
  21701392.404   -16658982.09849 -12957546.31449  21701392.2194   21701397.6644
  22584223.286    -1470946.48949  -1148883.20149  22584222.9984   22584228.3644
  19871417.243    -5576233.78749  -4339013.76449  19871416.5154   19871421.6274
  22552363.436      409229.76449    259926.16649  22552362.5844   22552371.2264
  19124431.440    -7650204.50649  -5949671.92949  19124430.6624   19124435.6944
  21960782.028    -4307223.05349  -3350057.83149  21960781.5874   21960788.2674
 97 10 29 17 51 29.9950000  0  8 15 29 25 23 21  3  1 31
  21640337.525   -17363129.55849 -13503089.80749  21640336.2774   21640343.6294
  20959678.863   -15553138.31849 -11759063.01349  20959678.0074   20959684.1654
  21666283.010   -16843482.97549 -13101313.17149  21666282.6554   21666288.4334
  22579525.041    -1495635.34649  -1168121.32949  22579525.0104   22579531.0194
  19859634.651    -5638151.80149  -4387261.57349  19859633.7424   19859639.1034
  22552232.878      408543.27449    259391.14149  22552232.8944   22552241.0044
  19110564.786    -7723074.03449  -6006453.38049  19110563.9724   19110569.0564
  21953724.374    -4344312.01449  -3378958.37849  21953723.3944   21953730.6434
 97 10 29 17 51 59.9950000  0  8 15 29 25 23 21  3  1 31
  21604395.710   -17552005.57849 -13650265.88449  21604395.0894   21604401.7564
  20928738.742   -15715729.53549 -11885757.40449  20928738.8564   20928743.8534
  21631199.418   -17027848.16749 -13244974.29849  21631197.9434   21631204.8884
  22574840.994    -1520250.67449  -1187302.15449  22574840.8434   22574846.9524
  19847893.056    -5699854.15949  -4435341.34249  19847892.4304   19847897.6504
  22552108.328      407887.97149    258880.41949  22552107.9114   22552116.2674
  19096763.204    -7795601.91749  -6062968.61649  19096762.4864   19096767.4534
  21946725.326    -4381092.29849  -3407618.38249  21946724.4694   21946731.3424
 97 10 29 17 52 29.9950000  0  8 15 29 25 23 21  3  1 31
  21568493.331   -17740674.18149 -13797280.34049  21568493.1434   21568498.3794
  20897845.283   -15878075.92449 -12012261.02549  20897845.0334   20897850.7924
  21596147.613   -17212046.22449 -13388505.19349  21596147.5584   21596153.0434
  22570181.454    -1544737.08949  -1206382.52949  22570181.1994   22570186.9904
  19836197.113    -5761316.81949  -4483234.33849  19836196.2974   19836201.6404
  22551994.751      407290.20849    258414.51749  22551994.8294   22552003.7024
  19083035.461    -7867741.73049  -6119181.46449  19083034.6904   19083039.6684
  21939797.250    -4417499.80349  -3435987.91349  21939796.4754   21939803.5164
 97 10 29 17 52 59.9950000  0  8 15 29 25 23 21  3  1 31
  21532632.743   -17929122.99049 -13944123.51049  21532631.5194   21532638.9694
  20867000.225   -16040167.64049 -12138566.19149  20866999.8674   20867005.3644
  21561131.027   -17396059.86349 -13531892.39549  21561130.8404   21561136.2914
  22565545.365    -1569100.24549  -1225366.87149  22565544.0394   22565551.9584
  19824544.649    -5822550.92549  -4530949.24149  19824543.9044   19824549.3344
  22551893.256      406756.76549    257998.73949  22551892.6004   22551901.2794
  19069385.546    -7939472.63049  -6175075.67549  19069384.8104   19069389.6794
  21932944.565    -4453510.68949  -3464048.41949  21932944.2394   21932950.7064
 97 10 29 17 53 29.9950000  0  8 15 29 25 23 21  3  1 31
  21496804.186   -18117403.47749 -14090835.52449  21496803.0534   21496809.5914
  20836194.749   -16202051.24049 -12264709.20149  20836194.3634   20836199.4414
  21526138.225   -17579948.44649 -13675182.15049  21526137.7754   21526143.3564
  22560919.446    -1593409.53049  -1244309.22949  22560918.5114   22560925.5954
  19812924.921    -5883612.98649  -4578530.08149  19812924.2184   19812929.6304
  22551791.528      406222.39949    257582.23349  22551790.8204   22551799.7434
  19055805.881    -8010834.16949  -6230682.07249  19055805.1414   19055809.9464
  21926159.814    -4489165.16549  -3491831.18049  21926159.8454   21926166.6414
 97 10 29 17 53 59.9950000  0  8 15 29 25 23 21  3  1 31
  21461014.235   -18305481.01849 -14237389.39849  21461013.0204   21461019.6634
  20805437.623   -16363681.05249 -12390654.45149  20805437.0064   20805442.8334
  21491176.121   -17763675.50149 -13818346.05049  21491175.2294   21491181.4824
  22556310.448    -1617630.13849  -1263182.49049  22556309.8924   22556316.1574
  19801343.738    -5944472.38449  -4625952.99949  19801342.8464   19801348.2944
  22551696.427      405722.19949    257192.35049  22551695.6064   22551704.3304
  19042304.075    -8081786.85349  -6285969.88149  19042303.3584   19042308.2094
  21919447.582    -4524438.88449  -3519317.24649  21919447.1924   21919453.8364
 97 10 29 17 54 29.9950000  0  8 15 29 25 23 21  3  1 31
  21425259.310   -18493374.25349 -14383799.67049  21425259.0224   21425264.8784
  20774729.506   -16525052.98849 -12516398.75349  20774728.7854   20774734.3384
  21456245.074   -17947238.77349 -13961382.31149  21456244.5214   21456250.1704
  22551711.847    -1641796.39849  -1282013.40149  22551711.2254   22551717.2914
  19789796.288    -6005154.86749  -4673238.06249  19789795.6504   19789800.9004
  22551606.494      405249.18849    256823.66549  22551606.4484   22551615.4584
  19028872.681    -8152369.38549  -6340969.26449  19028871.9364   19028876.8954
  21912802.457    -4559359.48649  -3546528.16149  21912802.2934   21912808.6334
 97 10 29 17 54 59.9950000  0  8 15 29 25 23 21  3  1 31
  21389549.572   -18681029.93349 -14530024.83249  21389548.2244   21389554.4954
  20744083.481   -16686098.50849 -12641888.71749  20744082.7704   20744088.4804
  21421357.530   -18130573.87449 -14104240.78549  21421357.0734   21421362.3204
  22547130.148    -1665874.13349  -1300775.34449  22547130.1874   22547136.0174
  19778293.385    -6065603.10749  -4720340.59849  19778292.7034   19778297.9064
  22551529.135      404841.99749    256506.28949  22551528.5024   22551537.1714
  19015519.632    -8222540.04149  -6395647.70449  19015518.9104   19015523.8724
  21906230.741    -4593894.38249  -3573438.51849  21906230.3324   21906236.5124
 97 10 29 17 55 29.9950000  0  8 15 29 25 23 21  3  1 31
  21353878.388   -18868483.10049 -14676092.19249  21353877.9584   21353882.6144
  20713493.735   -16846848.53449 -12767148.42649  20713493.0274   20713499.0524
  21386505.638   -18313721.70949 -14246953.33349  21386504.4014   21386510.4974
  22542562.594    -1689877.46349  -1319479.29349  22542561.2604   22542568.2704
  19766832.504    -6125830.57549  -4767271.10449  19766831.6974   19766837.1384
  22551456.263      404459.00849    256207.75449  22551455.4424   22551463.6634
  19002236.194    -8292344.95249  -6450041.14749  19002235.5564   19002240.4344
  21899722.325    -4628096.35349  -3600089.46749  21899721.6884   21899728.5514
 97 10 29 17 55 59.9950000  0  8 15 29 25 23 21  3  1 31
  21318255.839   -19055680.69949 -14821960.41649  21318255.7494   21318260.5834
  20682969.992   -17007251.42249 -12892137.64449  20682969.0884   20682975.2214
  21351699.154   -18496630.63349 -14389479.71949  21351699.1864   21351704.0214
  22538019.822    -1713749.87349  -1338081.24549  22538018.7144   22538025.6214
  19755422.882    -6185788.50949  -4813991.58249  19755422.2264   19755427.3904
  22551398.226      404153.80149    255969.81849  22551398.8414   22551406.6834
  18989027.413    -8361757.49949  -6504128.84949  18989026.6704   18989031.6474
  21893284.075    -4661929.93949  -3626453.34949  21893284.0954   21893290.4824
 97 10 29 17 56 29.9950000  0  8 15 29 25 23 21  3  1 31
  21282674.692   -19242660.25449 -14967658.72149  21282673.0824   21282680.1154
  20652505.353   -17167343.98849 -13016885.05349  20652505.1084   20652510.8604
  21316932.849   -18679328.79049 -14531841.86949  21316932.2854   21316937.8214
  22533492.025    -1737543.50449  -1356621.80649  22533491.8784   22533498.3074
  19744057.240    -6245515.31749  -4860531.96049  19744056.4344   19744061.9234
  22551347.744      403887.29149    255762.03049  22551347.1274   22551356.1414
  18975885.263    -8430819.95549  -6557943.75149  18975884.4894   18975889.6754
  21886908.697    -4695433.19649  -3652559.84149  21886907.8694   21886915.1014
 97 10 29 17 56 59.9950000  0  8 15 29 25 23 21  3  1 31
  21247140.726   -19429392.49049 -15113164.32249  21247139.8814   21247145.6864
  20622103.409   -17327106.85449 -13141375.55349  20622102.9754   20622108.5544
  21282208.948   -18861803.62949 -14674029.99649  21282208.3444   21282214.2754
  22528986.208    -1761222.16049  -1375072.78249  22528985.2784   22528991.6374
  19732739.985    -6304987.83549  -4906874.18749  19732739.0294   19732744.4104
  22551307.953      403678.03849    255598.84349  22551307.7944   22551316.5534
  18962816.474    -8499496.78849  -6611458.16749  18962815.6364   18962820.7284
  21880599.257    -4728589.24049  -3678395.77549  21880598.4374   21880605.6394
 97 10 29 17 57 29.9950000  0  8 15 29 25 23 21  3  1 31
  21211652.204   -19615885.56149 -15258483.57149  21211651.2894   21211657.9954
  20591760.389   -17486560.05249 -13265624.75549  20591759.6914   20591765.3704
  21247523.918   -19044074.44649 -14816059.13549  21247523.0464   21247528.8644
  22524502.006    -1784787.17749  -1393435.21149  22524501.6724   22524508.3864
  19721467.166    -6364226.92249  -4953034.52649  19721466.5634   19721471.7114
  22551279.386      403527.32849    255481.26449  22551278.8054   22551287.8444
  18949820.226    -8567792.35349  -6664675.49149  18949819.5734   18949824.5044
  21874354.756    -4761404.57249  -3703966.21449  21874353.5204   21874361.4714
 97 10 29 17 57 59.9950000  0  8 15 29 25 23 21  3  1 31
  21176210.023   -19802135.70949 -15403613.52049  21176208.7764   21176215.9164
  20561476.153   -17645704.70549 -13389633.53449  20561475.7674   20561481.0824
  21212878.276   -19226138.15749 -14957926.88149  21212877.8004   21212883.4684
  22520035.911    -1808256.40649  -1411722.99849  22520035.2444   22520042.0704
  19710234.790    -6423253.59949  -4999029.34449  19710234.2994   19710239.6704
  22551263.333      403442.58649    255415.09349  22551262.9164   22551272.3684
  18936897.754    -8635700.55049  -6717590.96449  18936897.1094   18936902.1414
  21868176.413    -4793872.17149  -3729265.69849  21868176.2074   21868183.2674
 97 10 29 17 58 29.9950000  0  8 15 29 25 23 21  3  1 31
  21140815.474   -19988135.14649 -15548548.11749  21140813.6594   21140821.4294
  20531251.025   -17804538.75949 -13513400.28149  20531250.4814   20531256.2264
  21178272.565   -19407992.23149 -15099631.29249  21178272.5774   21178277.3234
  22515589.238    -1831623.90549  -1429931.51949  22515588.9024   22515595.2414
  19699045.537    -6482053.68249  -5044847.60049  19699044.9054   19699049.9694
  22551261.616      403433.23649    255407.65349  22551262.0764   22551270.1614
  18924050.231    -8703214.81249  -6770199.47949  18924049.5934   18924054.4624
  21862065.273    -4825986.63849  -3754290.01249  21862064.2484   21862072.2564
 97 10 29 17 58 59.9950000  0  8 15 29 25 23 21  3  1 31
  21105471.552   -20173868.12449 -15693275.07449  21105470.7674   21105476.9664
  20501085.372   -17963060.02749 -13636923.29749  20501084.8544   20501090.4924
  21143704.894   -19589646.37649 -15241179.91049  21143704.4084   21143709.9694
  22511165.172    -1854873.10249  -1448047.83649  22511164.8654   22511170.9734
  19687901.443    -6540616.33249  -5090480.83949  19687900.9604   19687906.0904
  22551274.378      403499.51149    255459.15749  22551274.2784   22551282.4904
  18911278.965    -8770328.38249  -6822495.76049  18911278.3744   18911283.2054
  21856024.091    -4857733.92349  -3779028.20049  21856023.4604   21856030.8284
 97 10 29 17 59 29.9950000  0  8 15 29 25 23 21  3  1 31
  21070177.053   -20359341.68849 -15837799.88949  21070175.5414   21070183.2844
  20470976.404   -18121283.58449 -13760214.32849  20470975.9184   20470981.4594
  21109174.953   -19771102.19649 -15382573.97649  21109174.8824   21109180.3874
  22506759.740    -1878024.76949  -1466088.17349  22506759.9844   22506766.3164
  19676801.338    -6598947.96449  -5135934.06549  19676800.7544   19676806.0464
  22551298.477      403625.29149    255557.04149  22551298.0514   22551306.9794
  18898582.402    -8837049.42349  -6874486.17849  18898581.9244   18898586.7494
  21850052.281    -4889116.19049  -3803481.98549  21850051.6544   21850058.8944
 97 10 29 17 59 59.9940000  0  8 15 29 25 23 21  3  1 31
  21034934.313   -20544543.60949 -15982113.02449  21034933.6484   21034939.9364
  20440925.291   -18279203.05249 -13883268.40449  20440925.0224   20440930.4454
  21074685.218   -19952346.85049 -15523803.48849  21074685.2594   21074690.5184
  22502372.257    -1901081.53749  -1484054.56649  22502371.2334   22502378.1884
  19665748.203    -6657032.70849  -5181194.91249  19665747.3764   19665752.7984
  22551331.397      403797.51749    255691.11249  22551330.7894   22551339.5424
  18885960.101    -8903380.19149  -6926172.48149  18885959.4624   18885964.3574
  21844149.907    -4920133.66149  -3827651.48949  21844149.3704   21844157.0714
 97 10 29 18  0 29.9940000  0  8 15 29 25 23 21  3  1 31
  20999741.118   -20729484.93249 -16126223.09949  20999740.8024   20999747.2364
  20410928.015   -18436839.74549 -14006102.13649  20410927.5194   20410933.0024
  21040235.625   -20133380.60249 -15664868.67649  21040235.1784   21040240.9004
  22498003.539    -1924039.32649  -1501943.81649  22498004.1564   22498010.2544
  19654741.881    -6714871.26549  -5226263.92549  19654741.1264   19654746.3494
  22551367.947      403989.02549    255840.21249  22551367.6034   22551376.0964
  18873412.906    -8969316.14049  -6977551.13749  18873412.1894   18873417.0354
  21838313.601    -4950803.49249  -3851550.11249  21838312.7414   21838320.0064
 97 10 29 18  0 59.9940000  0  8 15 29 25 23 21  3  1 31
  20964597.935   -20914163.50249 -16270128.42249  20964596.7324   20964604.5014
  20380982.508   -18594204.49449 -14128723.96949  20380982.3604   20380987.4344
  21005830.018   -20314183.20349 -15805753.75449  21005829.3174   21005834.6354
  22493654.719    -1946892.15949  -1519751.30949  22493653.8084   22493660.5844
  19643779.789    -6772477.53749  -5271151.94049  19643779.2154   19643784.0454
  22551403.577      404176.08749    255985.84249  22551403.7584   22551413.2684
  18860942.704    -9034847.38549  -7028614.43549  18860941.9624   18860946.7624
  21832542.384    -4981131.40749  -3875182.31749  21832541.8264   21832549.2904
 97 10 29 18  1 29.9940000  0  8 15 29 25 23 21  3  1 31
  20929492.643   -21098643.07449 -16413878.68249  20929491.1554   20929498.1714
  20351078.128   -18751352.90949 -14251177.21849  20351077.8524   20351083.2194
  20971460.278   -20494797.00849 -15946491.71349  20971459.2514   20971465.0134
  22489315.025    -1969697.53249  -1537521.79849  22489314.9714   22489321.7604
  19632850.522    -6829911.11849  -5315905.38949  19632849.7714   19632855.0714
  22551425.436      404290.88149    256075.13249  22551425.7034   22551433.1314
  18848537.774    -9100035.55949  -7079410.40449  18848537.1494   18848542.0214
  21826823.259    -5011186.31649  -3898601.78649  21826823.5544   21826829.7564
 97 10 29 18  1 59.9940000  0  8 15 29 25 23 21  3  1 31
  20894426.944   -21282914.15649 -16557466.48849  20894425.2704   20894432.6674
  20321218.104   -18908268.22849 -14373448.84349  20321217.5944   20321222.7724
  20937129.252   -20675207.47549 -16087071.22149  20937129.0274   20937134.3254
  22484986.641    -1992443.83249  -1555246.24549  22484986.0284   22484993.4874
  19621955.657    -6887164.04949  -5360518.07149  19621955.0734   19621960.3764
  22551434.185      404336.80549    256110.75349  22551434.2174   22551441.9654
  18836198.056    -9164881.16749  -7129939.44049  18836197.3024   18836202.3654
  21821155.284    -5040971.97449  -3921811.44749  21821154.5394   21821161.4214
 97 10 29 18  2 29.9940000  0  8 15 29 25 23 21  3  1 31
  20859401.966   -21466971.45749 -16700887.71549  20859401.0874   20859407.7274
  20291404.485   -19064939.59049 -14495530.38049  20291403.9534   20291409.2694
  20902838.900   -20855404.48249 -16227484.40749  20902838.0464   20902843.7074
  22480669.539    -2015130.46849  -1572924.20949  22480669.5564   22480675.2564
  19611096.002    -6944232.00649  -5404986.62349  19611095.2714   19611100.4444
  22551430.729      404318.48549    256096.30149  22551430.7694   22551438.0274
  18823922.364    -9229390.40949  -7180206.37649  18823921.6704   18823926.5524
  21815538.584    -5070488.06749  -3944811.04749  21815538.1674   21815545.2964
 97 10 29 18  2 59.9940000  0  8 15 29 25 23 21  3  1 31
  20824424.729   -21650777.79149 -16844113.37049  20824424.0314   20824430.3964
  20261647.386   -19221314.09749 -14617380.59449  20261647.1244   20261652.1984
  20868592.477   -21035370.25749 -16367717.41749  20868592.0644   20868597.6354
  22476371.307    -2037718.56849  -1590525.40749  22476370.5324   22476377.6854
  19600279.699    -7001071.93849  -5449277.49049  19600279.0894   19600284.3764
  22551423.185      404278.71049    256065.12849  22551422.7954   22551432.3434
  18811713.041    -9293550.64249  -7230201.35149  18811712.3534   18811717.2174
  21809980.794    -5099694.49149  -3967569.35649  21809980.0454   21809986.6954
 97 10 29 18  3 29.9940000  0  8 15 29 25 23 21  3  1 31
  20789491.594   -21834352.79349 -16987158.78449  20789490.3554   20789496.7434
  20231946.308   -19377394.33449 -14739001.51549  20231946.0554   20231951.2284
  20834383.328   -21215140.28049 -16507797.89949  20834383.3774   20834388.0324
  22472083.643    -2060250.85749  -1608083.12049  22472083.8904   22472089.6864
  19589504.232    -7057697.40549  -5493401.24449  19589503.6494   19589509.0104
  22551408.308      404199.62649    256003.33549  22551409.1544   22551417.0124
  18799561.408    -9357408.02649  -7279960.34249  18799560.7454   18799565.5534
  21804474.656    -5128629.25449  -3990115.99849  21804473.9974   21804481.4924
 97 10 29 18  3 59.9940000  0  8 15 29 25 23 21  3  1 31
  20754616.099   -22017624.74549 -17129968.03649  20754615.2894   20754621.4684
  20202312.670   -19533119.82349 -14860346.00949  20202312.0204   20202317.5414
  20800224.864   -21394644.04449 -16647670.91149  20800224.3644   20800229.3914
  22467818.160    -2082666.28249  -1625549.77549  22467817.4544   22467825.1734
  19578782.409    -7114041.25749  -5537305.55949  19578781.7514   19578786.9894
  22551400.038      404155.01049    255968.39749  22551399.8314   22551408.9324
  18787479.390    -9420899.58449  -7329434.27549  18787478.7194   18787483.6694
  21799030.691    -5157237.57849  -4012408.24249  21799030.4254   21799037.8734
 97 10 29 18  4 29.9940000  0  8 15 29 25 23 21  3  1 31
  20719787.177   -22200651.69749 -17272586.38749  20719786.0314   20719792.1874
  20172732.356   -19688565.19349 -14981472.22649  20172731.6784   20172737.2664
  20766105.481   -21573942.45749 -16787383.91349  20766105.1054   20766110.2224
  22463565.017    -2105017.25849  -1642966.18849  22463564.8684   22463571.5634
  19568101.297    -7170170.97349  -5581043.01049  19568100.5664   19568105.8304
  22551387.431      404088.06449    255916.07049  22551387.5694   22551397.2814
  18775457.468    -9484075.22649  -7378662.04149  18775456.9224   18775461.6104
  21793637.518    -5185579.33349  -4034492.77249  21793637.4594   21793644.1074
 97 10 29 18  4 59.9940000  0  8 15 29 25 23 21  3  1 31
  20685013.457   -22383388.69849 -17414978.80749  20685012.4144   20685019.4164
  20143213.309   -19843688.49749 -15102347.48549  20143212.9744   20143218.1894
  20732033.507   -21752991.50349 -16926902.59849  20732033.1224   20732038.1364
  22459332.751    -2127258.08049  -1660296.77749  22459332.3384   22459338.7184
  19557466.723    -7226056.04349  -5624589.82949  19557466.2084   19557471.4964
  22551379.881      404047.51749    255884.32549  22551380.6144   22551389.2564
  18763506.099    -9546880.10249  -7427600.90049  18763505.3964   18763510.2854
  21788303.601    -5213609.65449  -4056334.63549  21788303.7614   21788310.4604
 97 10 29 18  5 29.9940000  0  8 15 29 25 23 21  3  1 31
  20650291.654   -22565853.10349 -17557158.81549  20650290.7214   20650296.7534
  20113750.578   -19998516.10649 -15222992.34149  20113750.2104   20113755.4694
  20698008.324   -21931794.85149 -17066229.85049  20698008.0274   20698013.0524
  22455115.286    -2149421.72749  -1677567.21849  22455115.3374   22455121.6534
  19546873.653    -7281723.09649  -5667966.76449  19546873.1614   19546878.3154
  22551373.543      404012.99749    255857.24249  22551373.4194   22551383.3704
  18751621.164    -9609335.66849  -7476267.57349  18751620.5734   18751625.3704
  21783025.271    -5241348.29349  -4077949.20949  21783024.8964   21783031.6334
 97 10 29 18  5 59.9940000  0  8 15 29 25 23 21  3  1 31
  20615624.570   -22748029.58049 -17699114.46449  20615623.3514   20615629.6664
  20084345.222   -20153042.26149 -15343402.29849  20084344.6784   20084350.1134
  20664034.092   -22110330.47749 -17205348.49049  20664033.9874   20664038.9704
  22450918.484    -2171476.37949  -1694752.73849  22450917.6734   22450925.5444
  19536323.067    -7337167.08849  -5711169.88749  19536322.5654   19536327.6924
  22551369.923      403993.72149    255842.07149  22551370.4214   22551379.5714
  18739807.218    -9671418.40349  -7524643.72949  18739806.5324   18739811.4474
  21777808.506    -5268763.05549  -4099311.40549  21777807.9674   21777814.8704
 97 10 29 18  6 29.9940000  0  8 15 29 25 23 21  3  1 31
  20581029.904   -22929825.32349 -17840773.43449  20581028.8004   20581035.0164
  20055015.180   -20307172.52449 -15463503.76049  20055014.6924   20055019.9664
  20630125.493   -22288521.03749 -17344198.24149  20630125.5114   20630130.1614
  22446759.706    -2193330.76249  -1711782.20849  22446759.2824   22446765.9594
  19525831.696    -7392299.45049  -5754130.17449  19525830.9984   19525836.0794
  22551384.424      404069.36049    255900.85149  22551384.6014   22551393.3654
  18728080.639    -9733041.82349  -7572661.97949  18728080.0904   18728084.8494
  21772671.870    -5295756.35549  -4120345.19749  21772671.5334   21772677.6674
 97 10 29 18  6 59.9940000  0  8 15 29 25 23 21  3  1 31
  20546507.034   -23111243.75849 -17982138.39349  20546505.8704   20546512.8054
  20025760.539   -20460906.32749 -15583296.30249  20025760.0154   20025765.5004
  20596281.176   -22466374.10249 -17482785.01549  20596280.8614   20596286.2154
  22442635.993    -2215001.69849  -1728668.71449  22442635.9064   22442642.2794
  19515401.301    -7447111.60349  -5796840.94649  19515400.6794   19515406.1624
  22551413.293      404219.87749    256017.96549  22551413.7414   22551421.8004
  18716436.091    -9794234.46349  -7620344.55449  18716435.4914   18716440.3354
  21767612.559    -5322343.61749  -4141062.60149  21767612.2964   21767619.1284
 97 10 29 18  7 29.9940000  0  8 15 29 25 23 21  3  1 31
  20512040.813   -23292364.81249 -18123271.63549  20512040.1704   20512046.3494
  19996563.659   -20614336.71749 -15702852.40549  19996563.3774   19996568.3484
  20562485.929   -22643969.20149 -17621170.77549  20562485.4984   20562490.4744
  22438533.197    -2236562.71849  -1745469.57349  22438533.1574   22438539.9064
  19505018.678    -7501672.69049  -5839356.08649  19505017.9074   19505023.3404
  22551437.421      404346.41649    256116.41149  22551437.2454   22551446.5094
  18704855.647    -9855090.08449  -7667764.51649  18704855.0184   18704859.9774
  21762611.050    -5348626.82849  -4161543.06749  21762611.3084   21762617.8074
 97 10 29 18  7 59.9940000  0  8 15 29 25 23 21  3  1 31
  20477635.905   -23473163.85649 -18264153.95749  20477635.0284   20477640.9274
  19967425.757   -20767457.31749 -15822167.12149  19967425.5894   19967430.8204
  20528745.877   -22821274.24549 -17759330.52749  20528745.5354   20528750.8784
  22434456.528    -2257986.58149  -1762163.58849  22434456.3094   22434463.1994
  19494689.301    -7555953.79249  -5881653.05249  19494688.7384   19494694.2794
  22551459.788      404463.49749    256207.47649  22551459.9394   22551469.2314
  18693347.038    -9915568.12949  -7714890.26949  18693346.4064   18693351.2224
  21757668.885    -5374598.66749  -4181780.91949  21757668.1804   21757674.4754
 97 10 29 18  8 29.9940000  0  8 15 29 25 23 21  3  1 31
  20443295.061   -23653625.88049 -18404773.66149  20443294.4624   20443300.1684
  19938347.782   -20920263.01449 -15941236.45549  19938347.4894   19938352.5204
  20495063.940   -22998274.01649 -17897252.39849  20495063.5534   20495068.8434
  22430405.502    -2279275.42049  -1778752.38549  22430405.4834   22430412.4094
  19484418.436    -7609927.69849  -5923710.64349  19484417.5484   19484423.2954
  22551482.973      404584.35349    256301.48349  22551483.0834   22551492.0954
  18681913.702    -9975650.68949  -7761707.84949  18681913.1014   18681917.9464
  21752784.485    -5400266.75049  -4201782.06949  21752783.9914   21752791.0954
 97 10 29 18  8 59.9930000  0  8 15 29 25 23 21  3  1 31
  20409013.851   -23833774.55449 -18545149.20149  20409012.2954   20409019.4844
  19909325.601   -21072775.46249 -16060077.28149  19909325.2714   19909330.3914
  20461437.518   -23174982.12649 -18034946.99949  20461437.1224   20461442.5684
  22426374.777    -2300456.88449  -1795257.51349  22426374.2644   22426381.4734
  19474199.511    -7663628.34249  -5965555.30249  19474198.9134   19474204.1074
  22551501.879      404683.02449    256378.20949  22551501.7304   22551510.5554
  18670549.341   -10035370.74349  -7808242.96049  18670548.6284   18670553.6724
  21747951.136    -5425666.57149  -4221574.20249  21747950.5574   21747957.3504
 97 10 29 18  9 29.9930000  0  8 15 29 25 23 21  3  1 31
  20374775.936   -24013695.88749 -18685347.58749  20374775.0074   20374781.6464
  19880343.315   -21225078.17249 -16178754.67749  19880342.8654   19880348.0254
  20427852.302   -23351473.48849 -18172472.69949  20427852.2124   20427856.9174
  22422350.436    -2321604.30449  -1811736.12049  22422350.3904   22422356.8764
  19464015.972    -7717143.30449  -6007255.27649  19464015.2634   19464020.7174
  22551503.228      404689.35649    256382.97849  22551502.7204   22551511.7414
  18659241.617   -10094793.36949  -7854546.30749  18659240.9664   18659245.8634
  21743155.003    -5450870.03849  -4241213.33349  21743154.4174   21743160.8344
 97 10 29 18  9 59.9930000  0  8 15 29 25 23 21  3  1 31
  20340599.952   -24193291.89649 -18825292.46449  20340598.8764   20340604.8464
  19851420.974   -21377065.77349 -16297186.52949  19851420.5684   19851425.8894
  20394325.614   -23527657.21249 -18309758.68549  20394325.2224   20394330.6284
  22418349.484    -2342630.41949  -1828120.19849  22418350.1994   22418355.3184
  19453884.057    -7770386.75449  -6048743.68049  19453883.4174   19453888.8034
  22551505.367      404699.68149    256390.87349  22551505.3584   22551515.2514
  18648008.775   -10153822.23749  -7900542.82649  18648008.1334   18648013.0574
  21738414.602    -5475780.95349  -4260624.47049  21738413.6494   21738420.6074
 97 10 29 18 10 29.9930000  0  8 15 29 25 23 21  3  1 31
  20306481.895   -24372583.25849 -18964999.96249  20306480.7864   20306487.3854
  19822558.557   -21528738.65349 -16415373.14549  19822558.0494   19822563.5374
  20360848.404   -23703581.07649 -18446842.17949  20360847.9684   20360853.3154
  22414367.909    -2363553.39149  -1844423.89249  22414367.7264   22414374.4884
  19443797.269    -7823393.07549  -6090047.30949  19443796.6904   19443802.1534
  22551505.105      404697.43949    256388.92749  22551505.8974   22551514.1974
  18636841.168   -10212508.38549  -7946272.29249  18636840.4744   18636845.3814
  21733726.699    -5500416.45449  -4279821.02049  21733724.8954   21733733.2354
 97 10 29 18 10 59.9930000  0  8 15 29 25 23 21  3  1 31
  20272421.448   -24551571.80649 -19104471.49949  20272420.1064   20272426.2814
  19793757.602   -21680088.53049 -16533308.06249  19793757.2574   19793762.3884
  20327419.600   -23879250.38049 -18583727.31249  20327419.1014   20327424.4594
  22410406.879    -2384368.95049  -1860643.89349  22410406.7784   22410413.1484
  19433751.045    -7876186.43449  -6131184.99149  19433750.4654   19433755.6254
  22551498.691      404662.96349    256361.89149  22551498.4624   22551507.9934
  18625734.556   -10270873.86449  -7991751.88449  18625733.9134   18625738.9544
  21729090.385    -5524780.28849  -4298805.89449  21729089.2654   21729096.5614
 97 10 29 18 11 29.9930000  0  8 15 29 25 23 21  3  1 31
  20238418.108   -24730260.30249 -19243709.22449  20238417.2854   20238423.2784
  19765016.407   -21831124.40849 -16650998.31049  19765016.1544   19765021.1304
  20294036.513   -24054679.57649 -18720425.34749  20294036.1314   20294040.9914
  22406464.398    -2405087.09349  -1876788.00449  22406463.8784   22406471.6664
  19423745.380    -7928766.83349  -6172156.73549  19423744.6514   19423750.0774
  22551481.288      404571.05749    256290.11449  22551480.9554   22551491.2864
  18614687.453   -10328926.89349  -8036987.99849  18614686.8304   18614691.6554
  21724501.236    -5548896.58149  -4317597.86849  21724500.7614   21724507.5674
 97 10 29 18 11 59.9930000  0  8 15 29 25 23 21  3  1 31
  20204472.539   -24908645.32149 -19382710.47749  20204471.3664   20204478.2474
  19736336.563   -21981837.86549 -16768437.32149  19736336.0294   19736341.2084
  20260697.433   -24229877.34149 -18856943.04949  20260696.8414   20260702.1114
  22402539.068    -2425714.64349  -1892861.51549  22402538.7254   22402545.7714
  19413780.566    -7981132.48949  -6212961.14549  19413780.0304   19413785.3504
  22551450.555      404409.36649    256163.95949  22551450.7064   22551460.9464
  18603696.772   -10386683.35649  -8081993.02449  18603696.2594   18603700.9694
  21719958.704    -5572768.02149  -4336199.04149  21719958.8454   21719965.0394
 97 10 29 18 12 29.9930000  0  8 15 29 25 23 21  3  1 31
  20170580.370   -25086749.44249 -19521492.84949  20170579.0494   20170584.9504
  19707712.567   -22132257.88649 -16885647.68249  19707712.2054   19707717.5424
  20227400.046   -24404856.10049 -18993290.09349  20227399.8824   20227404.4514
  22398623.091    -2446292.60649  -1908896.42649  22398622.1474   22398629.6874
  19403852.138    -8033306.57549  -6253616.27549  19403851.4134   19403856.9654
  22551399.289      404139.49049    255953.48449  22551399.5014   22551408.6744
  18592756.401   -10444175.66649  -8126792.21149  18592755.7834   18592760.5764
  21715458.196    -5596418.57849  -4354628.12549  21715456.8324   21715464.8434
 97 10 29 18 12 59.9930000  0  8 15 29 25 23 21  3  1 31
  20136738.082   -25264591.74249 -19660071.20949  20136737.1274   20136743.3524
  19679137.400   -22282421.31049 -17002658.09449  19679137.2174   19679142.1494
  20194145.638   -24579609.20149 -19129461.29949  20194145.4644   20194150.3704
  22394711.461    -2466848.96549  -1924914.46449  22394711.1444   22394717.8924
  19393958.091    -8085300.16549  -6294130.76549  19393957.2434   19393962.8274
  22551319.759      403721.46549    255627.57149  22551319.9664   22551329.7114
  18581865.368   -10501408.30349  -8171389.05449  18581864.6534   18581869.4644
  21710993.311    -5619881.79849  -4372911.23549  21710993.1024   21710999.6084
 97 10 29 18 13 29.9930000  0  8 15 29 25 23 21  3  1 31
  20102957.493   -25442109.45749 -19798396.64149  20102956.4234   20102962.8254
  19650619.699   -22432282.70149 -17119433.15249  19650619.2494   19650624.5884
  20160946.745   -24754070.20349 -19265404.89649  20160946.3574   20160951.7424
  22390814.373    -2487329.09849  -1940873.09049  22390813.7524   22390821.5114
  19384111.965    -8137041.78849  -6334448.91649  19384111.0694   19384116.7024
  22551226.082      403228.11949    255242.97849  22551225.9214   22551235.9094
  18571037.301   -10558310.00249  -8215728.03049  18571036.5994   18571041.4744
  21706575.975    -5643095.90849  -4391000.22049  21706576.0504   21706582.0654
 97 10 29 18 13 59.9930000  0  8 15 29 25 23 21  3  1 31
  20069234.814   -25619323.07049 -19936485.10949  20069234.3284   20069239.8784
  19622153.175   -22581875.08949 -17235998.60049  19622152.9064   19622157.8554
  20127801.745   -24928248.47849 -19401128.18649  20127801.6334   20127806.5274
  22386927.779    -2507753.89049  -1956788.61749  22386927.0934   22386934.2204
  19374309.120    -8188556.04449  -6374589.89549  19374308.3054   19374313.5974
  22551116.409      402651.23149    254793.27249  22551116.0474   22551127.0174
  18560268.837   -10614898.60649  -8259823.02949  18560268.2044   18560273.0804
  21702204.643    -5666067.95149  -4408900.58049  21702204.4464   21702211.0354
 97 10 29 18 14 29.9930000  0  8 15 29 25 23 21  3  1 31
  20035569.023   -25796237.81249 -20074340.69149  20035567.6354   20035574.3394
  19593733.013   -22731223.88949 -17352374.24249  19593732.4914   19593737.6624
  20094710.646   -25102143.22549 -19536630.54349  20094710.3324   20094715.3854
  22383051.368    -2528124.76849  -1972662.12049  22383051.2564   22383058.1974
  19364546.138    -8239860.89749  -6414567.70949  19364545.5944   19364550.9234
  22550989.998      401986.13549    254274.84149  22550990.4944   22551001.0894
  18549560.011   -10671173.88349  -8303673.88049  18549559.3174   18549564.2994
  21697876.292    -5688813.91849  -4426624.78149  21697875.6834   21697882.7424
 97 10 29 18 14 59.9930000  0  8 15 29 25 23 21  3  1 31
  20001958.756   -25972860.69849 -20211968.85949  20001957.4534   20001963.5774
  19565355.836   -22880346.71249 -17468573.79949  19565355.5164   19565360.4484
  20061670.219   -25275771.76649 -19671925.47549  20061669.7254   20061674.7294
  22379185.271    -2548441.93749  -1988493.76549  22379184.5334   22379192.5264
  19354821.708    -8290963.25249  -6454387.73249  19354821.3764   19354826.6524
  22550846.399      401229.77149    253685.31249  22550847.0134   22550855.8094
  18538908.737   -10727146.87949  -8347289.19549  18538908.2014   18538913.0484
  21693587.126    -5711353.88749  -4444188.45949  21693587.0024   21693594.0924
 97 10 29 18 15 29.9930000  0  8 15 29 25 23 21  3  1 31
  19968406.705   -26149177.65949 -20349358.64649  19968405.4614   19968411.6594
  19537025.509   -23029223.45549 -17584581.60449  19537024.9194   19537030.4634
  20028681.173   -25449130.24849 -19807009.96749  20028680.9234   20028685.7724
  22375332.729    -2568687.93149  -2004269.93149  22375331.2114   22375339.3744
  19345137.949    -8341851.76249  -6494041.12349  19345137.3604   19345142.8254
  22550688.847      400400.33449    253038.82949  22550688.7234   22550698.7664
  18528314.812   -10782818.35949  -8390669.55549  18528314.2854   18528319.1154
  21689341.095    -5733667.35849  -4461575.65149  21689339.5734   21689346.8974
 97 10 29 18 15 59.9930000  0  8 15 29 25 23 21  3  1 31
  19934912.968   -26325188.17849 -20486509.64049  19934911.6584   19934918.1564
  19508743.212   -23177847.53949 -17700392.53449  19508743.0984   19508747.8984
  19995743.509   -25622218.97049 -19941884.26049  19995743.0854   19995748.0474
  22371494.250    -2588859.08649  -2019987.84249  22371493.8974   22371501.9704
  19335493.801    -8392532.25149  -6533532.41849  19335493.1274   19335498.5494
  22550513.570      399478.76549    252320.58649  22550513.1354   22550523.4124
  18517776.578   -10838197.26949  -8433821.94349  18517776.0104   18517780.8144
  21685138.142    -5755753.54349  -4478785.74449  21685137.4424   21685144.9084
 97 10 29 18 16 29.9930000  0  8 15 29 25 23 21  3  1 31
  19901474.901   -26500906.15049 -20623432.68349  19901473.6174   19901480.5424
  19480506.463   -23326232.75149 -17816017.33649  19480506.0664   19480511.1084
  19962854.926   -25795049.54349 -20076557.39849  19962854.6234   19962860.0734
  22367666.617    -2608974.13349  -2035662.03949  22367665.9674   22367673.6934
  19325887.098    -8443015.79249  -6572870.25349  19325886.4874   19325891.8164
  22550315.450      398437.70549    251509.21749  22550315.3024   22550325.5104
  18507288.804   -10893310.81549  -8476767.55449  18507288.0714   18507292.9914
  21680973.801    -5777637.61949  -4495838.33749  21680973.3544   21680980.9584
 97 10 29 18 16 59.9930000  0  7 15 29 25 23 21  1 31
  19868094.536   -26676321.14149 -20760119.63349  19868094.2454   19868099.7064
  19452319.824   -23474354.28649 -17931436.67249  19452319.3404   19452324.6704
  19930016.211   -25967617.90849 -20211026.22049  19930015.7174   19930020.7574
  22363852.710    -2629017.06049  -2051280.01249  22363852.5174   22363859.7564
  19316321.093    -8493285.42149  -6612041.40049  19316320.4704   19316325.8404
  18496852.197   -10948155.34049  -8519503.54449  18496851.4264   18496856.4044
  21676848.859    -5799314.73249  -4512729.65549  21676848.2704   21676855.8384
 97 10 29 18 17 29.9920000  0  7 15 29 25 23 21  1 31
  19834770.047   -26851442.32649 -20896577.64649  19834769.3454   19834774.8764
  19424182.952   -23622214.51049 -18046652.39549  19424182.4684   19424187.6184
  19897227.252   -26139924.86949 -20345291.35649  19897226.7574   19897232.1944
  22360051.830    -2648991.38749  -2066844.53649  22360051.5684   22360059.6044
  19306790.352    -8543369.81249  -6651068.21349  19306789.8584   19306795.0564
  18486462.670   -11002752.76349  -8562046.98249  18486462.0894   18486466.9744
  21672760.405    -5820799.95449  -4529471.47849  21672760.0304   21672767.5304
 97 10 29 18 17 59.9920000  0  7 15 29 25 23 21  1 31
  19801497.992   -27026287.68149 -21032820.73549  19801497.2694   19801503.2724
  19396092.515   -23769830.57649 -18161677.86649  19396092.3354   19396097.3614
  19864483.649   -26311993.17649 -20479370.53149  19864483.1844   19864488.1254
  22356262.026    -2668907.63849  -2082363.79649  22356261.8024   22356268.8554
  19297291.372    -8593287.38849  -6689965.04249  19297290.6344   19297296.1864
  18476119.033   -11057108.89849  -8604402.41149  18476118.4994   18476123.1534
  21668702.795    -5842123.23749  -4546087.11349  21668702.5494   21668709.9274
 97 10 29 18 18 29.9920000  0  7 15 29 25 23 21  1 31
  19768285.619   -27200819.92449 -21168819.83549  19768284.2524   19768290.5064
  19368056.665   -23917159.93349 -18276479.92049  19368056.3744   19368061.3164
  19831791.852   -26483789.58749 -20613237.83749  19831791.2074   19831796.2924
  22352487.932    -2688741.24549  -2097818.64449  22352488.4944   22352494.5924
  19287830.770    -8643003.48049  -6728704.87149  19287830.2334   19287835.7834
  18465826.566   -11111196.30349  -8646548.43949  18465825.9054   18465830.8214
  21664676.918    -5863279.81349  -4562572.81049  21664676.5474   21664684.4124
 97 10 29 18 18 59.9920000  0  7 15 29 25 23 21  1 31
  19735129.037   -27375058.87349 -21304590.40049  19735128.5854   19735134.3784
  19340073.498   -24064212.36949 -18391066.19949  19340073.1764   19340078.0454
  19799146.857   -26655339.85649 -20746913.35049  19799146.5964   19799151.6514
  22348725.825    -2708511.82449  -2113224.38049  22348725.5594   22348732.6214
  19278402.761    -8692548.21349  -6767311.16249  19278401.9704   19278407.4564
  18455581.182   -11165036.20549  -8688501.61149  18455580.5274   18455585.3724
  21660677.162    -5884299.31649  -4578951.70249  21660676.9254   21660684.4014
 97 10 29 18 19 29.9920000  0  7 15 29 25 23 21  1 31
  19702032.786   -27548980.88049 -21440113.99949  19702031.8874   19702037.7394
  19312145.897   -24210972.72249 -18505424.87549  19312145.5304   19312150.5374
  19766552.982   -26826621.74549 -20880379.73649  19766552.5904   19766557.6014
  22344976.750    -2728214.24849  -2128577.02449  22344975.8754   22344983.9714
  19269010.569    -8741904.49249  -6805770.61349  19269009.9224   19269015.3934
  18445387.925   -11218602.09949  -8730241.26849  18445387.2244   18445391.9714
  21656708.193    -5905156.62449  -4595204.23049  21656707.8234   21656714.8724
 97 10 29 18 19 59.9920000  0  7 15 29 25 23 21  1 31
  19668994.805   -27722596.63849 -21575398.95149  19668993.8294   19668999.8864
  19284272.477   -24357448.52049 -18619561.82249  19284272.2664   19284277.1654
  19734006.918   -26997652.34549 -21013650.31349  19734006.6714   19734012.0064
  22341233.036    -2747887.46749  -2143906.93249  22341233.5064   22341239.4384
  19259653.864    -8791074.54749  -6844084.94849  19259653.3694   19259658.4124
  18435246.103   -11271897.63249  -8771770.25149  18435245.3654   18435250.2104
  21652766.123    -5925872.45949  -4611346.53349  21652765.6724   21652773.6664
 97 10 29 18 20 29.9920000  0  7 15 29 25 23 21  1 31
  19636012.330   -27895920.31749 -21710456.32349  19636010.9034   19636017.2314
  19256448.378   -24503664.96849 -18733496.67049  19256447.8994   19256452.5894
  19701507.290   -27168438.97649 -21146730.79049  19701506.9514   19701512.1544
  22337490.318    -2767555.95249  -2159233.12349  22337490.0274   22337497.1984
  19250330.216    -8840070.61749  -6882263.71349  19250329.5844   19250335.1134
  18425150.088   -11324952.62749  -8813111.80649  18425149.6444   18425154.2834
  21648851.186    -5946445.97149  -4627377.90649  21648850.8924   21648858.6094
 97 10 29 18 20 59.9920000  0  7 15 29 25 23 21  1 31
  19603089.898   -28068928.62849 -21845267.95549  19603089.2244   19603094.7124
  19228674.599   -24649616.99949 -18847225.47849  19228674.2264   19228679.1224
  19669059.909   -27338951.19449 -21279597.43749  19669059.6334   19669064.7944
  22333752.537    -2787198.64149  -2174539.20049  22333752.3354   22333759.0684
  19241042.271    -8888879.13549  -6920296.33649  19241041.5944   19241047.1344
  18415104.616   -11377741.96649  -8854246.35749  18415104.0194   18415108.8074
  21644968.459    -5966849.98449  -4643277.19849  21644967.9504   21644974.5734
 97 10 29 18 21 29.9920000  0  6 15 29 25 21  1 31
  19570220.793   -28241656.75949 -21979861.26449  19570219.7694   19570225.9044
  19200942.984   -24795347.37449 -18960781.56349  19200942.5844   19200947.5254
  19636659.846   -27509214.58949 -21412270.19349  19636659.7434   19636664.4924
  19231784.374    -8937529.73449  -6958205.90249  19231783.6434   19231789.2214
  18405102.480   -11430303.65449  -8895203.51149  18405101.8934   18405106.7204
  21641110.728    -5987123.06049  -4659074.44849  21641109.7714   21641117.7644
 97 10 29 18 21 59.9920000  0  6 15 29 25 21  1 31
  19537412.391   -28414065.78849 -22114205.91349  19537411.3224   19537416.9034
  19173258.084   -24940832.15749 -19074146.28249  19173257.5904   19173262.4934
  19604316.788   -27679178.68349 -21544709.72949  19604316.2744   19604321.3584
  19222565.257    -8985976.66449  -6995956.76749  19222564.8154   19222570.2184
  18395147.342   -11482618.31049  -8935968.17949  18395146.6854   18395151.5314
  21637282.245    -6007241.23449  -4674751.04349  21637281.4224   21637288.6524
 97 10 29 18 22 29.9920000  0  6 15 29 25 21  1 31
  19504659.674   -28586182.39449 -22248322.71049  19504658.7864   19504664.5974
  19145611.631   -25086114.98449 -19187353.63149  19145611.2994   19145616.0514
  19572025.239   -27848871.81749 -21676938.12449  19572024.9394   19572029.8814
  19213379.064    -9034250.28049  -7033572.58249  19213378.3354   19213383.7144
  18385232.526   -11534720.85349  -8976567.55949  18385231.7394   18385236.6544
  21633477.021    -6027238.54849  -4690333.43949  21633476.8764   21633484.5414
 97 10 29 18 22 59.9920000  0  6 15 29 25 21  1 31
  19471966.880   -28757983.79949 -22382193.89649  19471965.6994   19471972.0174
  19118007.549   -25231175.24849 -19300387.55249  19118007.0994   19118012.1954
  19539789.208   -28018273.23249 -21808939.20449  19539788.6164   19539793.9974
  19204230.367    -9082326.90149  -7071034.89049  19204229.6284   19204234.8974
  18375362.726   -11586587.01149  -9016982.74349  18375362.2714   18375366.9584
  21629695.070    -6047113.85249  -4705820.77449  21629694.0944   21629702.3954
 97 10 29 18 23 29.9920000  0  6 15 29 25 21  1 31
  19439336.168   -28929459.29749 -22515811.12849  19439335.2084   19439341.0744
  19090447.862   -25376002.18149 -19413239.66549  19090447.4784   19090452.5374
  19507608.581   -28187383.72749 -21940713.59749  19507608.3244   19507613.5334
  19195122.402    -9130189.55649  -7108330.47549  19195121.8144   19195127.3404
  18365536.768   -11638222.90649  -9057218.50349  18365536.3044   18365541.0124
  21625938.113    -6066856.75949  -4721204.93249  21625935.8964   21625942.8664
 97 10 29 18 23 59.9920000  0  6 15 29 25 21  1 31
  19406764.326   -29100625.30249 -22649187.19049  19406763.2674   19406769.4914
  19062929.001   -25520614.58249 -19525924.60349  19062928.7194   19062933.7364
  19475478.159   -28356230.06549 -22072282.15149  19475477.7074   19475482.4584
  19186050.463    -9177863.04149  -7145478.65449  19186049.6444   19186055.1574
  18355749.145   -11689657.21949  -9097297.18549  18355748.6204   18355753.3134
  21622201.457    -6086492.44149  -4736505.54849  21622200.5124   21622209.5894
 97 10 29 18 24 29.9920000  0  6 15 29 25 21  1 31
  19374253.593   -29271470.14349 -22782313.00149  19374252.9344   19374258.4874
  19035453.710   -25664998.04549 -19638431.15249  19035453.4004   19035458.4484
  19443399.004   -28524806.98849 -22203640.76649  19443398.4754   19443403.7604
  19177016.293    -9225338.13049  -7182472.24149  19177015.6084   19177021.1644
  18346001.896   -11740879.50549  -9137210.65049  18346001.2584   18346006.0354
  21618488.285    -6106005.20249  -4751710.38949  21618488.2724   21618495.8374
 97 10 29 18 24 59.9920000  0  6 15 29 25 21  1 31
  19341802.143   -29442003.43349 -22915196.04549  19341801.4204   19341807.4714
  19008020.841   -25809158.52149 -19750763.94749  19008020.4714   19008025.4124
  19411370.140   -28693119.70349 -22334793.49949  19411369.6084   19411374.6574
  19168017.868    -9272625.12549  -7219319.27049  19168017.3684   19168022.5514
  18336291.005   -11791910.37849  -9176974.96249  18336290.4104   18336295.0464
  21614796.851    -6125404.81249  -4766827.04349  21614795.2494   21614804.2894
 97 10 29 18 25 29.9920000  0  6 15 29 25 21  1 31
  19309409.554   -29612227.21349 -23047837.90049  19309408.8444   19309414.7334
  18980630.911   -25953093.30249 -19862920.87449  18980630.7434   18980635.5414
  19379390.092   -28861175.74249 -22465746.22949  19379389.5784   19379394.7364
  19159052.692    -9319737.60949  -7256030.30949  19159052.1944   19159057.4254
  18326616.157   -11842752.06449  -9216591.85549  18326615.6284   18326620.4154
  21611126.180    -6144693.87949  -4781857.56949  21611126.5384   21611133.5754
 97 10 29 18 25 59.9910000  0  6 15 29 25 21  1 31
  19277077.967   -29782130.98049 -23180230.39849  19277077.2474   19277082.6884
  18953285.656   -26096793.44649 -19974894.96149  18953285.4144   18953290.1644
  19347461.439   -29028961.74949 -22596488.52849  19347461.2314   19347465.9474
  19150120.107    -9366678.66949  -7292607.76849  19150119.9384   19150124.9424
  18316981.075   -11893384.80849  -9256045.93149  18316980.5084   18316985.3094
  21607477.366    -6163868.79349  -4796799.19649  21607475.9964   21607485.5124
 97 10 29 18 26 29.9910000  0  6 15 29 25 21  1 31
  19244806.070   -29951720.94549 -23312378.38149  19244805.2494   19244810.8344
  18925982.420   -26240272.82549 -20086697.03549  18925981.9954   18925986.7014
  19315582.115   -29196488.57249 -22727028.87249  19315581.8714   19315586.7764
  19141219.542    -9413451.62849  -7329054.24649  19141219.1604   19141224.4964
  18307387.354   -11943800.08649  -9295330.55749  18307386.7004   18307391.4624
  21603848.655    -6182937.82749  -4811658.31649  21603848.8674   21603855.5984
 97 10 29 18 26 59.9910000  0  6 15 29 25 21  1 31
  19212598.525   -30120972.73549 -23444262.85249  19212597.5554   19212603.0284
  18898727.524   -26383497.87949 -20198300.92649  18898727.3534   18898731.9674
  19283755.772   -29363736.98149 -22857352.26749  19283755.6044   19283760.3394
  19132352.630    -9460047.90249  -7365363.05349  19132352.1084   19132357.7664
  18297840.558   -11993968.81549  -9334423.06749  18297839.9894   18297844.8224
  21600242.152    -6201891.08849  -4826427.15849  21600241.6444   21600249.0004
 97 10 29 18 27 29.9910000  0  6 15 29 25 21  1 31
  19180455.350   -30289885.87249 -23575883.43249  19180454.3784   19180459.7014
  18871520.916   -26526469.64649 -20309707.45349  18871520.5584   18871525.2414
  19251982.247   -29530708.03449 -22987459.53649  19251981.7104   19251986.8154
  19123518.997    -9506468.82249  -7401535.22349  19123518.5144   19123523.6184
  18288340.611   -12043891.42149  -9373323.79349  18288339.9564   18288344.5614
  21596656.307    -6220735.98049  -4841111.55449  21596656.0664   21596663.1474
 97 10 29 18 27 59.9910000  0  6 15 29 25 21  1 31
  19148375.505   -30458466.55349 -23707244.96649  19148374.7264   19148379.9534
  18844359.499   -26669203.66349 -20420928.72449  18844359.2424   18844364.0394
  19220260.459   -29697407.03649 -23117354.81549  19220260.0714   19220265.1224
  19114717.796    -9552719.71149  -7437574.90149  19114717.0874   19114723.0104
  18278884.064   -12093585.95849  -9412046.80449  18278883.4524   18278888.2114
  21593089.544    -6239480.22349  -4855717.56149  21593089.1054   21593097.0214
 97 10 29 18 28 29.9910000  0  6 15 29 25 21  1 31
  19116358.113   -30626719.08049 -23838350.79149  19116356.8924   19116362.6274
  18817243.742   -26811697.60349 -20531962.91849  18817243.5534   18817248.3014
  19188590.587   -29863833.33949 -23247037.59849  19188590.1154   19188594.9534
  19105949.197    -9598798.87749  -7473480.76449  19105948.3374   19105953.9284
  18269467.008   -12143072.79549  -9450607.96849  18269466.3424   18269471.1584
  21589539.732    -6258135.11149  -4870253.99849  21589539.5634   21589547.6464
 97 10 29 18 28 59.9910000  0  6 15 29 25 21  1 31
  19084404.131   -30794638.59749 -23969197.13149  19084403.1534   19084408.6434
  18790175.484   -26953942.38049 -20642802.96949  18790175.3224   18790179.7884
  19156975.853   -30029969.79949 -23376494.52749  19156975.5024   19156980.7574
  19097214.883    -9644698.16849  -7509246.47449  19097214.3344   19097219.3984
  18260088.539   -12192357.02349  -9489011.26149  18260087.7544   18260092.7214
  21586008.473    -6276692.25549  -4884714.24549  21586009.3874   21586015.7124
 97 10 29 18 29 29.9910000  0  6 15 29 25 21  1 31
  19052512.529   -30962229.85049 -24099787.69049  19052511.5314   19052517.7464
  18763150.747   -27095958.35949 -20753464.73649  18763150.4114   18763155.3064
  19125417.576   -30195809.53449 -23505720.24349  19125417.3694   19125422.0134
  19088514.169    -9690420.73749  -7544874.48149  19088513.4274   19088519.1674
  18250744.176   -12241461.94749  -9527274.83949  18250743.4634   18250748.3564
  21582493.516    -6295164.42049  -4899108.23249  21582493.6614   21582500.9414
 97 10 29 18 29 59.9910000  0  6 15 29 25 21  1 31
  19020684.540   -31129486.89249 -24230117.81949  19020683.7954   19020689.5234
  18736169.766   -27237744.29749 -20863947.24849  18736169.6604   18736174.3124
  19093916.401   -30361349.29749 -23634712.21249  19093915.9274   19093920.7384
  19079846.641    -9735968.85549  -7580366.55149  19079846.0074   19079851.5574
  18241434.954   -12290382.24349  -9565394.54649  18241434.2784   18241439.1324
  21578993.835    -6313556.43149  -4913439.74549  21578993.5844   21579001.0944
 97 10 29 18 30 29.9910000  0  6 15 29 25 21  1 31
  18988920.991   -31296405.54049 -24360184.26449  18988920.4244   18988925.4844
  18709232.292   -27379301.65549 -20974251.65049  18709231.9884   18709236.7174
  19062476.150   -30526568.76649 -23763454.60649  19062475.7934   19062480.6944
  19071215.010    -9781328.44349  -7615711.71149  19071214.2934   19071219.9934
  18232162.350   -12339110.10249  -9603364.30449  18232161.7574   18232166.5154
  21575505.686    -6331887.39649  -4927723.69049  21575505.3784   21575512.7394
 97 10 29 18 30 59.9910000  0  6 15 29 25 21  1 31
  18957223.463   -31462977.14649 -24489980.29149  18957222.7984   18957228.2484
  18682336.030   -27520642.43649 -21084387.29249  18682335.7784   18682340.3904
  19031098.046   -30691461.53049 -23891942.42049  19031097.7154   19031102.4864
  19062620.674    -9826492.11849  -7650904.21549  19062620.2634   19062625.9814
  18222927.385   -12387640.16749  -9641179.93949  18222926.8004   18222931.4844
  21572027.272    -6350166.82649  -4941967.51349  21572026.8874   21572034.2214
 97 10 29 18 31 29.9910000  0  6 15 29 25 21  1 31
  18925590.778   -31629207.94449 -24619510.75549  18925590.0474   18925595.1104
  18655478.557   -27661779.24549 -21194363.98949  18655478.2714   18655482.7684
  18999777.002   -30856054.53849 -24020196.66349  18999776.5084   18999781.3554
  19054060.694    -9871475.55849  -7685956.27949  19054060.4084   19054065.2264
  18213727.505   -12435985.78149  -9678851.84649  18213726.7994   18213731.6664
  21568556.568    -6368405.86649  -4956179.88549  21568556.3094   21568563.4624
 97 10 29 18 31 59.9910000  0  6 15 29 25 21  1 31
  18894025.609   -31795083.61749 -24748764.49049  18894024.3594   18894030.5354
  18628662.483   -27802698.38349 -21304171.07649  18628662.2254   18628667.2634
  18968512.211   -31020351.70749 -24148220.37849  18968511.8134   18968516.7134
  19045535.972    -9916273.42949  -7720863.74349  19045535.6604   19045540.9254
  18204565.402   -12484132.69149  -9716368.92349  18204564.7524   18204569.7194
  21565096.343    -6386589.69649  -4970349.21649  21565096.1954   21565104.1254
 97 10 29 18 32 29.9910000  0  6 15 29 25 21  1 31
  18862529.924   -31960594.42049 -24877733.91249  18862529.0334   18862534.6204
  18601889.274   -27943392.53449 -21413802.84249  18601888.9904   18601893.6954
  18937306.070   -31184340.88349 -24276004.10349  18937305.5464   18937310.5744
  19037048.725    -9960874.46449  -7755617.82049  19037048.2664   19037053.3444
  18195440.997   -12532081.87949  -9753731.92749  18195440.6294   18195445.2824
  21561649.248    -6404704.73149  -4984464.94149  21561649.1514   21561656.0524
 97 10 29 18 32 59.9910000  0  6 15 29 25 21  1 31
  18831103.120   -32125743.50049 -25006421.47549  18831102.5394   18831107.8684
  18575159.946   -28083855.97349 -21523254.84049  18575159.2554   18575164.3994
  18906154.513   -31348043.20949 -24403564.31549  18906154.1424   18906158.9644
  19028593.339   -10005308.03149  -7790241.41449  19028592.7694   19028598.2084
  18186350.327   -12579853.82149  -9790956.82049  18186349.6624   18186354.5694
  21558218.072    -6422736.69049  -4998515.92149  21558217.5174   21558225.1034
 97 10 29 18 33 29.9910000  0  6 15 29 25 21  1 31
  18799746.569   -32290523.16849 -25134821.19049  18799745.7174   18799750.9994
  18548478.235   -28224069.12049 -21632511.80849  18548478.0864   18548482.5414
  18875059.569   -31511447.95149 -24530892.63949  18875059.2784   18875064.1594
  19020168.654   -10049580.23849  -7824739.27049  19020168.1524   19020173.5454
  18177294.112   -12627444.49149  -9828040.46349  18177293.5624   18177298.4334
  21554805.544    -6440669.73249  -5012489.86049  21554803.8704   21554813.2804
 97 10 29 18 33 59.9900000  0  6 15 29 25 21  1 31
  18768461.002   -32454929.56549 -25262930.03849  18768460.3054   18768465.7794
  18521844.199   -28364031.91649 -21741573.69049  18521843.8044   18521848.5724
  18844025.797   -31674531.45649 -24657970.65349  18844025.6034   18844030.1864
  19011777.165   -10093678.04549  -7859101.22949  19011776.5714   19011781.9304
  18168272.326   -12674854.40149  -9864983.25249  18168271.5174   18168276.5644
  21551409.016    -6458518.17749  -5026397.85049  21551407.3114   21551414.5144
 97 10 29 18 34 29.9900000  0  6 15 29 25 21  1 31
  18737244.671   -32618972.20249 -25390755.44249  18737244.0564   18737249.2224
  18495254.978   -28503759.20249 -21850452.05849  18495254.9714   18495259.4734
  18813053.344   -31837292.84149 -24784797.66649  18813053.1444   18813057.6644
  19003419.523   -10137597.78649  -7893324.43149  19003418.7174   19003424.3304
  18159284.530   -12722085.53349  -9901786.73649  18159284.0094   18159288.9314
  21548024.318    -6476304.49449  -5040257.43349  21548024.1234   21548033.5914
 97 10 29 18 34 59.9900000  0  6 15 29 25 21  1 31
  18706099.241   -32782642.49749 -25518290.70549  18706098.3784   18706104.0564
  18468710.801   -28643249.78149 -21959145.97749  18468710.3284   18468715.2444
  18782143.596   -31999724.77649 -24911367.96849  18782143.2834   18782148.0034
  18995095.056   -10181342.98949  -7927411.63049  18995094.5304   18995100.1704
  18150330.750   -12769137.97449  -9938450.98049  18150330.3184   18150334.8504
  21544649.333    -6494040.82349  -5054078.08649  21544649.5104   21544657.9674
 97 10 29 18 35 29.9900000  0  6 15 29 25 21  1 31
  18675024.713   -32945939.92249 -25645535.42449  18675023.9304   18675029.2334
  18442208.397   -28782520.56549 -22067668.63349  18442208.0154   18442212.5674
  18751296.178   -32161828.67749 -25037682.66549  18751295.8384   18751300.3384
  18986806.211   -10224901.50749  -7961353.36849  18986805.8984   18986811.1564
  18141412.694   -12816002.95149  -9974969.15449  18141412.2124   18141416.9374
  21541279.021    -6511753.27649  -5067880.13349  21541278.6134   21541287.1624
 97 10 29 18 35 59.9900000  0  6 15 29 25 21  1 31
  18644023.735   -33108851.08749 -25772479.15949  18644022.7824   18644028.3524
  18415748.245   -28921569.46449 -22176018.38949  18415747.7634   18415752.5314
  18720513.161   -32323594.46449 -25163733.89849  18720512.9694   18720517.6054
  18978556.755   -10268252.71049  -7995133.55749  18978556.4794   18978561.3644
  18132532.746   -12862667.38849 -10011331.06249  18132532.2994   18132536.8764
  21537911.685    -6529449.68349  -5081669.67649  21537911.5544   21537920.2984
 97 10 29 18 36 29.9900000  0  6 15 29 25 21  1 31
  18613097.052   -33271371.82749 -25899118.67449  18613096.1624   18613101.9044
  18389332.757   -29060383.58449 -22284185.19649  18389332.5104   18389337.1214
  18689792.951   -32485030.23249 -25289527.97549  18689792.5464   18689797.1164
  18970343.792   -10311412.21249  -8028764.37849  18970343.3054   18970348.9254
  18123690.434   -12909134.19749 -10047538.97249  18123689.8014   18123694.5764
  21534548.384    -6547124.04449  -5095442.05649  21534547.6134   21534555.6824
 97 10 29 18 36 59.9900000  0  6 15 29 25 21  1 31
  18582246.666   -33433491.91149 -26025445.98449  18582245.7194   18582251.1244
  18362966.530   -29198938.95049 -22392150.38049  18362966.3034   18362970.9244
  18659135.404   -32646136.64849 -25415065.41949  18659135.1104   18659139.7534
  18962167.927   -10354376.92049  -8062243.41049  18962167.4254   18962172.5154
  18114885.121   -12955406.50349 -10083595.32749  18114884.4464   18114889.3154
  21531194.132    -6564750.85249  -5109177.39349  21531193.0554   21531201.0434
 97 10 29 18 37 29.9900000  0  6 15 29 25 21  1 31
  18551475.315   -33595196.45349 -26151449.50249  18551474.3624   18551479.8414
  18336654.133   -29337211.42249 -22499895.12449  18336653.6694   18336658.6044
  18628542.660   -32806902.27249 -25540337.31149  18628542.2494   18628547.0974
  18954033.875   -10397121.89649  -8095551.22949  18954033.3964   18954039.1144
  18106120.485   -13001465.04649 -10119485.11249  18106120.0144   18106124.6624
  21527853.615    -6582305.83649  -5122856.71949  21527852.5884   21527860.3684
 97 10 29 18 37 59.9900000  0  6 15 29 25 21  1 31
  18520783.237   -33756484.43149 -26277128.42649  18520782.2994   18520787.9394
  18310397.734   -29475189.35849 -22607410.36349  18310397.4564   18310401.9594
  18598016.366   -32967318.97049 -25665337.31349  18598016.2114   18598020.6474
  18945941.927   -10439645.58449  -8128686.61049  18945941.1584   18945946.6264
  18097396.339   -13047310.66049 -10155208.98149  18097395.8144   18097400.6264
  21524531.068    -6599767.12749  -5136463.03749  21524531.4874   21524538.8344
 97 10 29 18 38 29.9900000  0  6 15 29 25 21  1 31
  18490173.550   -33917339.43649 -26402469.96649  18490172.5604   18490178.2284
  18284200.107   -29612858.61249 -22714685.06749  18284199.5524   18284204.5824
  18567560.108   -33127367.79749 -25790050.66549  18567560.0264   18567564.3124
  18937894.005   -10481937.73749  -8161641.57749  18937893.1094   18937898.8824
  18088714.708   -13092932.96349 -10190758.84449  18088714.2144   18088719.1564
  21521231.964    -6617105.34449  -5149973.45149  21521231.1324   21521239.8364
 97 10 29 18 38 59.9900000  0  6 15 29 25 21  1 31
  18459651.277   -34077734.98449 -26527453.48249  18459650.5404   18459655.8004
  18258060.991   -29750220.41649 -22821720.20149  18258060.7384   18258065.0964
  18537182.039   -33287005.80049 -25914443.89149  18537181.8164   18537186.1214
  18929896.872   -10523963.20449  -8194388.72549  18929896.0864   18929901.8904
  18080080.860   -13138304.05849 -10226112.95949  18080080.4014   18080085.1004
  21517959.936    -6634300.66349  -5163372.53549  21517960.0664   21517967.7774
 97 10 29 18 39 29.9900000  0  6 15 29 25 21  1 31
  18429214.017   -34237683.49949 -26652088.66349  18429212.9414   18429218.6854
  18231974.337   -29887306.60949 -22928540.57349  18231974.1774   18231978.5934
  18506882.249   -33446232.33449 -26038516.49549  18506881.8524   18506886.2034
  18921949.518   -10565727.10449  -8226932.05249  18921948.4684   18921955.2064
  18071492.629   -13183435.69549 -10261280.48449  18071492.2764   18071496.9654
  21514708.528    -6651387.06149  -5176686.75949  21514708.3974   21514716.8244
 97 10 29 18 39 59.9900000  0  6 15 29 25 21  1 31
  18398862.073   -34397183.87449 -26776374.64149  18398861.5034   18398866.3034
  18205937.424   -30024131.86049 -23035157.62049  18205937.3224   18205941.9144
  18476662.464   -33605038.32849 -26162261.40249  18476662.1734   18476666.7094
  18914049.102   -10607244.04449  -8259282.94749  18914048.4274   18914054.1704
  18062947.312   -13228341.94849 -10296272.38449  18062946.8724   18062951.5924
  21511474.939    -6668380.44249  -5189928.52549  21511475.5554   21511483.3034
 97 10 29 18 40 29.9900000  0  6 15 29 25 21  1 31
  18368592.933   -34556249.24249 -26900321.65249  18368592.1484   18368597.0204
  18179946.031   -30160717.50149 -23141587.95549  18179945.7354   18179950.2394
  18446519.963   -33763438.09949 -26285689.77349  18446519.4504   18446524.1234
  18906191.732   -10648534.80649  -8291457.60349  18906191.3764   18906196.7464
  18054438.083   -13273058.49349 -10331116.45749  18054437.6234   18054442.2564
  21508251.349    -6685320.91849  -5203129.06149  21508250.5084   21508258.4304
 97 10 29 18 40 59.9900000  0  6 15 29 25 21  1 31
  18338407.524   -34714874.68549 -27023925.86049  18338406.7054   18338412.1424
  18154003.482   -30297046.43049 -23247818.25549  18154003.1054   18154007.6104
  18416454.166   -33921434.62949 -26408803.92549  18416453.6844   18416458.5024
  18898380.105   -10689585.24249  -8323444.99749  18898379.9844   18898384.5834
  18045963.411   -13317593.28449 -10365818.90449  18045962.8504   18045967.6124
  21505035.326    -6702221.94549  -5216298.85849  21505034.7544   21505043.2844
 97 10 29 18 41 29.9900000  0  6 15 29 25 21  1 31
  18308305.322   -34873062.60849 -27147189.15749  18308304.4554   18308309.8954
  18128113.565   -30433098.69449 -23353832.97749  18128113.2084   18128117.6664
  18386461.061   -34079049.20749 -26531620.45149  18386460.9484   18386465.5274
  18890612.850   -10730402.70649  -8355250.85549  18890612.3614   18890617.6244
  18037522.102   -13361952.65049 -10400384.65949  18037521.5944   18037526.5704
  21501823.475    -6719101.49149  -5229451.89549  21501822.2684   21501830.4984
 97 10 29 18 41 59.9900000  0  6 15 29 25 21  1 31
  18278288.783   -35030800.64249 -27270101.88749  18278287.7954   18278293.1474
  18102279.473   -30568857.50549 -23459619.03749  18102279.1634   18102283.3444
  18356541.286   -34236278.83649 -26654137.01349  18356541.0614   18356545.4144
  18882889.973   -10770986.89949  -8386874.94649  18882889.6774   18882894.9374
  18029115.574   -13406129.30249 -10434808.03949  18029115.1734   18029119.9834
  21498617.358    -6735950.19849  -5242580.89749  21498616.8574   21498624.5424
 97 10 29 18 42 29.9890000  0  6 15 29 25 21  1 31
  18248353.870   -35188109.65449 -27392680.31549  18248352.9184   18248358.5844
  18076497.864   -30704340.34449 -23565190.05449  18076497.7314   18076502.1394
  18326688.962   -34393153.64949 -26776377.09849  18326688.6574   18326693.1674
  18875207.209   -10811360.02449  -8418334.57849  18875206.9864   18875212.3884
  18020740.290   -13450141.79249 -10469103.50149  18020739.7814   18020744.6174
  21495409.296    -6752809.26549  -5255717.93849  21495409.5284   21495417.6704
 97 10 29 18 42 59.9890000  0  7 14 15 29 25 21  1 31
  21671530.222    -5353420.43049  -3713746.57349  21671530.3124   21671537.8984
  18218507.673   -35344952.32849 -27514895.36749  18218506.7504   18218512.1494
  18050776.056   -30839509.18549 -23670516.39349  18050775.8984   18050780.2474
  18296910.705   -34549639.38549 -26898314.00249  18296910.3034   18296914.7924
  18867571.931   -10851483.64549  -8449599.78049  18867571.7824   18867577.3094
  18012406.524   -13493936.26149 -10503229.07549  18012405.8814   18012410.8544
  21492208.681    -6769629.60149  -5268824.83649  21492208.4944   21492217.0314
 97 10 29 18 43 29.9890000  0  7 14 15 29 25 21  1 31
  21636952.822    -5535125.49649  -3855334.86049  21636952.6394   21636960.0664
  18188753.002   -35501314.12849 -27636735.70749  18188752.2294   18188757.7454
  18025112.057   -30974374.46049 -23775606.19249  18025111.7154   18025115.9704
  18267209.893   -34705718.00949 -27019933.67649  18267209.5644   18267214.2884
  18859980.677   -10891376.14349  -8480684.88249  18859980.4074   18859985.8704
  18004118.185   -13537491.76049 -10537168.43949  18004117.5794   18004122.4684
  21489017.807    -6786398.35949  -5281891.54049  21489017.4134   21489026.9794
 97 10 29 18 43 59.9890000  0  7 14 15 29 25 21  1 31
  21602357.127    -5716926.98649  -3996998.25849  21602357.9694   21602365.3484
  18159082.271   -35657234.77549 -27758232.29549  18159081.1404   18159086.7704
  17999493.991   -31108998.33249 -23880507.88549  17999493.7304   17999498.0884
  18237581.335   -34861417.09349 -27141257.60249  18237580.9254   18237585.6924
  18852423.082   -10931091.68349  -8511632.10049  18852422.4604   18852428.3294
  17995864.936   -13580862.98949 -10570964.21649  17995864.4124   17995869.3154
  21485830.904    -6803145.07849  -5294941.13349  21485830.8294   21485839.7094
 97 10 29 18 44 29.9890000  0  7 14 15 29 25 21  1 31
  21567758.021    -5898746.68049  -4138675.85249  21567757.5124   21567766.4044
  18129507.764   -35812649.66649 -27879334.79049  18129506.9144   18129512.4144
  17973933.453   -31243319.79349 -23985173.93549  17973933.1854   17973937.7394
  18208038.726   -35016664.35649 -27262229.45949  18208038.3874   18208042.9004
  18844912.446   -10970560.49649  -8542387.05949  18844912.1194   18844917.3184
  17987658.370   -13623988.93549 -10604568.86349  17987657.8644   17987662.7904
  21482661.068    -6819802.37649  -5307921.02549  21482659.8944   21482669.3874
 97 10 29 18 44 59.9890000  0  7 14 15 29 25 21  1 31
  21533147.426    -6080626.22149  -4280400.05949  21533146.8334   21533155.5484
  18100023.659   -35967589.68649 -28000067.25149  18100022.7154   18100028.2524
  17948424.437   -31377370.36149 -24089628.89849  17948423.9354   17948428.4474
  18178577.162   -35171485.85749 -27382869.54949  18178576.9734   18178581.5114
  18837442.442   -11009815.76149  -8572975.62849  18837441.8004   18837448.0424
  17979490.588   -13666910.94949 -10638014.60349  17979490.0184   17979494.9664
  21479504.791    -6836388.72949  -5320845.62349  21479504.0094   21479513.4024
 97 10 29 18 45 29.9890000  0  7 14 15 29 25 21  1 31
  21498522.112    -6262582.34949  -4422183.93249  21498521.2534   21498529.6184
  18070625.792   -36122076.43449 -28120446.51249  18070625.1574   18070630.2814
  17922962.528   -31511173.27749 -24193890.88549  17922962.2314   17922966.7334
  18149193.094   -35325900.16349 -27503192.34349  18149192.5454   18149196.9314
  18830010.880   -11048869.29149  -8603407.00049  18830010.5154   18830016.7654
  17971356.144   -13709657.78449 -10671323.83849  17971355.5094   17971360.5724
  21476356.870    -6852930.62049  -5333735.59349  21476357.2074   21476365.2744
 97 10 29 18 45 59.9890000  0  7 14 15 29 25 21  1 31
  21463884.041    -6444606.42049  -4564020.73449  21463883.4434   21463892.3824
  18041314.146   -36276110.00849 -28240472.66649  18041313.3694   18041318.8624
  17897550.379   -31644715.10849 -24297949.43449  17897550.0544   17897554.7004
  18119885.890   -35479910.31149 -27623200.20949  18119885.6144   18119890.0304
  18822623.220   -11087692.08449  -8633658.57049  18822623.0294   18822628.6604
  17963252.958   -13752240.01449 -10704504.80549  17963252.4194   17963257.5314
  21473215.073    -6869441.78049  -5346601.60349  21473215.0234   21473224.9284
 97 10 29 18 46 29.9890000  0  7 14 15 29 25 21  1 31
  21429238.385    -6626669.61849  -4705888.04349  21429237.2084   21429246.8324
  18012097.220   -36429646.00249 -28360111.07349  18012096.3154   18012101.5804
  17872197.190   -31777946.80849 -24401766.31949  17872196.7864   17872201.5064
  18090660.510   -35633490.58649 -27742873.11549  18090660.1674   18090664.7384
  18815290.204   -11126227.60849  -8663686.28649  18815289.4764   18815295.6024
  17955191.236   -13794604.71449 -10737516.26449  17955190.6704   17955195.4914
  21470085.306    -6885889.95449  -5359418.51249  21470085.8494   21470093.2974
 97 10 29 18 46 59.9890000  0  7 14 15 29 25 21  1 31
  21394580.781    -6808795.77849  -4847804.40549  21394580.6604   21394588.2874
  17982974.921   -36582684.65949 -28479361.95749  17982974.4464   17982979.2454
  17846901.714   -31910875.30649 -24505346.94049  17846901.6474   17846906.0354
  18061512.419   -35786664.76249 -27862229.58049  18061512.1554   18061516.7454
  18808011.610   -11164477.12449  -8693491.14849  18808011.0554   18808016.9414
  17947171.234   -13836750.17149 -10770356.88449  17947170.6824   17947175.7574
  21466964.978    -6902287.73849  -5372196.16149  21466964.8294   21466974.5434
 97 10 29 18 47 29.9890000  0  7 14 15 29 25 21  1 31
  21359902.036    -6991033.65949  -4989807.84949  21359901.7784   21359910.5324
  17953938.187   -36735273.51049 -28598262.33949  17953937.2384   17953943.0574
  17821651.534   -32043565.96349 -24608742.22749  17821651.1484   17821655.7164
  18032430.664   -35939490.22249 -27981314.31949  18032430.2484   18032434.8954
  18800777.741   -11202491.58949  -8723112.84149  18800777.4234   18800783.2774
  17939185.238   -13878717.00649 -10803058.32049  17939184.6314   17939189.4964
  21463843.391    -6918692.78049  -5384979.46449  21463844.1404   21463852.2234
 97 10 29 18 47 59.9890000  0  7 14 15 29 25 21  1 31
  21325214.855    -7173315.05549  -5131845.17549  21325214.2314   21325222.7854
  17924999.706   -36887345.92949 -28716760.31249  17924998.9914   17925004.4694
  17796457.111   -32175963.57849 -24711909.17649  17796456.8594   17796461.3154
  18003427.406   -36091903.16249 -28100077.61749  18003426.8874   18003431.7884
  18793598.924   -11240216.93449  -8752509.25749  18793598.5324   18793604.1154
  17931246.700   -13920434.33549 -10835565.33649  17931246.2474   17931251.1104
  21460731.981    -6935043.56449  -5397720.50749  21460731.8444   21460741.5784
 97 10 29 18 48 29.9890000  0  7 14 15 29 25 21  1 31
  21290516.443    -7355655.14349  -5273928.24149  21290515.9234   21290524.0984
  17896157.892   -37038910.57849 -28834862.61949  17896156.8884   17896162.6354
  17771316.988   -32308075.76949 -24814853.71249  17771317.0134   17771321.1174
  17974503.306   -36243900.00149 -28218516.67849  17974503.0014   17974507.6574
  18786469.095   -11277684.69049  -8781704.94349  18786468.4794   18786474.3864
  17923353.353   -13961914.12149 -10867887.25149  17923352.8014   17923357.7354
  21457629.437    -6951348.55549  -5410425.88549  21457630.1624   21457638.5764
 97 10 29 18 48 59.9890000  0  7 14 15 29 25 21  1 31
  21255806.650    -7538056.35549  -5416058.93149  21255806.4314   21255814.6734
  17867408.970   -37189986.74549 -28952584.29149  17867408.2314   17867413.5144
  17746228.737   -32439915.47849 -24917585.92149  17746228.7314   17746232.9324
  17945660.404   -36395470.41049 -28336623.45749  17945660.1484   17945664.7884
  18779382.311   -11314926.03549  -8810724.20549  18779381.7454   18779387.4494
  17915499.480   -14003186.52449 -10900047.57049  17915498.8984   17915503.7124
  21454530.183    -6967636.29849  -5423117.84049  21454530.0084   21454539.3274
 97 10 29 18 49 29.9890000  0  7 14 15 29 25 21  1 31
  21221089.175    -7720497.30949  -5558220.63349  21221088.6664   21221096.3684
  17838754.511   -37340566.91349 -29069919.47549  17838753.5884   17838759.2094
  17721194.824   -32571469.43349 -25020095.46449  17721194.6224   17721198.9374
  17916905.381   -36546578.94449 -28454370.33949  17916904.9854   17916909.6234
  18772339.215   -11351938.14249  -8839564.84949  18772339.1404   18772344.7914
  17907683.630   -14044259.13149 -10932052.20449  17907682.9494   17907688.1544
  21451433.667    -6983909.80449  -5435798.67149  21451433.8714   21451442.8334
 97 10 29 18 49 59.9890000  0  7 14 15 29 25 21  1 31
  21186361.305    -7902992.96449  -5700424.94549  21186360.4984   21186370.1774
  17810192.491   -37490661.30749 -29186876.13549  17810191.2814   17810197.2024
  17696214.936   -32702739.47849 -25122383.78249  17696214.5364   17696219.0984
  17888238.530   -36697224.26349 -28571756.27849  17888237.9914   17888242.9234
  18765337.339   -11388733.42449  -8868236.53049  18765336.7384   18765342.6484
  17899899.226   -14085166.41349 -10963928.01749  17899898.6584   17899903.6864
  21448337.238    -7000183.11049  -5448479.36249  21448337.7354   21448347.1194
 97 10 29 18 50 29.9880000  0  7 14 15 29 25 21  1 31
  21151624.508    -8085535.60249  -5842665.87249  21151623.9954   21151631.9034
  17781726.251   -37640252.30849 -29303440.53649  17781725.5084   17781730.7274
  17671292.794   -32833706.12849 -25224435.68149  17671292.5494   17671297.0824
  17859663.391   -36847387.41449 -28688766.50149  17859662.7934   17859667.5584
  18758380.103   -11425294.46249  -8896725.68349  18758379.3944   18758385.8094
  17892145.604   -14125911.80749 -10995677.68049  17892144.8864   17892149.9544
  21445241.318    -7016453.20749  -5461157.55449  21445241.1484   21445250.8554
 97 10 29 18 50 59.9880000  0  7 14 15 29 25 21  1 31
  21116874.759    -8268147.04949  -5984960.43049  21116874.4224   21116882.3494
  17753352.820   -37789355.86749 -29419625.11349  17753352.0704   17753357.6954
  17646420.532   -32964410.51649 -25326283.22949  17646420.2374   17646424.7784
  17831172.654   -36997106.98149 -28805431.07449  17831172.3464   17831176.8114
  18751467.784   -11461618.93449  -8925030.50849  18751467.3494   18751472.8094
  17884420.621   -14166506.80949 -11027310.15849  17884419.9844   17884425.0004
  21442143.002    -7032736.15649  -5473845.75849  21442142.6444   21442151.0624
 97 10 29 18 51 29.9880000  0  7 14 15 29 25 21  1 31
  21082106.479    -8450856.27049  -6127331.17449  21082105.9024   21082113.3624
  17725069.806   -37937983.98249 -29535439.20949  17725068.9604   17725074.3934
  17621591.817   -33094886.27549 -25427952.62449  17621591.4564   17621595.7984
  17802759.556   -37146418.82649 -28921777.94249  17802759.3064   17802763.6984
  18744596.951   -11497725.60549  -8953165.61249  18744596.6764   18744601.9554
  17876721.866   -14206964.02649 -11058835.26749  17876721.4334   17876726.4484
  21439040.716    -7049040.00249  -5486550.23049  21439040.8414   21439049.9274
 97 10 29 18 51 59.9880000  0  7 14 15 29 25 21  1 31
  21047323.741    -8633641.08649  -6269760.78549  21047323.3814   21047330.1264
  17696882.127   -38086111.14949 -29650862.95549  17696881.2444   17696886.8774
  17596811.159   -33225109.17249 -25529424.97749  17596810.8814   17596815.2784
  17774426.636   -37295309.33649 -29037796.49949  17774426.2814   17774430.7134
  18737771.259   -11533594.99849  -8981115.82549  18737770.7314   18737776.0224
  17869055.354   -14247252.12149 -11090228.59349  17869054.9014   17869059.6054
  21435940.677    -7065331.63149  -5499245.21449  21435939.9384   21435949.1634
 97 10 29 18 52 29.9880000  0  7 14 15 29 25 21  1 31
  21012529.317    -8816486.65049  -6412237.72449  21012528.5694   21012536.2924
  17668791.670   -38233727.53249 -29765888.69549  17668790.9914   17668796.3274
  17572081.643   -33355063.72549 -25630688.24149  17572081.5414   17572085.8244
  17746173.493   -37443780.46149 -29153488.26649  17746173.1804   17746177.8904
  18730992.261   -11569218.83249  -9008874.69849  18730991.7044   18730997.1374
  17861424.299   -14287353.67249 -11121476.56949  17861423.8644   17861428.7684
  21432842.241    -7081614.33149  -5511933.24949  21432842.5724   21432851.2874
 97 10 29 18 52 59.9880000  0  7 14 15 29 25 21  1 31
  20977722.042    -8999399.93049  -6554767.43649  20977721.2864   20977728.7844
  17640796.638   -38380842.49949 -29880523.71849  17640795.6814   17640801.3124
  17547402.674   -33484752.56049 -25731744.45749  17547402.4164   17547406.6934
  17717997.328   -37591847.06449 -29268864.81849  17717996.9464   17718001.4434
  18724258.013   -11604607.68949  -9036450.45549  18724257.8564   18724262.8374
  17853826.627   -14327279.76949 -11152587.82349  17853825.9534   17853830.9234
  21429745.395    -7097889.46349  -5524615.38849  21429746.3754   21429754.2834
 97 10 29 18 53 29.9880000  0  7 14 15 29 25 21  1 31
  20942901.793    -9182381.31749  -6697350.21849  20942901.0214   20942908.9964
  17612897.106   -38527455.75549 -29994767.79949  17612896.3364   17612901.7024
  17522778.075   -33614155.53749 -25832577.92649  17522777.7334   17522782.0284
  17689900.553   -37739496.74049 -29383916.49249  17689900.2774   17689904.8074
  18717567.552   -11639766.42149  -9063846.91249  18717566.7584   18717572.4434
  17846260.703   -14367038.84149 -11183568.93849  17846260.3314   17846265.1284
  21426649.253    -7114160.79249  -5537294.55549  21426647.8404   21426659.2394
 97 10 29 18 53 59.9880000  0  7 14 15 29 25 21  1 31
  20908079.143    -9365375.60049  -6839943.03749  20908078.8384   20908086.0254
  17585100.523   -38673527.70049 -30108590.07649  17585099.5794   17585105.3404
  17498217.249   -33743223.54849 -25933150.38349  17498216.9664   17498221.2704
  17661891.082   -37886687.47249 -29498610.54949  17661890.9074   17661895.2254
  18710929.819   -11674648.03449  -9091027.43949  18710929.2934   18710935.2804
  17838730.059   -14406613.00849 -11214405.96649  17838729.6644   17838734.4674
  21423556.135    -7130414.93949  -5549960.33449  21423556.4404   21423566.1304
 97 10 29 18 54 29.9880000  0  6 14 15 29 25 21  1
  20873245.120    -9548429.01049  -6982581.93949  20873244.5434   20873251.4494
  17557398.082   -38819105.02649 -30222026.93849  17557397.1074   17557402.7674
  17473708.283   -33872018.83349 -26033510.32949  17473707.9144   17473712.2104
  17633961.141   -38033460.20749 -29612978.89649  17633960.6834   17633965.3014
  18704336.692   -11709295.07549  -9118025.16649  18704336.5874   18704342.5444
  17831223.668   -14446059.75349 -11245143.70349  17831223.0714   17831228.1174
 97 10 29 18 54 59.9880000  0  6 14 15 29 25 21  1
  20838398.518    -9731548.30049  -7125272.17949  20838397.9274   20838405.4694
  17529790.294   -38964184.84449 -30335076.13549  17529789.2794   17529794.8374
  17449249.270   -34000551.73649 -26133665.82349  17449249.1064   17449253.4924
  17606113.562   -38179800.21549 -29727010.05049  17606113.1714   17606117.6164
  18697788.747   -11743704.79049  -9144837.97849  18697787.8014   18697794.4344
  17823742.051   -14485375.87549 -11275779.65449  17823741.4814   17823746.1114
 97 10 29 18 55 29.9880000  0  6 14 15 29 25 21  1
  20803540.797    -9914726.23149  -7268008.11649  20803540.1894   20803547.0244
  17502279.522   -39108754.70549 -30447727.96649  17502278.5254   17502283.9854
  17424839.854   -34128823.97749 -26233618.20649  17424839.4954   17424843.9604
  17578353.314   -38325681.04449 -29840683.39849  17578352.9004   17578357.5714
  18691286.109   -11777876.35649  -9171465.21649  18691286.0524   18691291.5024
  17816289.120   -14524541.04849 -11306297.98149  17816288.6704   17816293.4964
 97 10 29 18 55 59.9880000  0  6 14 15 29 25 21  1
  20768676.434   -10097939.16649  -7410771.32349  20768674.8964   20768683.5644
  17474869.400   -39252795.47249 -30559967.51549  17474868.6804   17474874.0784
  17400481.740   -34256826.60149 -26333360.49749  17400481.6274   17400485.8674
  17550686.101   -38471073.12349 -29953975.90949  17550685.6834   17550690.2234
  18684831.197   -11811797.82549  -9197897.57649  18684830.7714   18684836.7244
  17808869.055   -14563533.99649 -11336682.11149  17808868.4474   17808873.5734
 97 10 29 18 56 29.9880000  0  6 14 15 29 25 21  1
  20733802.117   -10281203.96449  -7553574.95949  20733801.8984   20733808.2844
  17447561.427   -39396299.76349 -30671789.03049  17447560.4954   17447566.1294
  17376174.672   -34384561.05649 -26432893.82849  17376174.4554   17376178.7424
  17523113.648   -38615967.26749 -30066880.41449  17523113.5614   17523117.9664
  18678422.392   -11845476.73749  -9224140.92749  18678421.9284   18678427.3504
  17801486.894   -14602327.48149 -11366910.81649  17801486.1784   17801491.2424
 97 10 29 18 56 59.9880000  0  6 14 15 29 25 21  1
  20698907.679   -10464575.17949  -7696461.53549  20698906.0264   20698914.0614
  17420348.171   -39539306.34749 -30783222.72149  17420347.2554   17420352.9574
  17351912.461   -34512059.83349 -26532243.51249  17351912.2214   17351916.7054
  17495624.385   -38760424.29649 -30179444.30849  17495624.0914   17495628.5994
  18672050.712   -11878960.56049  -9250232.25949  18672049.9594   18672055.8434
  17794136.124   -14640956.03349 -11397011.00049  17794135.4764   17794140.6924
 97 10 29 18 57 29.9880000  0  6 14 15 29 25 21  1
  20664005.025   -10647989.32349  -7839381.55049  20664004.6074   20664012.5524
  17393239.714   -39681762.30649 -30894227.35049  17393239.0014   17393244.4974
  17327704.689   -34639272.72249 -26631370.42849  17327704.5804   17327708.6524
  17468224.857   -38904409.71549 -30291640.71649  17468224.5304   17468228.8874
  18665725.439   -11912200.16449  -9276133.29549  18665725.0874   18665730.7134
  17786826.873   -14679366.51649 -11426941.26149  17786826.4764   17786831.5564
 97 10 29 18 57 59.9880000  0  6 14 15 29 25 21  1
  20629090.715   -10831465.21849  -7982349.68049  20629090.1184   20629097.0864
  17366232.758   -39823684.78549 -31004816.28449  17366232.1084   17366237.2224
  17303548.234   -34766215.82949 -26730287.12749  17303547.9034   17303552.3104
  17440907.609   -39047962.87449 -30403500.30149  17440907.3814   17440911.6174
  18659444.354   -11945207.66049  -9301853.47849  18659444.3154   18659450.0174
  17779553.517   -14717588.60249 -11456724.71649  17779552.9124   17779557.7894
 97 10 29 18 58 29.9880000  0  6 14 15 29 25 21  1
  20594162.248   -11015014.85349  -8125375.28849  20594160.6994   20594168.6464
  17339326.318   -39965079.22549 -31114993.75749  17339325.5854   17339331.2594
  17279443.317   -34892888.03149 -26828992.72749  17279443.0604   17279447.4724
  17413667.266   -39191111.95949 -30515045.01649  17413667.0694   17413671.1694
  18653206.011   -11977990.64149  -9327398.70849  18653205.7844   18653210.8994
  17772314.227   -14755631.36149 -11486368.43849  17772313.4934   17772318.6764
 97 10 29 18 58 59.9870000  0  6 14 15 29 25 21  1
  20559233.801   -11198564.13549  -8268400.61349  20559233.3194   20559239.9084
  17312529.737   -40105896.14949 -31224721.21949  17312529.1154   17312534.4544
  17255399.665   -35019238.25849 -26927447.43849  17255399.3464   17255403.6784
  17386513.661   -39333804.99049 -30626234.37049  17386513.2474   17386517.6744
  18647022.703   -12010484.37349  -9352718.54949  18647021.5464   18647028.3094
  17765113.357   -14793472.12349 -11515854.76149  17765112.8684   17765117.7774
 97 10 29 18 59 29.9870000  0  6 14 15 29 25 21  1
  20524297.897   -11382153.56149  -8411457.23149  20524297.8444   20524303.4254
  17285833.358   -40246186.74249 -31334038.55149  17285832.7174   17285837.8464
  17231405.378   -35145328.73049 -27025699.74549  17231405.0374   17231409.4374
  17359443.501   -39476059.44549 -30737081.97349  17359443.2484   17359447.4474
  18640886.690   -12042729.44949  -9377844.63049  18640886.2034   18640892.4904
  17757939.618   -14831170.47449 -11545230.11649  17757939.0154   17757943.7744
 97 10 29 18 59 59.9870000  0  6 14 15 29 25 21  1
  20489350.433   -11565803.39149  -8554560.90849  20489349.8384   20489357.1504
  17259232.122   -40385977.23449 -31442966.19649  17259231.2634   17259236.8184
  17207455.529   -35271186.06849 -27123770.39149  17207455.3074   17207459.6604
  17332454.840   -39617885.80549 -30847596.00149  17332454.7914   17332458.8174
  18634793.049   -12074751.77349  -9402797.13249  18634792.3224   18634798.5994
  17750782.686   -14868780.44449 -11574536.60649  17750782.0094   17750786.9734
 97 10 29 19  0 29.9870000  0  6 14 15 29 25 21  1
  20454396.745   -11749485.94249  -8697690.08249  20454396.1364   20454402.7764
  17232729.021   -40525252.06149 -31551492.02349  17232728.3504   17232733.5764
  17183552.122   -35396799.14049 -27221650.69649  17183552.0444   17183556.2954
  17305553.932   -39759251.07349 -30957750.73349  17305553.4254   17305557.7164
  18628744.575   -12106536.46249  -9427564.47149  18628744.2794   18628750.5824
  17743644.592   -14906291.57649 -11603766.07349  17743643.8614   17743648.8394
 97 10 29 19  0 59.9870000  0  6 14 15 29 25 21  1
  20419447.034   -11933146.76449  -8840802.31149  20419445.6124   20419454.0504
  17206334.330   -40663957.13949 -31659573.88949  17206333.5734   17206339.0354
  17159702.798   -35522128.16649 -27319309.66649  17159702.4754   17159706.8044
  17278754.475   -39900082.89549 -31067489.79349  17278754.4374   17278758.5074
  18622752.432   -12138025.75249  -9452101.63249  18622751.7574   18622758.4614
  17736534.667   -14943654.51149 -11632880.06849  17736534.0434   17736539.1724
 97 10 29 19  1 29.9870000  0  6 14 15 29 25 21  1
  20384494.503   -12116823.31449  -8983926.80549  20384494.4884   20384501.3184
  17180043.539   -40802116.29549 -31767230.36349  17180042.7044   17180048.1334
  17135903.297   -35647195.29249 -27416764.55749  17135903.1214   17135907.4224
  17252050.294   -40040414.31549 -31176838.93049  17252050.1244   17252054.3774
  18616807.697   -12169265.90949  -9476444.68049  18616807.5624   18616813.1754
  17729450.858   -14980880.32949 -11661887.21649  17729450.4874   17729455.2244
 97 10 29 19  1 59.9870000  0  6 14 15 29 25 21  1
  20349543.484   -12300491.81649  -9127045.02249  20349543.1244   20349550.4734
  17153863.527   -40939693.14949 -31874433.09549  17153862.7284   17153868.0594
  17112162.376   -35771954.63949 -27513979.61349  17112161.9574   17112166.3414
  17225442.632   -40180238.39249 -31285792.73649  17225442.3144   17225446.6334
  18610916.728   -12200223.19449  -9500567.28849  18610915.9214   18610921.9964
  17722401.053   -15017927.20849 -11690754.93049  17722400.6574   17722405.4014
 97 10 29 19  2 29.9870000  0  6 14 15 29 25 21  1
  20314585.688   -12484196.33449  -9270191.32049  20314585.0454   20314592.4384
  17127791.114   -41076704.50849 -31981195.18449  17127790.4374   17127795.7824
  17088475.923   -35896427.73649 -27610971.62249  17088475.6244   17088480.0344
  17198926.347   -40319582.26749 -31394372.35449  17198925.9714   17198930.5514
  18605075.674   -12230918.53049  -9524485.80249  18605074.2554   18605082.2564
  17715384.388   -15054800.26549 -11719487.19749  17715383.8054   17715388.6954
 97 10 29 19  2 59.9870000  0  6 14 15 29 25 21  1
  20279617.224   -12667956.82849  -9413381.21449  20279617.5534   20279624.1674
  17101827.226   -41213145.54949 -32087512.87349  17101826.3724   17101831.9594
  17064843.627   -36020616.20749 -27707741.84049  17064843.4354   17064847.7504
  17172499.811   -40458454.54649 -31502584.49649  17172499.4464   17172503.8304
  18599284.173   -12261353.21449  -9548201.18849  18599283.5544   18599289.9044
  17708402.304   -15091491.27049 -11748077.60449  17708401.9084   17708406.7584
 97 10 29 19  3 29.9870000  0  6 14 15 29 25 21  1
  20244632.444   -12851803.50349  -9556638.28149  20244631.9234   20244639.0224
  17075967.898   -41349037.09049 -32193402.37849  17075967.0844   17075972.4024
  17041261.431   -36144541.58949 -27804307.05849  17041261.2804   17041265.5904
  17146157.363   -40596884.82049 -31610452.21849  17146157.1324   17146161.5144
  18593537.097   -12291554.33249  -9571734.58049  18593536.8324   18593542.2354
  17701450.680   -15128022.34349 -11776543.39049  17701450.0514   17701455.0774
 97 10 29 19  3 59.9870000  0  6 14 15 29 25 21  1
  20209635.621   -13035713.14149  -9699944.41449  20209635.1714   20209642.2024
  17050217.893   -41484354.40249 -32298844.43749  17050217.1004   17050222.4404
  17017733.457   -36268181.91049 -27900650.15049  17017733.2984   17017737.4634
  17119904.790   -40734842.82249 -31717951.93349  17119904.5774   17119908.7584
  18587840.217   -12321491.86349  -9595062.56549  18587840.2964   18587845.6394
  17694531.668   -15164382.03349 -11804875.63449  17694531.2014   17694536.2674
 97 10 29 19  4 29.9870000  0  6 14 15 29 25 21  1
  20174625.453   -13219692.16449  -9843304.61449  20174625.0784   20174632.2664
  17024574.043   -41619113.68249 -32403851.66649  17024573.1234   17024578.5834
  16994257.215   -36391550.39949 -27996781.42649  16994257.1214   16994261.3184
  17093742.299   -40872327.51049 -31825082.83549  17093742.0194   17093746.3804
  18582190.171   -12351183.52949  -9618198.98649  18582189.9284   18582195.2364
  17687642.306   -15200585.84249 -11833086.41849  17687641.6704   17687646.9354
 97 10 29 19  4 59.9870000  0  6 14 15 29 25 21  1
  20139605.727   -13403721.53049  -9986704.04349  20139604.8224   20139612.4874
  16999037.607   -41753308.50049 -32508419.04949  16999036.7724   16999042.0954
  16970835.691   -36514631.20049 -28092688.52549  16970835.4154   16970839.8114
  17067674.003   -41009317.46949 -31931828.22949  17067673.7154   17067678.1664
  18576586.199   -12380632.78249  -9641146.51149  18576586.0274   18576591.1834
  17680782.225   -15236635.95549 -11861177.43149  17680781.6404   17680786.7514
 97 10 29 19  5 29.9870000  0  6 14 15 29 25 21  1
  20104586.430   -13587748.07649 -10130101.27149  20104585.3154   20104593.2674
  16973615.382   -41886903.22049 -32612518.82849  16973614.7314   16973619.8394
  16947478.740   -36637372.69749 -28188331.23849  16947478.5554   16947482.9314
  17041709.452   -41145762.14249 -32038148.72549  17041709.2904   17041713.4554
  18571035.878   -12409800.06949  -9663874.33249  18571035.6404   18571041.9934
  17673955.342   -15272511.81149 -11889132.65849  17673954.9764   17673959.7464
 97 10 29 19  5 59.9870000  0  6 14 15 29 25 21  1
  20069563.617   -13771793.53749 -10273513.21749  20069562.5714   20069570.3544
  16948300.873   -42019931.87649 -32716177.51649  16948300.0164   16948305.1754
  16924178.743   -36759814.79249 -28283740.64449  16924178.4754   16924182.6834
  17015842.349   -41281694.64349 -32144070.12049  17015842.0284   17015846.2214
  18565532.223   -12438721.88649  -9686410.86449  18565531.5404   18565537.3074
  17667153.883   -15308253.92049 -11916983.66249  17667153.2844   17667158.2274
 97 10 29 19  6 29.9870000  0  6 14 15 29 25 21  1
  20034543.745   -13955823.93749 -10416913.45849  20034542.5254   20034549.8264
  16923100.331   -42152361.53049 -32819369.44849  16923099.5524   16923104.8904
  16900939.359   -36881938.41849 -28378901.90049  16900939.2834   16900943.4214
  16990078.047   -41417086.74549 -32249570.42949  16990077.6844   16990081.9724
  18560079.002   -12467378.88349  -9708741.05749  18560078.5854   18560084.7014
  17660383.749   -15343831.24949 -11944706.27049  17660383.1614   17660388.1234
 97 10 29 19  6 59.9860000  0  6 14 15 29 25 21  1
  19999525.871   -14139843.78549 -10560305.44849  19999525.4174   19999532.9054
  16898012.716   -42284197.90949 -32922099.09249  16898011.7804   16898017.3084
  16877755.045   -37003772.83749 -28473837.79549  16877755.0434   16877759.0804
  16964411.238   -41551966.63649 -32354671.61049  16964411.0434   16964415.2394
  18554673.539   -12495784.91049  -9730875.69049  18554673.7174   18554679.6714
  17653641.253   -15379263.20849 -11972315.59949  17653640.6794   17653645.8664
 97 10 29 19  7 29.9860000  0  6 14 15 29 25 21  1
  19964505.187   -14323878.22449 -10703708.82849  19964504.3214   19964511.6394
  16873032.067   -42415471.95749 -33024390.55649  16873031.3334   16873036.6604
  16854615.160   -37125373.88249 -28568591.84349  16854614.9634   16854619.2844
  16938831.200   -41686390.63449 -32459417.55249  16938830.9514   16938835.0884
  18549312.267   -12523958.74949  -9752829.38649  18549311.3294   18549318.4764
  17646922.953   -15414568.10649 -11999825.91849  17646922.3604   17646927.4144
 97 10 29 19  7 59.9860000  0  6 14 15 29 25 21  1
  19929488.364   -14507892.45549 -10847096.44849  19929487.6934   19929495.1154
  16848164.733   -42546150.83449 -33126218.25049  16848163.9694   16848169.3274
  16831523.273   -37246722.52349 -28663149.21249  16831522.9394   16831527.2044
  16913342.030   -41820337.03949 -32563791.34749  16913341.7874   16913345.9874
  18543999.717   -12551876.75849  -9774583.74949  18543999.0674   18544005.8964
  17640238.092   -15449697.40649 -12027199.40949  17640237.7684   17640242.7184
 97 10 29 19  8 29.9860000  0  6 14 15 29 25 21  1
  19894470.070   -14691914.92049 -10990490.50449  19894468.7564   19894477.0774
  16823406.578   -42676255.75149 -33227598.70249  16823405.7894   16823410.9344
  16808477.617   -37367828.39549 -28757517.41149  16808477.3234   16808481.5504
  16887940.753   -41953821.35549 -32667805.07149  16887940.4324   16887944.8584
  18538733.703   -12579549.87149  -9796147.27049  18538733.4824   18538739.2034
  17633582.427   -15484673.54149 -12054453.54849  17633581.8054   17633586.8034
 97 10 29 19  8 59.9860000  0  6 14 15 29 25 21  1
  19859449.805   -14875947.54649 -11133892.44949  19859450.0294   19859455.8264
  16798757.237   -42805788.84749 -33328533.58049  16798756.6134   16798762.0324
  16785480.291   -37488680.15649 -28851687.60449  16785479.9144   16785484.3794
  16862627.784   -42086841.87049 -32771457.39349  16862627.5464   16862631.9644
  18533518.383   -12606956.81849  -9817503.39749  18533518.0224   18533524.4304
  17626954.717   -15519502.10249 -12081592.69549  17626954.4134   17626959.0414
 97 10 29 19  9 29.9860000  0  6 14 15 29 25 21  1
  19824427.766   -15059989.71649 -11277301.86349  19824427.6444   19824434.5164
  16774218.338   -42934741.80249 -33429016.40749  16774217.6414   16774222.9784
  16762535.847   -37609253.93649 -28945641.19449  16762535.5984   16762539.8254
  16837408.731   -42219368.81149 -32874725.11849  16837408.4354   16837412.8144
  18528355.063   -12634090.79049  -9838646.81449  18528354.6074   18528361.4324
  17620354.931   -15554184.27549 -12108617.78049  17620354.5424   17620359.3854
 97 10 29 19  9 59.9860000  0  6 14 15 29 25 21  1
  19789409.688   -15244010.46549 -11420694.57849  19789408.2884   19789415.8844
  16749797.844   -43063072.36349 -33529014.24749  16749797.2074   16749802.4584
  16739656.053   -37729487.96149 -29039330.03449  16739655.8274   16739660.1964
  16812293.915   -42351347.86249 -32977565.91349  16812293.6514   16812298.0384
  18523250.045   -12660918.29549  -9859551.43049  18523249.7714   18523255.5224
  17613787.864   -15588694.48749 -12135508.86649  17613787.2594   17613792.4094
 97 10 29 19 10 29.9860000  0  6 14 15 29 25 21  1
  19754389.411   -15428042.49049 -11564096.07949  19754389.0514   19754396.0424
  16725490.875   -43190806.53449 -33628547.37249  16725490.1844   16725495.3764
  16716835.067   -37849412.97649 -29132778.09149  16716834.7564   16716839.0094
  16787277.234   -42482811.51249 -33080005.10049  16787276.9604   16787281.1944
  18518197.308   -12687471.30749  -9880242.15149  18518196.7994   18518202.7044
  17607243.432   -15623085.72149 -12162307.24449  17607242.7594   17607247.7644
 97 10 29 19 10 59.9860000  0  6 14 15 29 25 21  1
  19719365.026   -15612097.22049 -11707515.28149  19719364.8684   19719371.1214
  16701294.226   -43317960.79649 -33727628.62249  16701293.3354   16701298.8634
  16694067.738   -37969056.14849 -29226006.52749  16694067.5584   16694071.7354
  16762354.614   -42613780.81049 -33182059.07749  16762354.2244   16762358.6534
  18513189.932   -12713785.49849  -9900746.78549  18513189.3064   18513195.2014
  17600718.450   -15657374.87149 -12189026.07549  17600717.7474   17600723.0014
 97 10 29 19 11 29.9860000  0  6 14 15 29 25 21  1
  19684339.829   -15796155.60249 -11850937.31249  19684339.3354   19684346.6734
  16677211.209   -43444518.02849 -33826244.64649  16677210.3774   16677215.9154
  16671355.106   -38088411.70249 -29319010.85149  16671354.9514   16671359.2114
  16737530.128   -42744234.15949 -33283711.02349  16737529.8194   16737534.2254
  18508226.420   -12739868.94649  -9921071.62749  18508225.6424   18508232.3444
  17594218.230   -15691533.98049 -12215643.57849  17594217.7664   17594222.6494
 97 10 29 19 11 59.9860000  0  6 14 15 29 25 21  1
  19649309.596   -15980239.95049 -11994379.58349  19649308.4974   19649316.1034
  16653236.897   -43570503.92949 -33924415.48649  16653236.1254   16653241.4834
  16648690.431   -38207515.41949 -29411818.93749  16648690.2524   16648694.5114
  16712798.197   -42874201.40449 -33384984.18849  16712797.9314   16712802.2104
  18503301.795   -12765748.57949  -9941237.65949  18503301.1614   18503307.4564
  17587740.829   -15725573.10649 -12242167.58749  17587740.3614   17587745.2254
 97 10 29 19 12 29.9860000  0  6 14 15 29 25 21  1
  19614277.216   -16164335.82849 -12137830.84249  19614276.6094   19614283.0594
  16629375.071   -43695898.91749 -34022125.87049  16629374.3844   16629379.7844
  16626074.760   -38326361.60149 -29504426.34849  16626074.3884   16626078.5944
  16688161.613   -43003667.23049 -33485866.63849  16688161.2864   16688165.6304
  18498422.259   -12791391.02049  -9961218.86049  18498421.3494   18498428.8134
  17581291.062   -15759466.83549 -12268578.30649  17581290.3564   17581295.3474
 97 10 29 19 12 59.9860000  0  6 14 15 29 25 21  1
  19579245.873   -16348426.40849 -12281277.96749  19579245.7704   19579251.7624
  16605629.536   -43820682.59249 -34119359.90149  16605628.6334   16605634.2714
  16603511.647   -38444931.45749 -29596818.43549  16603511.6184   16603515.7974
  16663627.269   -43132595.94849 -33586330.55849  16663627.0514   16663631.3494
  18493592.490   -12816771.99849  -9980996.32149  18493592.7424   18493598.0964
  17574875.642   -15793179.94749 -12294848.27649  17574874.8574   17574880.1304
 97 10 29 19 13 29.9860000  0  7 14 15 30 29 25 21  1
  19544213.380   -16532523.61049 -12424730.26049  19544213.0734   19544219.4914
  16581998.384   -43944865.05749 -34216125.46149  16581997.4924   16582002.8794
  20461195.921   -13604982.01949 -10573568.74949  20461196.5084   20461202.9824
  16580998.354   -38563239.75349 -29689006.71249  16580998.1344   16581002.3534
  16639191.254   -43261007.87849 -33686391.79249  16639190.9684   16639195.2574
  18488812.591   -12841890.77649 -10000569.45449  18488812.5214   18488819.1124
  17568491.819   -15826727.16749 -12320988.98949  17568491.1074   17568496.3894
 97 10 29 19 13 59.9860000  0  7 14 15 30 29 25 21  1
  19509177.308   -16716639.24349 -12568196.90649  19509177.1384   19509183.6074
  16558482.827   -44068439.95349 -34312417.58449  16558481.8324   16558487.1724
  20435959.666   -13737599.39349 -10676906.95449  20435959.2004   20435965.4314
  16558536.465   -38681277.53949 -29780984.20349  16558536.0944   16558540.6014
  16614851.318   -43388915.16049 -33786059.79649  16614850.9984   16614855.2454
  18484086.350   -12866727.87649 -10019923.10049  18484086.1434   18484091.9554
  17562136.857   -15860122.50749 -12347011.35449  17562136.3764   17562141.5264
 97 10 29 19 14 29.9860000  0  7 14 15 30 29 25 21  1
  19474139.002   -16900766.73249 -12711672.79649  19474139.0444   19474145.1024
  16535084.267   -44191400.12249 -34408230.70049  16535083.5104   16535088.9364
  20410800.754   -13869809.80249 -10779928.03749  20410800.3774   20410807.4174
  16536127.513   -38799037.38549 -29872745.11649  16536127.2374   16536131.4874
  16590608.914   -43516309.89949 -33885328.40849  16590608.7014   16590613.0254
  18479414.688   -12891277.66449 -10039052.88449  18479413.9384   18479420.9034
  17555809.652   -15893372.37049 -12372920.35549  17555809.3464   17555814.2864
 97 10 29 19 14 59.9850000  0  7 14 15 30 29 25 21  1
  19439091.796   -17084940.91349 -12855185.06349  19439091.3874   19439098.2774
  16511793.418   -44313794.34949 -34503602.82249  16511792.6644   16511797.9544
  20385716.557   -14001628.50749 -10882643.88149  20385716.8624   20385722.3534
  16513762.577   -38916565.83449 -29964325.71449  16513762.3904   16513766.8034
  16566455.811   -43643235.31849 -33984231.31849  16566455.4724   16566459.7274
  18474785.336   -12915605.41049 -10058009.63949  18474784.7534   18474790.9004
  17549499.356   -15926533.42549 -12398760.15649  17549499.1354   17549503.9814
 97 10 29 19 15 29.9850000  0  7 14 15 30 29 25 21  1
  19404043.323   -17269121.02049 -12998701.95349  19404042.7114   19404049.2524
  16488617.840   -44435582.74049 -34598502.86749  16488617.0284   16488622.4094
  20360716.759   -14133003.75949 -10985014.17349  20360717.3494   20360723.2294
  16491450.418   -39033817.08749 -30055690.32649  16491450.2774   16491454.5624
  16542397.206   -43769664.09649 -34082747.24149  16542397.1274   16542401.3034
  18470206.577   -12939667.59449 -10076759.47149  18470205.9334   18470212.9164
  17543211.769   -15959575.17849 -12424507.00049  17543211.2884   17543216.5464
 97 10 29 19 15 59.9850000  0  7 14 15 30 29 25 21  1
  19368985.149   -17453353.00849 -13142259.27349  19368983.9914   19368992.0894
  16465548.466   -44556812.93649 -34692967.95349  16465547.6394   16465553.0394
  20335790.417   -14263992.80549 -11087083.48849  20335789.9364   20335797.1874
  16469182.304   -39150837.03449 -30146874.68749  16469182.0824   16469186.3334
  16518428.191   -43895621.79249 -34180896.08049  16518427.8804   16518431.9904
  18465666.975   -12963524.13049 -10095349.05149  18465666.8354   18465672.6404
  17536936.844   -15992550.42749 -12450202.01749  17536936.3924   17536941.2594
 97 10 29 19 16 29.9850000  0  7 14 15 30 29 25 21  1
  19333936.891   -17637532.67949 -13285775.81849  19333936.7244   19333943.0764
  16442599.904   -44677408.12249 -34786938.22949  16442599.0064   16442604.5704
  20310952.761   -14394515.44549 -11188789.39349  20310952.4904   20310958.5344
  16446972.500   -39267550.15849 -30237819.96649  16446972.1384   16446976.5084
  16494565.975   -44021018.61749 -34278607.88149  16494565.7204   16494569.9334
  18461180.239   -12987102.60649 -10113721.95549  18461179.6914   18461186.2084
  17530691.724   -16025368.98949 -12475774.94749  17530691.0854   17530696.2774
 97 10 29 19 16 59.9850000  0  7 14 15 30 29 25 21  1
  19298881.890   -17821747.23649 -13429319.55849  19298880.8234   19298888.5684
  16419756.608   -44797450.40949 -34880477.67249  16419755.8104   16419761.4554
  20286186.233   -14524664.21249 -11290203.93449  20286185.9164   20286192.9374
  16424804.309   -39384044.81149 -30328595.01049  16424804.2554   16424808.4374
  16470792.966   -44145946.59449 -34375954.34249  16470792.6874   16470796.8974
  18456729.880   -13010489.70549 -10131945.73649  18456728.4634   18456735.6734
  17524460.360   -16058115.09149 -12501291.41549  17524459.5394   17524464.9524
 97 10 29 19 17 29.9850000  0  7 14 15 30 29 25 21  1
  19263828.725   -18005952.48449 -13572856.03249  19263827.9494   19263834.5754
  16397029.740   -44916880.75249 -34973540.27749  16397028.9034   16397034.6174
  20261497.157   -14654405.76249 -11391301.16849  20261496.3584   20261503.8124
  16402689.594   -39500258.35549 -30419151.00649  16402689.2254   16402693.2824
  16447117.948   -44270359.40849 -34472899.37749  16447117.5674   16447121.9144
  18452325.632   -13033633.74049 -10149980.12449  18452325.3514   18452331.7284
  17518254.296   -16090727.99449 -12526704.08249  17518253.6854   17518258.7724
 97 10 29 19 17 59.9850000  0  7 14 15 30 29 25 21  1
  19228784.943   -18190108.03849 -13716353.77649  19228785.1194   19228791.8194
  16374426.839   -45035659.77549 -35066095.35749  16374425.9314   16374431.6444
  20236892.227   -14783705.14049 -11492053.86149  20236892.5414   20236897.2264
  16380634.686   -39616157.76349 -30509462.22049  16380634.5734   16380638.6694
  16423548.664   -44394216.63449 -34569411.48449  16423548.3644   16423552.5754
  18447977.346   -13056484.37949 -10167785.89749  18447977.1314   18447983.7654
  17512083.214   -16123157.36649 -12551973.74249  17512082.7574   17512087.9844
 97 10 29 19 18 29.9850000  0  7 14 15 30 29 25 21  1
  19193734.480   -18374299.17249 -13859879.26649  19193734.1944   19193740.5944
  16351933.544   -45153862.77749 -35158201.58949  16351932.8324   16351938.2184
  20212357.814   -14912634.14249 -11592518.00349  20212357.4664   20212364.0144
  16358623.406   -39731827.82649 -30599594.72249  16358623.3614   16358627.3194
  16400066.978   -44517613.84849 -34665565.13749  16400066.7604   16400070.8104
  18443671.941   -13079109.75949 -10185416.13349  18443671.2724   18443678.6954
  17505931.027   -16155487.59349 -12577166.14649  17505930.9564   17505935.7924
 97 10 29 19 18 59.9850000  0  7 14 15 30 29 25 21  1
  19158683.255   -18558494.70649 -14003408.17849  19158682.7904   19158689.2684
  16329558.372   -45271445.07849 -35249824.16049  16329557.6724   16329563.1024
  20187903.639   -15041141.78549 -11692653.75549  20187902.1964   20187908.9624
  16336664.909   -39847220.49049 -30689511.07349  16336664.6424   16336669.0064
  16376680.554   -44640510.31949 -34761328.60049  16376680.5504   16376684.6114
  18439417.389   -13101467.85349 -10202838.09949  18439417.1874   18439423.6074
  17499802.683   -16187692.20749 -12602260.66849  17499802.0294   17499807.2394
 97 10 29 19 19 29.9850000  0  7 14 15 30 29 25 21  1
  19123631.525   -18742692.67049 -14146938.99049  19123630.7564   19123637.3084
  16307299.907   -45388414.30449 -35340969.01349  16307299.3124   16307304.6954
  20163529.385   -15169228.93549 -11792461.87849  20163528.7994   20163535.7534
  16314759.741   -39962332.61849 -30779208.82449  16314759.3474   16314763.8904
  16353390.479   -44762900.60449 -34856697.63549  16353390.3634   16353394.4524
  18435213.999   -13123557.34449 -10220050.75549  18435213.6174   18435221.2044
  17493698.319   -16219770.80449 -12627256.99949  17493697.7754   17493703.2744
 97 10 29 19 19 59.9850000  0  7 14 15 30 29 25 21  1
  19088569.599   -18926944.05349 -14290511.43549  19088569.2784   19088575.2784
  16285145.937   -45504834.24549 -35431685.85049  16285145.1594   16285150.8364
  20139224.108   -15296953.05149 -11891987.11549  20139223.6064   20139230.4984
  16292892.647   -40077244.89549 -30868750.84849  16292892.4254   16292896.7544
  16330188.260   -44884829.17749 -34951706.89649  16330187.8364   16330191.9084
  18431050.487   -13145436.82049 -10237099.76249  18431050.8194   18431057.1074
  17487604.544   -16251793.99749 -12652210.15749  17487604.1044   17487609.0984
 97 10 29 19 20 29.9850000  0  7 14 15 30 29 25 21  1
  19053508.193   -19111192.72449 -14434081.77349  19053507.8314   19053513.5304
  16263107.416   -45620647.59749 -35521930.02049  16263106.6664   16263112.0854
  20114997.722   -15424263.75349 -11991190.20549  20114996.8674   20115004.0344
  16271074.145   -40191902.16849 -30958094.16549  16271073.9204   16271077.9614
  16307085.142   -45006236.70049 -35046310.14149  16307084.8704   16307088.8414
  18426935.149   -13167063.54149 -10253951.80849  18426934.5494   18426940.4034
  17481530.965   -16283710.71649 -12677080.34849  17481530.4284   17481535.5284
 97 10 29 19 20 59.9850000  0  7 14 15 30 29 25 21  1
  19018443.354   -19295459.67649 -14577666.37049  19018442.5164   19018448.5184
  16241177.907   -45735887.93949 -35611727.68949  16241177.2674   16241182.6704
  20090843.330   -15551196.03749 -12090098.42449  20090843.1894   20090848.6384
  16249298.056   -40306336.20449 -31047263.53249  16249297.8054   16249301.8774
  16284076.151   -45127149.87249 -35140528.18249  16284075.9194   16284080.2384
  18422859.486   -13188481.30749 -10270641.04749  18422858.6904   18422865.4264
  17475471.596   -16315552.95849 -12701892.50549  17475471.1434   17475476.3214
 97 10 29 19 21 29.9850000  0  7 14 15 30 29 25 21  1
  18983381.253   -19479711.33249 -14721239.04149  18983380.7994   18983387.3594
  16219364.882   -45850516.30449 -35701048.49249  16219364.2184   16219369.5614
  20066766.025   -15677723.36349 -12188691.07949  20066766.0774   20066770.7674
  16227567.933   -40420528.74349 -31136244.72249  16227567.6794   16227571.7114
  16261169.576   -45247524.85749 -35234326.85249  16261169.2274   16261173.6104
  18418831.018   -13209651.41749 -10287137.31549  18418830.5894   18418836.6574
  17469433.767   -16347282.37749 -12726616.74949  17469433.2334   17469438.3354
 97 10 29 19 21 59.9850000  0  7 14 15 30 29 25 21  1
  18948314.012   -19663990.14449 -14864832.87349  18948313.5364   18948319.1474
  16197662.805   -45964561.55249 -35789914.92249  16197662.0624   16197667.5664
  20042761.048   -15803870.16249 -12286987.19749  20042760.2864   20042767.1514
  16205874.865   -40534526.48349 -31225074.12249  16205874.6664   16205878.7814
  16238356.576   -45367407.78249 -35327742.10649  16238356.3104   16238360.5804
  18414842.411   -13230612.11449 -10303470.39449  18414842.0304   18414849.3684
  17463408.328   -16378946.35849 -12751290.00049  17463407.7044   17463412.6244
 97 10 29 19 22 29.9850000  0  7 14 15 30 29 25 21  1
  18913240.870   -19848300.37949 -15008451.19549  18913240.1864   18913246.0924
  16176072.295   -46078020.64949 -35878324.61249  16176071.5494   16176076.8754
  20018830.402   -15929626.14149 -12384978.79649  20018829.9524   20018837.7144
  16184221.658   -40648314.84749 -31313740.37149  16184221.4674   16184225.5894
  16215634.571   -45486812.79649 -35420784.95749  16215634.3504   16215638.4264
  18410893.984   -13251361.41349 -10319638.74549  18410893.9734   18410899.6474
  17457394.963   -16410547.17749 -12775914.03349  17457394.2874   17457399.5664
 97 10 29 19 22 59.9840000  0  7 14 15 30 29 25 21  1
  18878172.804   -20032584.01949 -15152048.78749  18878172.2034   18878178.6354
  16154604.709   -46190833.48049 -35966230.71949  16154603.8604   16154609.2554
  19994987.993   -16054919.04949 -12482609.61449  19994988.6574   19994993.8804
  16162619.067   -40761837.19049 -31402199.32949  16162618.9624   16162623.1604
  16193014.832   -45605680.31449 -35513408.98349  16193014.5894   16193018.6494
  18406997.715   -13271836.60549 -10335593.50649  18406996.5214   18407003.1004
  17451403.367   -16442032.96649 -12800448.43549  17451402.6354   17451407.7484
 97 10 29 19 23 29.9840000  0  7 14 15 30 29 25 21  1
  18843099.074   -20216897.35149 -15295669.53149  18843098.5844   18843104.5544
  16133251.507   -46303045.12649 -36053668.36949  16133250.8134   16133256.2754
  19971227.632   -16179779.89549 -12579903.74449  19971226.8974   19971233.7734
  16141060.111   -40875130.39249 -31490479.73749  16141059.9274   16141064.2044
  16170488.667   -45724056.13949 -35605649.87749  16170488.5144   16170492.6174
  18403145.852   -13292078.60149 -10351366.57849  18403145.2384   18403151.2844
  17445428.096   -16473432.93249 -12824915.96349  17445427.4724   17445432.7134
 97 10 29 19 23 59.9840000  0  7 14 15 30 29 25 21  1
  18808036.723   -20401151.59449 -15439244.21449  18808036.5374   18808042.7234
  16112025.963   -46414586.14049 -36140583.45049  16112025.3274   16112030.7814
  19947565.454   -16304125.48449 -12676796.26549  19947564.7884   19947571.6734
  16119561.536   -40988106.15249 -31578512.78849  16119561.3004   16119565.5044
  16148068.444   -45841875.05449 -35697456.80849  16148068.1754   16148072.3244
  18399349.667   -13312028.00549 -10366911.63949  18399349.2964   18399356.9704
  17439482.624   -16504676.60149 -12849261.69949  17439482.1684   17439487.1884
 97 10 29 19 24 29.9840000  0  7 14 15 30 29 25 21  1
  18772993.613   -20585304.70349 -15582740.09449  18772994.1274   18772999.7614
  16090933.446   -46525428.21349 -36226953.90349  16090932.6494   16090938.1134
  19924006.245   -16427929.56249 -12773266.94449  19924004.3094   19924011.5434
  16098132.622   -41100715.51249 -31666260.33549  16098132.4054   16098136.7004
  16125763.312   -45959089.34749 -35788792.61049  16125762.9874   16125767.1204
  18395615.565   -13331651.09649 -10382202.45149  18395614.4514   18395622.5684
  17433574.043   -16535726.79549 -12873456.68449  17433573.6484   17433578.5244
 97 10 29 19 24 59.9840000  0  7 14 15 30 29 25 21  1
  18737966.032   -20769376.38149 -15726172.52049  18737965.7164   18737972.3144
  16069967.200   -46635606.64849 -36312807.23949  16069966.3044   16069971.8404
  19900543.006   -16551228.94449 -12869344.32549  19900543.6004   19900549.1084
  16076767.120   -41212991.84449 -31753748.38149  16076766.8264   16076770.8944
  16103568.252   -46075725.15649 -35879677.64749  16103568.0624   16103571.8754
  18391934.611   -13350994.95749 -10397275.67149  18391934.6794   18391940.2654
  17427696.065   -16566616.07249 -12897526.28149  17427695.5574   17427700.5094
 97 10 29 19 25 29.9840000  0  7 14 15 30 29 25 21  1
  18702955.021   -20953361.03849 -15869537.11949  18702953.8544   18702961.3204
  16049126.014   -46745127.95449 -36398148.52049  16049125.2724   16049130.7594
  19877172.838   -16674039.47049 -12965040.82149  19877173.5794   19877179.3834
  16055465.430   -41324933.06149 -31840975.29949  16055465.4034   16055469.4034
  16081483.343   -46191782.20849 -35970111.70449  16081483.1914   16081487.2334
  18388303.696   -13370076.23449 -10412144.28349  18388304.0124   18388309.6924
  17421846.420   -16597356.21449 -12921479.67149  17421845.7674   17421850.9304
 97 10 29 19 25 59.9840000  0  7 14 15 30 29 25 21  1
  18667957.219   -21137275.72749 -16012847.19949  18667956.2334   18667963.2614
  16028406.192   -46854011.38749 -36482992.76049  16028405.4164   16028410.7844
  19853887.494   -16796404.79949 -13060390.35849  19853887.7994   19853894.7344
  16034222.130   -41436567.59049 -31927963.23849  16034221.8994   16034226.0284
  16059504.270   -46307282.94649 -36060112.27149  16059504.0574   16059508.0474
  18384720.933   -13388904.04049 -10426815.37549  18384720.6234   18384726.4994
  17416018.779   -16627980.92549 -12945343.10749  17416018.0124   17416023.7804
 97 10 29 19 26 29.9840000  0  7 14 15 30 29 25 21  1
  18632965.496   -21321158.59349 -16156132.48749  18632965.1474   18632971.6374
  16007803.796   -46962277.71649 -36567356.14249  16007803.2284   16007808.4314
  19830682.684   -16918346.72149 -13155409.99149  19830682.9644   19830689.1034
  16013029.216   -41547937.11349 -32014744.68549  16013029.0914   16013033.0754
  16037626.631   -46422250.67649 -36149697.51049  16037626.3124   16037630.3194
  18381182.116   -13407501.26849 -10441306.82049  18381181.4534   18381188.2734
  17410209.065   -16658511.51349 -12969133.21749  17410208.7534   17410213.7564
 97 10 29 19 26 59.9840000  0  7 14 15 30 29 25 21  1
  18597978.969   -21505013.62449 -16299396.09049  18597978.5274   18597984.8244
  15987319.897   -47069921.40049 -36651234.34749  15987319.0994   15987324.5884
  19807560.604   -17039853.98949 -13250090.92949  19807560.9314   19807566.6554
  15991883.023   -41659061.00649 -32101334.72649  15991882.7504   15991886.8734
  16015848.047   -46536697.87449 -36238877.14149  16015847.6494   16015851.7714
  18377687.207   -13425867.16849 -10455618.00749  18377686.7424   18377693.5374
  17404416.911   -16688949.58449 -12992851.21549  17404416.3134   17404421.4724
 97 10 29 19 27 29.9840000  0  7 14 15 30 29 25 21  1
  18563004.112   -21688806.94249 -16442611.61049  18563002.1914   18563010.7664
  15966963.948   -47176892.75649 -36734588.65849  15966963.1614   15966968.6704
  19784531.553   -17160872.17049 -13344390.74349  19784531.7444   19784538.5854
  15970790.572   -41769902.49949 -32187704.72249  15970790.2524   15970794.4994
  15994175.306   -46650588.68849 -36327623.22949  15994175.0834   15994179.2624
  18374250.542   -13443927.09149 -10469690.77749  18374251.2714   18374257.5204
  17398651.716   -16719245.98649 -13016458.83049  17398650.9154   17398656.2174
 97 10 29 19 27 59.9840000  0  7 14 15 30 29 25 21  1
  18528034.953   -21872569.91449 -16585803.46649  18528034.3694   18528040.8574
  15946730.620   -47283219.72649 -36817440.85349  15946730.0784   15946735.1974
  19761592.820   -17281416.00949 -13438320.97449  19761593.1844   19761599.3024
  15949743.623   -41880504.67849 -32273888.23149  15949743.5324   15949747.6154
  15972601.487   -46763959.97549 -36415964.49049  15972601.3884   15972605.5504
  18370868.670   -13461699.04349 -10483539.14749  18370868.4724   18370873.6384
  17392908.526   -16749426.62049 -13039976.23749  17392908.2104   17392913.2704
 97 10 29 19 28 29.9840000  0  7 14 15 30 29 25 21  1
  18493067.993   -22056321.39849 -16728986.38249  18493066.9364   18493074.6514
  15926614.651   -47388929.87049 -36899812.40349  15926613.8854   15926619.3654
  19738743.889   -17401488.25349 -13531883.72549  19738744.0224   19738749.7744
  15928737.422   -41990893.09349 -32359905.17449  15928737.3454   15928741.2674
  15951121.502   -46876837.95649 -36503921.35149  15951121.2594   15951125.3274
  18367534.486   -13479220.43949 -10497192.28549  18367534.6004   18367540.2804
  17387182.482   -16779517.41749 -13063423.63649  17387181.8744   17387187.1594
 97 10 29 19 28 59.9840000  0  7 14 15 30 29 25 21  1
  18458119.933   -22239973.99649 -16872092.24349  18458118.9004   18458126.1744
  15906628.857   -47493955.90249 -36981650.88449  15906628.1904   15906633.3324
  19715996.521   -17521026.36949 -13625030.29549  19715996.6404   19716002.1104
  15907787.996   -42100983.34049 -32445689.77949  15907787.9084   15907791.8714
  15929748.451   -46989154.02749 -36591440.36649  15929748.3654   15929752.3754
  18364262.247   -13496416.62749 -10510592.00649  18364262.6064   18364269.2774
  17381485.669   -16809454.33549 -13086751.14149  17381485.0684   17381490.5224
 97 10 29 19 29 29.9840000  0  7 14 15 30 29 25 21  1
  18423188.198   -22423541.17249 -17015131.54549  18423187.8624   18423194.6974
  15886770.677   -47598311.45349 -37062966.91349  15886769.9684   15886775.3844
  19693346.734   -17640051.53649 -13717777.12749  19693348.1594   19693352.5524
  15886893.967   -42210782.29449 -32531247.40249  15886893.8124   15886897.9784
  15908483.987   -47100899.63949 -36678514.86949  15908483.7864   15908487.8704
  18361048.433   -13513305.78449 -10523752.49749  18361047.5114   18361055.0994
  17375815.873   -16839249.28649 -13109968.02149  17375815.4534   17375820.7714
 97 10 29 19 29 59.9840000  0  7 14 15 30 29 25 21  1
  18388266.555   -22607055.75349 -17158129.86349  18388266.5084   18388272.9634
  15867033.585   -47702030.65349 -37143787.08049  15867032.7724   15867038.1844
  19670786.520   -17758605.77749 -13810156.99549  19670786.4984   19670792.7694
  15866050.347   -42320316.38249 -32616598.63549  15866049.9324   15866054.1684
  15887324.079   -47212095.66449 -36765161.11749  15887323.7754   15887327.9704
  18357879.739   -13529956.88649 -10536727.50149  18357879.2454   18357886.3204
  17370165.831   -16868940.53449 -13133104.08549  17370165.2054   17370170.6304
 97 10 29 19 30 29.9840000  0  7 14 15 30 29 25 21  1
  18353355.742   -22790513.50349 -17301083.89449  18353355.6764   18353361.4724
  15847418.702   -47805107.60649 -37224106.79949  15847417.9214   15847423.2184
  19648315.656   -17876690.90849 -13902171.23549  19648315.0454   19648321.3484
  15845261.557   -42429561.95449 -32701725.04949  15845261.3944   15845265.7174
  15866270.221   -47322734.49549 -36851373.18849  15866269.9804   15866274.0404
  18354755.557   -13546375.17249 -10549521.07249  18354755.7974   18354762.2704
  17364537.006   -16898520.31949 -13156153.29549  17364536.8114   17364541.7464
 97 10 29 19 30 59.9830000  0  7 14 15 30 29 25 21  1
  18318461.816   -22973882.07649 -17443968.45949  18318461.3334   18318467.7164
  15827931.796   -47907512.20749 -37303902.60849  15827930.9914   15827936.3374
  19625937.755   -17994287.48949 -13993804.95749  19625937.3364   19625942.2214
  15824533.572   -42538488.36249 -32786602.76949  15824533.3834   15824537.3614
  15845327.886   -47432787.19349 -36937128.53749  15845327.7084   15845331.7384
  18351679.072   -13562543.41949 -10562119.77549  18351678.8474   18351684.3814
  17358935.131   -16927958.42749 -13179092.11249  17358934.6204   17358940.2734
 97 10 29 19 31 29.9830000  0  7 14 15 30 29 25 21  1
  18283576.708   -23157204.33949 -17586816.91549  18283575.2944   18283583.0884
  15808567.152   -48009274.02049 -37383197.54249  15808566.4674   15808571.8654
  19603648.785   -18111416.07449 -14085074.03849  19603648.4274   19603654.7404
  15803858.975   -42647134.06449 -32871261.75149  15803858.7964   15803862.8724
  15824492.730   -47542276.66049 -37022444.99549  15824492.5524   15824496.5884
  18348644.498   -13578490.77649 -10574546.38449  18348644.9174   18348652.4254
  17353353.986   -16957287.72949 -13201946.14849  17353353.7434   17353358.6094
 97 10 29 19 31 59.9830000  0  7 14 15 30 29 25 21  1
  18248704.053   -23340461.30649 -17729614.50149  18248703.7054   18248710.6854
  15789325.074   -48110391.82949 -37461990.65549  15789324.3184   15789329.7574
  19581452.023   -18228060.48049 -14175965.80849  19581452.0334   19581457.5354
  15783238.647   -42755494.91149 -32955698.77749  15783238.5014   15783242.5964
  15803761.892   -47651217.83749 -37107334.22349  15803761.6334   15803765.7554
  18345653.414   -13594209.63949 -10586794.94849  18345652.2394   18345660.0634
  17347791.866   -16986517.23449 -13224722.43049  17347791.5144   17347796.1504
 97 10 29 19 32 29.9830000  0  7 14 15 30 29 25 21  1
  18213848.634   -23523627.68149 -17872341.51149  18213848.6354   18213854.6214
  15770208.999   -48210847.56949 -37540267.87049  15770208.2624   15770213.6314
  19559353.248   -18344190.31249 -14266456.58249  19559353.3714   19559360.1334
  15762673.750   -42863564.26549 -33039908.65949  15762673.6984   15762677.6994
  15783138.358   -47759595.11249 -37191784.04549  15783138.1914   15783142.3684
  18342714.056   -13609656.86149 -10598831.85149  18342714.9934   18342720.3354
  17342253.073   -17015623.78649 -13247402.88249  17342252.8784   17342257.6104
 97 10 29 19 32 59.9830000  0  7 14 15 30 29 25 21  1
  18179005.683   -23706728.51149 -18015017.42849  18179005.1974   18179010.5734
  15751217.297   -48310649.70049 -37618035.78149  15751216.3804   15751222.0744
  19537352.621   -18459804.65349 -14356545.59149  19537352.4424   19537358.7124
  15742157.032   -42971380.23149 -33123921.10049  15742156.7724   15742160.7954
  15762620.836   -47867415.57949 -37275799.98449  15762620.6954   15762624.6674
  18339826.568   -13624831.39049 -10610656.26249  18339825.7134   18339832.8604
  17336732.960   -17044632.28649 -13270006.93649  17336732.4104   17336737.7504
 97 10 29 19 33 29.9830000  0  7 14 15 30 29 25 21  1
  18144171.795   -23889781.89549 -18157656.39649  18144170.9324   18144176.8944
  15732350.005   -48409797.92649 -37695294.15649  15732349.1214   15732354.6574
  19515451.230   -18574897.61649 -14446228.34149  19515451.1044   19515458.4484
  15721686.791   -43078952.16549 -33207743.38349  15721686.5534   15721690.6404
  15742209.893   -47974675.81449 -37359379.37849  15742209.5054   15742213.6094
  18336994.017   -13639716.90049 -10622255.43349  18336993.1244   18337000.7714
  17331229.862   -17073551.60249 -13292541.50449  17331229.3304   17331235.1504
 97 10 29 19 33 59.9830000  0  7 14 15 30 29 25 21  1
  18109335.126   -24072849.82149 -18300306.69049  18109334.2994   18109340.7574
  15713598.031   -48508340.06149 -37772080.25249  15713597.3134   15713602.7684
  19493637.981   -18689527.23849 -14535550.11649  19493637.8754   19493644.4234
  15701254.338   -43186325.30849 -33291410.76549  15701254.1084   15701258.1204
  15721893.757   -48081437.91049 -37442570.61149  15721893.5604   15721897.7044
  18334206.280   -13654366.72849 -10633670.99249  18334204.7544   18334212.9374
  17325737.291   -17102415.52249 -13315032.90649  17325736.8024   17325741.8764
 97 10 29 19 34 29.9830000  0  7 14 15 30 29 25 21  1
  18074501.409   -24255902.24249 -18442944.90249  18074500.1544   18074506.7744
  15694970.441   -48606228.86549 -37848357.25849  15694969.6194   15694975.1674
  19471918.142   -18803665.43349 -14624488.97549  19471917.0424   19471923.4254
  15680869.356   -43293449.11549 -33374883.85849  15680869.2704   15680873.5144
  15701680.556   -48187658.93749 -37525340.23449  15701680.2634   15701684.4314
  18331470.096   -13668744.97849 -10644874.93249  18331470.0174   18331476.8494
  17320264.936   -17131172.81249 -13337441.21649  17320264.3314   17320269.6324
 97 10 29 19 34 59.9830000  0  7 14 15 30 29 25 21  1
  18039663.439   -24438976.98349 -18585600.50249  18039663.7914   18039668.4134
  15676460.130   -48703501.31749 -37924153.99449  15676459.4734   15676465.0594
  19450282.898   -18917359.24749 -14713081.57049  19450282.8194   19450289.3704
  15660527.285   -43400347.38449 -33458181.21249  15660527.0334   15660531.1644
  15681562.564   -48293379.74549 -37607720.08449  15681562.3304   15681566.5404
  18328777.272   -13682896.02449 -10655901.84149  18328777.1324   18328783.9354
  17314804.375   -17159868.37049 -13359801.42949  17314803.7014   17314809.3954
 97 10 29 19 35 29.9830000  0  7 14 15 30 29 25 21  1
  18004827.065   -24622043.31049 -18728249.55149  18004826.7984   18004832.3504
  15658067.937   -48800153.02449 -37999467.02449  15658067.2964   15658072.7364
  19428732.073   -19030609.59949 -14801328.60349  19428731.1294   19428738.2274
  15640234.372   -43506987.16949 -33541277.14449  15640234.1714   15640238.3874
  15661540.360   -48398597.13249 -37689707.64549  15661540.1214   15661544.0954
  18326126.611   -13696826.07449 -10666756.53449  18326126.9064   18326133.3924
  17309361.326   -17188472.19649 -13382090.15949  17309360.9694   17309365.8204
 97 10 29 19 35 59.9830000  0  7 14 15 30 29 25 21  1
  17969996.154   -24805080.99749 -18870876.26849  17969996.0414   17970002.2914
  15639793.921   -48896183.62149 -38074296.07849  15639793.0874   15639798.7844
  19407265.611   -19143415.93849 -14889229.65849  19407265.6604   19407271.9494
  15619992.803   -43613357.36649 -33624163.01049  15619992.6944   15619996.6984
  15641613.288   -48503314.57149 -37771305.64649  15641613.0074   15641617.1434
  18323517.719   -13710536.64149 -10677440.19749  18323516.9734   18323525.1484
  17303937.213   -17216976.22249 -13404301.12749  17303936.7344   17303941.6644
 97 10 29 19 36 29.9830000  0  7 14 15 30 29 25 21  1
  17935179.710   -24988042.31349 -19013443.49749  17935179.8834   17935185.1624
  15621643.020   -48991567.42249 -38148621.13249  15621642.4224   15621647.9064
  19385892.750   -19255730.94849 -14976747.87749  19385892.5264   19385898.3814
  15599805.220   -43719443.70849 -33706827.68849  15599805.0304   15599809.0454
  15621787.476   -48607499.76249 -37852488.90349  15621787.2524   15621791.2384
  18320956.808   -13723994.02049 -10687926.59649  18320957.3154   18320963.8134
  17298535.891   -17245360.59749 -13426418.85649  17298535.3134   17298540.6774
 97 10 29 19 36 59.9830000  0  7 14 15 30 29 25 21  1
  17900383.328   -25170898.42349 -19155928.72949  17900382.0734   17900389.0354
  15603616.453   -49086297.86849 -38222437.08249  15603615.8424   15603620.9524
  19364619.600   -19367521.95349 -15063857.76349  19364619.6434   19364626.2184
  15579670.914   -43825250.21549 -33789274.31849  15579670.6984   15579674.8424
  15602065.014   -48711142.04049 -37933249.12249  15602064.9254   15602068.9084
  18318445.562   -13737190.87149 -10698209.97649  18318445.7144   18318452.7374
  17293159.873   -17273611.44849 -13448432.54249  17293159.1954   17293164.7384
 97 10 29 19 37 29.9830000  0  7 14 15 30 29 25 21  1
  17865601.357   -25353678.59649 -19298354.79949  17865600.2124   17865607.4094
  15585707.305   -49180411.05549 -38295772.05249  15585706.7504   15585712.0124
  19343439.641   -19478824.11249 -15150586.75049  19343439.6654   19343445.4964
  15559581.189   -43930822.42449 -33871538.38149  15559581.0664   15559585.1554
  15582438.256   -48814281.53249 -38013617.55649  15582437.9634   15582442.1214
  18315976.491   -13750166.26149 -10708320.76749  18315976.3534   18315983.4214
  17287802.379   -17301765.30449 -13470370.65049  17287802.2644   17287807.1164
 97 10 29 19 37 59.9830000  0  7 14 15 30 29 25 21  1
  17830832.993   -25536387.18849 -19440725.08849  17830832.5914   17830839.2354
  15567915.304   -49273908.83749 -38368627.48749  15567914.6374   15567920.2514
  19322351.079   -19589645.38549 -15236941.01649  19322351.1554   19322356.5424
  15539531.215   -44036185.74649 -33953639.67649  15539531.1264   15539535.2454
  15562905.715   -48916925.78849 -38093600.08449  15562905.5554   15562909.5204
  18313551.951   -13762907.93449 -10718249.45349  18313551.2124   18313558.6134
  17282458.509   -17329848.00149 -13492253.30949  17282458.0734   17282463.1604
 97 10 29 19 38 29.9830000  0  7 14 15 30 29 25 21  1
  17796079.169   -25719019.28649 -19583035.79049  17796078.3114   17796085.5064
  15550240.827   -49366788.92149 -38441001.60049  15550240.0434   15550245.3564
  19301354.606   -19699982.42649 -15322917.96649  19301354.6504   19301360.7994
  15519520.381   -44141343.44749 -34035580.74649  15519520.3404   15519524.3924
  15543467.493   -49019074.30749 -38173196.33249  15543467.2224   15543471.3094
  18311171.405   -13775418.45549 -10727998.03449  18311171.6404   18311178.6024
  17277126.420   -17357868.57949 -13514087.56449  17277126.0254   17277131.3374
 97 10 29 19 38 59.9820000  0  7 14 15 30 29 25 21  1
  17761346.390   -25901540.91749 -19725260.39649  17761345.8564   17761351.7474
  15532690.977   -49459014.20049 -38512865.47349  15532690.1924   15532695.5014
  19280452.907   -19809822.00149 -15408507.29349  19280452.5804   19280458.1214
  15499557.197   -44246250.91049 -34117326.82949  15499557.0704   15499561.4044
  15524130.952   -49120688.56749 -38252376.26949  15524130.8484   15524134.8444
  18308841.773   -13787661.53849 -10737538.23949  18308841.2934   18308849.2934
  17271810.599   -17385803.61949 -13535855.17549  17271810.3154   17271815.4684
 97 10 29 19 39 29.9820000  0  7 14 15 30 29 25 21  1
  17726625.125   -26084001.87649 -19867437.73449  17726625.0034   17726631.2514
  15515260.099   -49550614.13349 -38584242.06449  15515259.2994   15515264.6854
  19259637.665   -19919206.49949 -15493742.00049  19259637.9604   19259642.4794
  15479635.720   -44350938.87849 -34198901.87749  15479635.6814   15479639.6814
  15504890.899   -49221795.82249 -38331161.13849  15504890.7084   15504894.7314
  18306559.091   -13799657.53449 -10746885.89849  18306558.6434   18306566.2034
  17266503.738   -17413691.69649 -13557586.17949  17266503.3284   17266508.5704
 97 10 29 19 39 59.9820000  0  7 14 15 30 29 25 21  1
  17691914.187   -26266409.29649 -20009573.34949  17691913.6234   17691919.5694
  15497946.011   -49641600.40249 -38655140.47949  15497945.2964   15497950.7344
  19238910.683   -20028127.80849 -15578615.78549  19238910.9994   19238915.7804
  15459755.127   -44455412.25649 -34280309.71549  15459754.8844   15459759.2304
  15485747.266   -49322396.31349 -38409551.13249  15485746.9504   15485751.0174
  18304319.279   -13811428.52949 -10756058.20949  18304319.6434   18304325.8984
  17261203.025   -17441547.37449 -13579291.94949  17261202.3684   17261208.3444
 97 10 29 19 40 29.9820000  0  7 14 15 30 29 25 21  1
  17657215.398   -26448752.75549 -20151659.13149  17657214.7754   17657220.9014
  15480751.576   -49731957.88849 -38725548.93349  15480750.8494   15480756.2994
  19218277.701   -20136554.97449 -15663104.50949  19218278.4134   19218283.8304
  15439920.692   -44559642.84449 -34361528.36549  15439920.3764   15439924.5094
  15466704.887   -49422464.46249 -38487526.31749  15466704.5834   15466708.6714
  18302119.977   -13822986.90149 -10765064.83949  18302119.7664   18302127.0964
  17255913.605   -17469343.60949 -13600951.39149  17255913.1004   17255918.3224
 97 10 29 19 40 59.9820000  0  7 14 15 30 29 25 21  1
  17622533.556   -26631007.33649 -20293675.65349  17622533.6744   17622539.6174
  15463683.343   -49821652.13549 -38795440.57649  15463682.4954   15463688.3044
  19197745.586   -20244451.97849 -15747180.11649  19197746.6774   19197751.9704
  15420139.502   -44663593.65949 -34442529.01249  15420139.3204   15420143.5634
  15447771.618   -49521959.43749 -38565054.87349  15447771.3704   15447775.4994
  18299966.042   -13834306.44649 -10773885.39649  18299965.0384   18299973.1474
  17250644.604   -17497032.61349 -13622527.28449  17250643.8284   17250649.5244
 97 10 29 19 41 29.9820000  0  7 14 15 30 29 25 21  1
  17587866.370   -26813185.09549 -20435632.31749  17587866.3934   17587872.2694
  15446738.957   -49910695.57549 -38864825.09549  15446738.1664   15446743.6254
  19177315.781   -20351811.27549 -15830836.73149  19177316.6904   19177322.3254
  15400411.869   -44767263.10549 -34523310.40749  15400411.7474   15400415.8784
  15428946.903   -49620883.82549 -38642138.81249  15428946.6234   15428950.6564
  18297852.753   -13845411.88949 -10782539.14849  18297851.8614   18297859.6424
  17245394.970   -17524619.67749 -13644023.73849  17245394.5524   17245399.9324
 97 10 29 19 41 59.9820000  0  7 14 15 30 29 25 21  1
  17553208.383   -26995314.00249 -20577550.92249  17553208.3174   17553214.2164
  15429912.499   -49999119.24049 -38933726.68149  15429911.8044   15429917.3714
  19156982.549   -20458663.20549 -15914097.98949  19156983.2664   19156988.0034
  15380731.855   -44870682.35449 -34603896.84549  15380731.8414   15380736.0254
  15410224.444   -49719271.03649 -38718804.17549  15410224.2544   15410228.2634
  18295773.554   -13856338.82049 -10791053.78449  18295772.9204   18295781.1874
  17240158.831   -17552136.15349 -13665465.18649  17240158.3774   17240163.8694
 97 10 29 19 42 29.9820000  0  7 14 15 30 29 25 21  1
  17518548.997   -27177450.09549 -20719475.10849  17518548.2914   17518554.7074
  15413195.244   -50086969.05949 -39002181.10949  15413194.6574   15413200.0584
  19136734.459   -20565067.37849 -15997010.33249  19136735.0144   19136741.0854
  15361088.714   -44973907.98049 -34684332.40749  15361088.4204   15361092.4184
  15391594.253   -49817173.23149 -38795091.60249  15391594.0414   15391598.1444
  18293721.895   -13867121.20749 -10799455.78749  18293722.1604   18293728.3784
  17234927.418   -17579627.56349 -13686887.10349  17234927.3584   17234932.1994
 97 10 29 19 42 59.9820000  0  7 14 15 30 29 25 21  1
  17483892.624   -27359570.36349 -20861386.98349  17483892.2834   17483898.6624
  15396590.038   -50174230.16949 -39070176.80449  15396589.4534   15396594.6594
  19116573.023   -20671016.51449 -16079568.09849  19116573.3724   19116578.7614
  15341484.926   -45076926.55549 -34764606.62049  15341484.8114   15341488.9404
  15373058.469   -49914579.57349 -38870992.65049  15373058.1734   15373062.3244
  18291705.599   -13877717.30449 -10807712.59049  18291706.2054   18291712.8584
  17229704.034   -17607076.74449 -13708276.11849  17229703.1154   17229709.3944
 97 10 29 19 43 29.9820000  0  7 14 15 30 29 25 21  1
  17449253.579   -27541599.26249 -21003227.65149  17449253.3334   17449259.2214
  15380108.798   -50260839.87549 -39137664.91149  15380108.2134   15380113.4094
  19096510.400   -20776446.03649 -16161720.98049  19096510.1214   19096516.5994
  15321929.425   -45179691.49249 -34844683.20749  15321929.3494   15321933.4724
  15354626.856   -50011438.27049 -38946466.96449  15354626.6034   15354630.6154
  18289738.458   -13888055.42749 -10815768.36549  18289738.7874   18289745.6044
  17224497.989   -17634434.61149 -13729593.96749  17224497.1294   17224502.9374
 97 10 29 19 43 59.9820000  0  7 14 15 30 29 25 21  1
  17414627.382   -27723560.78749 -21145015.83849  17414627.0954   17414633.4104
  15363747.454   -50346819.60149 -39204662.12749  15363746.7094   15363752.3244
  19076540.640   -20881388.41849 -16243494.25749  19076542.3854   19076546.9914
  15302414.107   -45282245.07949 -34924595.09349  15302414.0594   15302418.0914
  15336291.861   -50107789.44349 -39021545.80349  15336291.7464   15336295.5874
  18287816.405   -13898156.09549 -10823639.10949  18287815.7694   18287823.0274
  17219305.981   -17661719.04849 -13750854.61449  17219305.5634   17219310.9404
 97 10 29 19 44 29.9820000  0  7 14 15 30 29 25 21  1
  17380009.070   -27905481.16849 -21286771.93349  17380008.7404   17380015.0624
  15347500.198   -50432199.56849 -39271191.99749  15347499.3374   15347505.0974
  19056658.023   -20985873.15649 -16324910.93749  19056658.7404   19056665.0404
  15282935.300   -45384606.92049 -35004357.60249  15282935.1944   15282939.4824
  15318048.688   -50203658.00649 -39096248.58449  15318048.5064   15318052.4704
  18285935.013   -13908043.20549 -10831343.49749  18285933.7914   18285943.0514
  17214124.706   -17688947.13249 -13772071.33849  17214124.6994   17214129.5034
 97 10 29 19 44 59.9820000  0  7 14 15 30 29 25 21  1
  17345404.589   -28087328.94649 -21428471.46749  17345403.7874   17345410.4754
  15331370.923   -50516959.45749 -39337238.68749  15331370.0834   15331375.4914
  19036866.979   -21089875.42249 -16405951.68049  19036866.5024   19036873.1154
  15263498.210   -45486749.64249 -35083949.33249  15263498.0904   15263502.3694
  15299898.927   -50299035.59149 -39170568.78449  15299898.6514   15299902.7194
  18284098.027   -13917697.36249 -10838866.32749  18284097.5634   18284104.9074
  17208956.873   -17716104.39549 -13793232.88249  17208955.7384   17208961.6664
 97 10 29 19 45 29.9820000  0  7 14 15 30 29 25 21  1
  17310805.467   -28269148.22749 -21570148.80049  17310804.3794   17310810.8334
  15315352.013   -50601139.39149 -39402833.47549  15315351.3034   15315357.0034
  19017162.740   -21193422.19249 -16486637.46049  19017163.0324   19017168.2734
  15244095.050   -45588713.96449 -35163402.07649  15244094.8934   15244099.2054
  15281836.003   -50393957.12349 -39244533.62749  15281835.7954   15281839.7954
  18282294.489   -13927176.08749 -10846252.48749  18282292.9624   18282302.6884
  17203790.893   -17743252.06249 -13814386.95949  17203790.5544   17203796.2084
 97 10 29 19 45 59.9820000  0  7 14 15 30 29 25 21  1
  17276241.024   -28450785.44949 -21711684.27149  17276240.6174   17276246.1854
  15299473.283   -50684582.89049 -39467854.40849  15299472.7354   15299478.0144
  18997575.099   -21296355.85449 -16566845.51149  18997576.1524   18997580.3084
  15224759.877   -45690321.29049 -35242576.61749  15224759.6884   15224763.8104
  15263891.152   -50488257.95949 -39318014.80349  15263890.9684   15263894.9074
  18280554.800   -13936318.98149 -10853376.96849  18280554.1064   18280562.7634
  17198658.479   -17770223.37049 -13835403.60049  17198657.7474   17198663.2874
 97 10 29 19 46 29.9820000  0  7 14 15 30 29 25 21  1
  17241677.034   -28632420.47749 -21853218.03449  17241677.4554   17241683.3354
  15283697.909   -50767483.19949 -39532452.07949  15283697.2374   15283702.7694
  18978069.529   -21398858.26049 -16646717.50149  18978070.0654   18978075.7174
  15205456.367   -45791761.97249 -35321621.32049  15205456.3224   15205460.3784
  15246028.917   -50582124.83049 -39391157.83049  15246028.7944   15246032.8254
  18278844.374   -13945307.53349 -10860381.17749  18278843.7004   18278852.0984
  17193520.194   -17797225.54549 -13856444.29849  17193519.9344   17193525.3874
 97 10 29 19 46 59.9810000  0  7 14 15 30 29 25 21  1
  17207105.394   -28814095.47749 -21994782.94449  17207105.2394   17207110.7124
  15268015.641   -50849894.03149 -39596668.34149  15268015.0034   15268020.4304
  18958637.045   -21500977.21949 -16726290.72849  18958637.0994   18958643.3254
  15186173.472   -45893094.45349 -35400581.69449  15186173.3414   15186177.4134
  15228239.015   -50675611.48949 -39464004.58449  15228238.8104   15228242.8044
  18277148.627   -13954218.19549 -10867324.69149  18277147.7444   18277156.6904
  17188361.722   -17824333.84149 -13877567.69849  17188361.2254   17188367.0084
 97 10 29 19 47 29.9810000  0  7 14 15 30 29 25 21  1
  17172538.367   -28995746.66549 -22136329.30049  17172537.8794   17172543.4934
  15252439.850   -50931745.50249 -39660448.73949  15252439.1964   15252444.7114
  18939291.096   -21602640.79149 -16805509.10049  18939290.4124   18939297.4024
  15166924.451   -45994248.65449 -35479403.17449  15166924.3574   15166928.3724
  15210537.775   -50768632.06449 -39536488.16149  15210537.6844   15210541.6514
  18275481.872   -13962977.52349 -10874150.32849  18275481.2284   18275488.7864
  17183197.920   -17851469.71249 -13898712.58149  17183197.4504   17183203.0624
 97 10 29 19 47 59.9810000  0  7 14 15 30 29 25 21  1
  17137981.650   -29177343.20649 -22277833.06149  17137981.3424   17137987.5744
  15236973.661   -51013021.00549 -39723780.32649  15236973.0234   15236978.4554
  18920033.163   -21703841.19849 -16884366.54149  18920033.8434   18920040.1654
  15147711.943   -46095211.21149 -35558075.29449  15147711.7374   15147715.7644
  15192925.930   -50861182.92849 -39608605.72849  15192925.8064   15192929.8084
  18273848.077   -13971563.77149 -10880841.03649  18273848.0184   18273855.7314
  17178035.529   -17878598.23649 -13919851.71949  17178035.2344   17178041.0154
 97 10 29 19 48 29.9810000  0  7 14 15 30 29 25 21  1
  17103435.929   -29358882.33249 -22419292.10049  17103434.3694   17103442.3234
  15221616.871   -51093721.47249 -39786663.84049  15221616.2444   15221621.7814
  18900864.287   -21804573.91349 -16962859.56749  18900862.6554   18900870.7264
  15128533.132   -46195996.55349 -35636609.32149  15128533.0254   15128537.1584
  15175403.429   -50953264.35549 -39680357.50649  15175403.3574   15175407.2334
  18272245.811   -13979984.72549 -10887402.95449  18272245.9874   18272253.3874
  17172874.164   -17905721.53549 -13940986.79849  17172873.7374   17172879.6194
 97 10 29 19 48 59.9810000  0  7 14 15 30 29 25 21  1
  17068902.555   -29540356.44249 -22560700.46049  17068902.2654   17068908.1844
  15206372.958   -51173829.01849 -39849085.33249  15206372.2784   15206378.0234
  18881788.575   -21904817.79949 -17040971.68449  18881789.4394   18881793.4674
  15109391.452   -46296586.75849 -35714991.29649  15109391.1864   15109395.4634
  15157973.805   -51044857.63549 -39751728.90649  15157973.6634   15157977.7024
  18270676.714   -13988231.40449 -10893829.08449  18270676.4244   18270685.0554
  17167719.200   -17932811.51049 -13962095.90949  17167719.0154   17167724.6554
 97 10 29 19 49 29.9810000  0  7 14 15 30 29 25 21  1
  17034363.744   -29721858.92449 -22702130.92249  17034363.1764   17034368.9504
  15191225.082   -51253431.72649 -39911113.44949  15191224.2444   15191229.8194
  18862788.200   -22004665.63249 -17118775.19849  18862787.6044   18862792.8194
  15090268.280   -46397079.75249 -35793297.53549  15090268.1754   15090272.1864
  15140619.836   -51136053.42249 -39822790.57549  15140619.5774   15140623.6144
  18269128.738   -13996367.10249 -10900168.72449  18269128.2664   18269136.1314
  17162557.723   -17959935.47949 -13983231.52249  17162557.4294   17162562.8554
 97 10 29 19 49 59.9810000  0  7 14 15 30 29 25 21  1
  16999841.527   -29903274.32349 -22843493.54149  16999841.0854   16999847.3454
  15176194.310   -51332419.15049 -39972662.12349  15176193.7304   15176199.2104
  18843883.689   -22104010.47149 -17196186.75149  18843884.5204   18843888.5824
  15071184.078   -46497367.86949 -35871444.12349  15071183.8964   15071187.9984
  15123361.873   -51226744.73349 -39893459.15249  15123361.7844   15123365.7704
  18267622.014   -14004284.97149 -10906338.65449  18267623.1284   18267630.1144
  17157411.590   -17986978.82349 -14004304.30249  17157411.0124   17157416.6774
 97 10 29 19 50 29.9810000  0  7 14 15 30 29 25 21  1
  16965339.305   -30084584.65049 -22984774.28049  16965339.2304   16965344.7144
  15161287.258   -51410756.53049 -40033704.26949  15161286.6404   15161292.2494
  18825082.274   -22202813.27249 -17273175.93049  18825081.6874   18825087.4294
  15052145.787   -46597414.71449 -35949402.69149  15052145.6964   15052149.8264
  15106210.131   -51316877.80049 -39963692.72449  15106209.8794   15106214.0194
  18266161.862   -14011958.36149 -10912318.07349  18266160.9504   18266169.1234
  17152283.316   -18013928.06049 -14025303.74849  17152282.5824   17152288.4304
 97 10 29 19 50 59.9810000  0  7 14 15 30 29 25 21  1
  16930862.415   -30265761.57249 -23125951.07149  16930861.8084   16930867.5094
  15146508.419   -51488420.10049 -40094221.37049  15146507.7414   15146513.2064
  18806387.071   -22301056.68349 -17349729.24249  18806387.4094   18806393.3004
  15033159.704   -46697187.29249 -36027147.57649  15033159.5104   15033163.7964
  15089168.418   -51406432.82949 -40033475.87749  15089168.2664   15089172.1824
  18264754.359   -14019355.13549 -10918081.93749  18264753.6644   18264762.1964
  17147175.105   -18040772.09149 -14046221.23449  17147174.8084   17147179.8234
 97 10 29 19 51 29.9810000  0  7 14 15 30 29 25 21  1
  16896406.028   -30446830.78449 -23267043.93549  16896405.4624   16896411.7314
  15131850.471   -51565448.38949 -40154243.45449  15131849.6884   15131855.2014
  18787790.279   -22398784.06749 -17425880.46549  18787789.9044   18787795.5754
  15014220.513   -46796713.65549 -36104700.58649  15014220.3024   15014224.4624
  15072229.983   -51495444.86949 -40102835.92549  15072229.8124   15072234.0164
  18263391.541   -14026517.78649 -10923663.33849  18263391.7074   18263399.0354
  17142077.390   -18067560.81049 -14067095.60949  17142077.1974   17142082.1294
 97 10 29 19 51 59.9810000  0  7 14 15 30 29 25 21  1
  16861978.470   -30627748.52049 -23408018.77149  16861978.0464   16861984.2504
  15117320.987   -51641801.28249 -40213739.25449  15117320.3074   15117325.8294
  18769301.924   -22495941.03649 -17501587.20449  18769300.2644   18769307.5134
  14995336.284   -46895950.77349 -36182028.21249  14995336.2554   14995340.2724
  15055401.662   -51583878.35849 -40171745.14949  15055401.5324   15055405.5864
  18262077.669   -14033422.59149 -10929043.83749  18262077.3274   18262086.2904
  17136994.324   -18094272.73349 -14087910.14349  17136993.3164   17137000.3614
 97 10 29 19 52 29.9810000  0  7 14 15 30 29 25 21  1
  16827567.740   -30808577.83049 -23548924.69649  16827567.5974   16827573.3604
  15102909.157   -51717536.26449 -40272753.56749  15102908.5044   15102914.1984
  18750911.350   -22592583.16549 -17576892.77149  18750912.0744   18750916.7994
  14976496.106   -46994956.79449 -36259175.78849  14976496.0684   14976500.0984
  15038671.072   -51671798.21849 -40240254.14649  15038670.9554   15038674.8354
  18260802.650   -14040122.53349 -10934264.73749  18260801.2904   18260811.4264
  17131914.869   -18120965.82349 -14108709.99249  17131914.2934   17131920.3344
 97 10 29 19 52 59.9810000  0  7 14 15 30 29 25 21  1
  16793180.367   -30989284.82349 -23689735.31549  16793180.1434   16793186.1244
  15088615.706   -51792649.11949 -40331283.10149  15088615.2394   15088620.7524
  18732619.269   -22688709.01449 -17651796.03049  18732619.5774   18732625.8944
  14957699.792   -47093732.22049 -36336143.63849  14957699.7104   14957703.7754
  15022036.075   -51759215.81749 -40308371.76949  15022035.8914   15022039.8984
  18259567.756   -14046611.94549 -10939321.57949  18259568.0644   18259576.0124
  17126843.702   -18147615.25549 -14129475.83849  17126843.2434   17126848.7404
 97 10 29 19 53 29.9810000  0  7 14 15 30 29 25 21  1
  16758821.361   -31169842.74149 -23830429.78149  16758821.0504   16758827.1414
  15074446.547   -51867108.67149 -40389303.56949  15074445.9384   15074451.4734
  18714432.001   -22784284.00149 -17726270.04349  18714431.4094   18714438.6994
  14938951.478   -47192255.32449 -36412914.92549  14938951.3494   14938955.3874
  15005502.589   -51846099.91249 -40376073.67549  15005502.4874   15005506.5204
  18258378.122   -14052864.29349 -10944193.73549  18258377.6484   18258386.1424
  17121789.618   -18174174.93049 -14150171.73449  17121789.0724   17121794.6754
 97 10 29 19 53 59.9810000  0  7 14 15 30 29 25 21  1
  16724486.493   -31350273.51649 -23971025.17449  16724485.9994   16724491.6394
  15060399.214   -51940928.16549 -40446825.29449  15060398.5334   15060404.0774
  18696346.637   -22879323.02749 -17800326.45949  18696346.5494   18696352.2554
  14920247.811   -47290543.74449 -36489503.30349  14920247.6874   14920251.8634
  14989067.008   -51932469.61149 -40443374.75249  14989066.8154   14989070.8664
  18257231.679   -14058889.38649 -10948888.82849  18257231.7814   18257240.8084
  17116752.821   -18200643.59349 -14170796.71349  17116752.4694   17116758.5314
 97 10 29 19 54 29.9810000  0  7 14 15 30 29 25 21  1
  16690161.991   -31530650.08649 -24111578.31949  16690161.9514   16690167.9864
  15046459.235   -52014183.25949 -40503907.22449  15046458.8134   15046464.2524
  18678346.847   -22973912.38549 -17874032.45149  18678346.9194   18678352.6134
  14901576.069   -47388664.29249 -36565960.89449  14901575.9244   14901580.1104
  14972715.854   -52018395.45049 -40510329.96549  14972715.7154   14972719.7324
  18256115.195   -14064758.50449 -10953462.32049  18256115.1144   18256123.2804
  17111721.082   -18227085.69049 -14191400.97349  17111720.7224   17111726.4414
 97 10 29 19 54 59.9800000  0  7 14 15 30 29 25 21  1
  16655858.848   -31710914.57749 -24252044.13449  16655858.8594   16655864.5134
  15032635.933   -52086825.37349 -40560511.50749  15032635.1434   15032640.8854
  18660443.646   -23067994.28249 -17947343.03249  18660443.9434   18660449.4434
  14882946.937   -47486560.99449 -36642244.05349  14882946.7304   14882950.8994
  14956459.425   -52103823.56449 -40576897.33649  14956459.2294   14956463.1464
  18255035.912   -14070431.08449 -10957882.68949  18255036.4014   18255043.5364
  17106703.417   -18253453.63349 -14211947.45849  17106702.5264   17106708.6864
 97 10 29 19 55 29.9800000  0  7 14 15 30 29 25 21  1
  16621576.933   -31891067.24949 -24392422.81549  16621577.1724   16621582.1124
  15018933.833   -52158830.45749 -40616619.40749  15018933.1894   15018938.6694
  18642642.486   -23161539.98349 -18020235.80849  18642641.2784   18642649.7374
  14864367.312   -47584197.58449 -36718324.53049  14864367.2134   14864371.4574
  14940302.930   -52188726.50249 -40643055.48449  14940302.7544   14940306.7574
  18253998.857   -14075881.45049 -10962129.88749  18253998.8204   18254007.2204
  17101705.611   -18279717.23249 -14232412.63649  17101704.9864   17101710.7054
 97 10 29 19 55 59.9800000  0  7 14 15 30 29 25 21  1
  16587315.443   -32071112.49849 -24532717.79649  16587314.7314   16587320.9984
  15005348.024   -52230224.53249 -40672251.20149  15005347.4344   15005352.8864
  18624939.778   -23254568.12049 -18092725.25849  18624940.0924   18624946.6114
  14845832.842   -47681597.00249 -36794220.18949  14845832.6644   14845836.8614
  14924242.302   -52273125.72949 -40708821.12849  14924242.1824   14924246.2174
  18252997.377   -14081145.58149 -10966231.96949  18252996.9734   18253005.7634
  17096722.657   -18305902.71849 -14252816.96549  17096722.2554   17096727.1594
 97 10 29 19 56 29.9800000  0  7 14 15 30 29 25 21  1
  16553071.702   -32251064.42949 -24672940.04749  16553071.0874   16553076.8274
  14991871.457   -52301044.50349 -40727435.63849  14991870.7744   14991876.4014
  18607331.910   -23347098.26449 -18164826.68049  18607331.8424   18607337.5654
  14827335.992   -47778798.60649 -36869961.70949  14827335.8294   14827339.8384
  14908271.752   -52357051.64449 -40774217.95549  14908271.5784   14908275.5194
  18252026.641   -14086247.22749 -10970207.44349  18252027.3544   18252035.6594
  17091746.889   -18332050.47949 -14273191.89649  17091746.3004   17091752.8534
 97 10 29 19 56 59.9800000  0  7 14 15 30 29 25 21  1
  16518860.029   -32430847.78449 -24813030.95149  16518859.5224   16518865.5644
  14978516.589   -52371225.03549 -40782121.81149  14978515.8294   14978521.4714
  18589832.663   -23439057.61949 -18236483.35049  18589832.1774   18589838.5284
  14808889.210   -47875737.03049 -36945498.15649  14808889.0894   14808893.1944
  14892404.127   -52440436.52049 -40839193.19449  14892403.8334   14892407.7644
  18251099.268   -14091121.38049 -10974005.67949  18251099.4974   18251108.4514
  17086790.621   -18358096.13549 -14293487.25349  17086790.0414   17086795.8464
 97 10 29 19 57 29.9800000  0  7 14 15 30 29 25 21  1
  16484685.352   -32610436.61349 -24952970.27249  16484685.0104   16484690.3684
  14965287.117   -52440746.40649 -40836294.34949  14965286.4084   14965292.0544
  18572446.389   -23530422.46549 -18307676.74249  18572445.6834   18572451.4454
  14790495.511   -47972396.66749 -37020817.36749  14790495.5634   14790499.5974
  14876643.935   -52523256.91649 -40903728.57449  14876643.7744   14876647.9384
  18250219.807   -14095743.70549 -10977607.67749  18250219.6364   18250228.8364
  17081856.874   -18384023.46349 -14313690.40249  17081857.0164   17081862.4914
 97 10 29 19 57 59.9800000  0  7 14 15 30 29 25 21  1
  16450531.901   -32789914.14849 -25092822.87849  16450531.2444   16450536.9944
  14952165.842   -52509699.23049 -40890023.86549  14952165.2114   14952170.9654
  18555156.951   -23621278.94549 -18378474.01049  18555157.2824   18555162.5674
  14772135.697   -48068878.46049 -37095997.99949  14772135.6734   14772139.8934
  14860974.825   -52605598.64849 -40967890.97549  14860974.7614   14860978.7104
  18249372.698   -14100196.05649 -10981077.23849  18249372.2424   18249379.7884
  17076925.362   -18409939.01649 -14333884.40149  17076925.2214   17076930.2104
 97 10 29 19 58 29.9800000  0  7 14 15 30 29 25 21  1
  16416400.788   -32969274.39649 -25232584.09649  16416400.4424   16416406.5784
  14939156.855   -52578061.95949 -40943293.56049  14939156.2574   14939161.9344
  18537967.789   -23711609.30249 -18448861.31949  18537967.7824   18537972.2384
  14753814.197   -48165158.55649 -37171021.44349  14753814.0674   14753818.2864
  14845400.832   -52687440.58849 -41031663.91749  14845400.5134   14845404.6004
  18248564.749   -14104442.48249 -10984386.34649  18248565.2314   18248573.7254
  17071998.293   -18435831.18549 -14354060.15549  17071997.0224   17072003.6004
 97 10 29 19 58 59.9800000  0  7 14 15 30 29 25 21  1
  16382281.504   -33148572.63749 -25372296.99949  16382281.2434   16382286.5824
  14926254.772   -52645862.86949 -40996125.47749  14926254.3294   14926259.9634
  18520870.637   -23801456.26549 -18518871.94249  18520871.3984   18520876.1694
  14735526.714   -48261259.85849 -37245905.58949  14735526.4274   14735530.6814
  14829915.428   -52768816.77549 -41095073.94449  14829915.2134   14829919.3264
  18247787.996   -14108525.24149 -10987567.90549  18247787.1204   18247797.1064
  17067067.628   -18461742.31749 -14374250.70249  17067067.8354   17067072.8994
 97 10 29 19 59 29.9800000  0  7 14 15 30 29 25 21  1
  16348192.325   -33327712.09849 -25511886.17449  16348191.9024   16348197.9244
  14913478.593   -52713002.50849 -41048442.12249  14913477.8344   14913483.6724
  18503884.182   -23890721.19249 -18588429.05449  18503884.5574   18503890.7774
  14717291.070   -48357088.80449 -37320577.49249  14717290.8924   14717294.9114
  14814537.448   -52849628.79849 -41158044.35949  14814537.2694   14814541.4324
  18247061.231   -14112344.93849 -10990544.48649  18247060.8734   18247069.9174
  17062150.613   -18487581.83949 -14394385.44949  17062150.2794   17062156.3944
 97 10 29 19 59 59.9800000  0  7 14 15 30 29 25 21  1
  16314125.352   -33506735.39849 -25651384.83549  16314124.7764   16314131.0454
  14900818.213   -52779533.49249 -41100284.48449  14900817.4494   14900823.4494
  18486996.510   -23979467.02249 -18657581.64149  18486995.9894   18487002.2074
  14699096.660   -48452701.26349 -37395080.69749  14699096.5174   14699100.5294
  14799256.414   -52929931.24849 -41220617.70149  14799256.2784   14799260.4854
  18246375.074   -14115950.76849 -10993354.41949  18246374.0184   18246382.3504
  17057237.927   -18513398.44249 -14414502.33149  17057237.4904   17057242.6534
 97 10 29 20  0 29.9800000  0  8 14 15 30 29 25 22 21  1
  16280079.215   -33685648.80249 -25790797.85049  16280078.5764   16280084.9164
  14888273.617   -52845455.99949 -41151652.71849  14888273.1434   14888278.7694
  18470206.162   -24067701.15949 -18726335.52349  18470205.8734   18470209.7154
  14680944.439   -48548091.93549 -37469411.10349  14680944.3544   14680948.4464
  14784071.785   -53009727.10749 -41282796.31449  14784071.7604   14784075.4694
  18560107.580   -11505559.47949  -6245674.50149  18560106.7054   18560117.1944
  18245728.666   -14119348.40249 -10996002.10749  18245728.1154   18245735.0714
  17052329.469   -18539192.31749 -14434601.51649  17052329.1684   17052334.2544
 97 10 29 20  0 59.9800000  0  8 14 15 30 29 25 22 21  1
  16246045.769   -33864495.48149 -25930158.87249  16246044.9974   16246050.9594
  14875833.237   -52910830.98049 -41202594.29649  14875832.7454   14875838.4434
  18453501.450   -24155484.49149 -18794738.13449  18453501.2874   18453506.1304
  14662822.452   -48643323.69049 -37543617.67149  14662822.2894   14662826.4254
  14768970.955   -53089082.64449 -41344631.80949  14768970.7644   14768974.9904
  18523005.402   -11700532.62449  -6397601.55149  18523004.3614   18523014.0264
  18245107.812   -14122610.72949 -10998544.31849  18245106.2564   18245114.0944
  17047415.074   -18565017.75549 -14454725.28049  17047414.9404   17047420.3314
 97 10 29 20  1 29.9800000  0  8 14 15 30 29 25 22 21  1
  16212053.375   -34043126.70749 -26069352.02049  16212052.8494   16212058.3944
  14863519.754   -52975538.85849 -41253016.06149  14863519.2204   14863524.8864
  18436906.007   -24242694.21049 -18862693.76349  18436906.9654   18436912.3194
  14644751.868   -48738285.27049 -37617613.71649  14644751.7894   14644755.8764
  14753976.145   -53167881.03849 -41406033.16649  14753976.1654   14753980.0594
  18485906.218   -11895490.51949  -6549516.70649  18485905.4044   18485914.9834
  18244536.981   -14125610.58149 -11000882.04949  18244537.8494   18244545.6064
  17042521.208   -18590735.74649 -14474765.33049  17042520.9184   17042526.1964
 97 10 29 20  1 59.9800000  0  8 14 15 30 29 25 22 21  1
  16178085.161   -34221630.83349 -26208446.12049  16178084.8354   16178090.3754
  14851317.427   -53039662.84449 -41302982.84749  14851316.8274   14851322.4424
  18420404.191   -24329411.32349 -18930265.54349  18420404.4694   18420409.9614
  14626716.302   -48833062.83649 -37691466.37349  14626716.0654   14626720.4104
  14739070.703   -53246209.54049 -41467068.37349  14739070.5444   14739074.6044
  18448794.340   -12090514.76449  -6701483.54849  18448793.3464   18448802.9884
  18244002.255   -14128422.20549 -11003073.10949  18244001.5814   18244011.8894
  17037633.637   -18616420.25549 -14494779.28849  17037633.3424   17037638.7884
 97 10 29 20  2 29.9800000  0  8 14 15 30 29 25 22 21  1
  16144148.244   -34399970.41149 -26347412.00349  16144147.6094   16144153.4914
  14839233.154   -53103166.23849 -41352466.04249  14839232.3434   14839238.2964
  18404006.219   -24415583.22749 -18997412.48849  18404006.8414   18404011.0914
  14608723.632   -48927614.81849 -37765143.25049  14608723.5414   14608727.7114
  14724261.598   -53324031.84049 -41527709.12949  14724261.3364   14724265.4764
  18411675.190   -12285577.22649  -6853480.15349  18411673.7634   18411683.5594
  18243509.700   -14131011.45149 -11005090.91349  18243509.9514   18243518.5934
  17032760.798   -18642027.51549 -14514733.04749  17032760.2754   17032766.5014
 97 10 29 20  2 59.9790000  0  8 14 15 30 29 25 22 21  1
  16110235.850   -34578181.15849 -26486277.51549  16110235.3864   16110241.0824
  14827256.073   -53166106.47649 -41401510.42549  14827255.3654   14827261.3464
  18387702.131   -24501261.70549 -19064174.94549  18387701.7894   18387709.3634
  14590762.894   -49021999.00949 -37838689.37749  14590762.7054   14590766.9424
  14709538.746   -53401401.10049 -41587996.87549  14709538.5584   14709542.7394
  18374537.645   -12480736.05549  -7005551.82849  18374535.3544   18374546.9484
  18243047.803   -14133439.32049 -11006982.93249  18243047.5214   18243056.9564
  17027894.141   -18667602.30349 -14534661.49949  17027893.1754   17027900.1944
 97 10 29 20  3 29.9790000  0  8 14 15 30 29 25 22 21  1
  16076345.680   -34756275.62449 -26625052.41349  16076345.4384   16076350.7754
  14815384.584   -53228491.67549 -41450122.31149  14815383.7634   14815389.6484
  18371492.034   -24586446.14249 -19130552.45249  18371491.4714   18371498.0794
  14572833.274   -49116219.93549 -37912108.28449  14572833.2274   14572837.2604
  14694903.261   -53478311.13849 -41647926.78349  14694903.0204   14694907.1154
  18337380.257   -12675998.54349  -7157704.26949  18337378.2974   18337388.2834
  18242616.483   -14135706.59249 -11008749.82049  18242616.5394   18242626.5634
  17023032.942   -18693148.31449 -14554567.53749  17023032.0704   17023038.5444
 97 10 29 20  3 59.9790000  0  8 14 15 30 29 25 22 21  1
  16042497.773   -34934147.43849 -26763653.81949  16042497.7604   16042502.9594
  14803638.874   -53290215.71949 -41498219.00249  14803638.3444   14803643.8004
  18355399.052   -24671015.18549 -19196450.41849  18355398.4324   18355405.6864
  14554957.215   -49210159.41049 -37985307.88049  14554957.2034   14554961.1264
  14680375.882   -53554653.18249 -41707414.09749  14680375.6774   14680379.8904
  18300224.774   -12871251.35249  -7309849.17749  18300223.3094   18300232.8954
  18242233.220   -14137721.22449 -11010319.84549  18242233.6744   18242242.5184
  17018196.291   -18718565.25649 -14574372.99349  17018195.4284   17018201.8724
 97 10 29 20  4 29.9790000  0  8 14 15 30 29 25 22 21  1
  16008674.284   -35111890.94049 -26902155.22549  16008673.9164   16008679.5214
  14791997.737   -53351390.71349 -41545887.86749  14791997.1334   14792003.0814
  18339401.126   -24755084.77349 -19261959.18349  18339400.9374   18339407.0794
  14537116.483   -49303913.16549 -38058362.75649  14537116.4044   14537120.3894
  14665935.997   -53630535.27049 -41766543.00449  14665935.7844   14665939.9564
  18263049.992   -13066605.49649  -7462073.04349  18263049.5844   18263059.5924
  18241874.948   -14139604.97749 -11011787.89149  18241874.5534   18241884.7364
  17013361.277   -18743973.43149 -14594171.62349  17013360.9454   17013367.0714
 97 10 29 20  4 59.9790000  0  7 14 15 30 29 25 22  1
  15974887.708   -35289440.66649 -27040505.62749  15974887.2164   15974893.2294
  14780473.122   -53411953.18849 -41593079.43749  14780472.4224   14780478.3054
  18323508.792   -24838599.62949 -19327035.71449  18323507.1404   18323513.7594
  14519324.101   -49397412.66849 -38131219.51649  14519323.9014   14519328.1714
  14651595.282   -53705896.01649 -41825265.66949  14651595.0624   14651599.1804
  18225869.678   -13261988.25249  -7614319.21749  18225867.7644   18225878.3324
  17008537.542   -18769322.68849 -14613924.33549  17008536.5354   17008542.6074
 97 10 29 20  5 29.9790000  0  7 14 15 30 29 25 22  1
  15941125.542   -35466861.86949 -27178755.90249  15941125.3094   15941130.8764
  14769053.381   -53471964.45849 -41639841.50149  14769052.7884   14769058.5944
  18307712.577   -24921608.95149 -19391718.28449  18307713.1444   18307718.6614
  14501568.012   -49490721.50049 -38203927.70449  14501567.7644   14501572.1024
  14637339.798   -53780809.28549 -41883639.65549  14637339.8114   14637343.7324
  18188675.666   -13457443.22149  -7766621.66149  18188674.5834   18188684.1524
  17003711.579   -18794683.05549 -14633685.70549  17003711.3164   17003716.9174
 97 10 29 20  5 59.9790000  0  7 14 15 30 29 25 22  1
  15907398.401   -35644099.11149 -27316862.83749  15907397.8484   15907403.9514
  14757749.908   -53531364.56849 -41686127.33849  14757749.1134   14757755.1244
  18292022.396   -25004061.71149 -19455967.20149  18292022.8764   18292028.2914
  14483859.162   -49583782.04549 -38276442.41749  14483859.0534   14483863.2894
  14623179.502   -53855222.18249 -41941623.73449  14623179.3544   14623183.4524
  18151479.758   -13652909.17849  -7918932.64249  18151477.9834   18151488.5754
  16998893.532   -18820002.52849 -14653415.22749  16998892.9014   16998899.0914
 97 10 29 20  6 29.9790000  0  7 14 15 30 29 25 22  1
  15873694.671   -35821213.06649 -27454873.67749  15873694.1304   15873699.7294
  14746550.939   -53590215.57249 -41731985.29449  14746550.4264   14746556.0574
  18276423.357   -25086035.56949 -19519842.93549  18276423.4154   18276430.3984
  14466186.379   -49676653.05649 -38348809.44649  14466186.3784   14466190.3404
  14609104.662   -53929186.09749 -41999257.95949  14609104.5174   14609108.5394
  18114272.354   -13848434.41349  -8071289.80249  18114270.3224   18114281.2644
  16994069.985   -18845350.86349 -14673167.21949  16994070.3504   16994074.9594
 97 10 29 20  6 59.9790000  0  7 14 15 30 29 25 22  1
  15840018.859   -35998180.64549 -27592770.46449  15840018.2044   15840023.8284
  14735462.767   -53648484.52149 -41777389.70049  14735462.1524   14735468.0684
  18260923.198   -25167489.89549 -19583313.83649  18260923.1564   18260928.5294
  14448554.163   -49769311.20749 -38421010.60849  14448553.9644   14448558.2184
  14595121.131   -54002670.00949 -42056518.15949  14595121.0884   14595125.0834
  18077062.652   -14043972.09249  -8223656.65049  18077060.9514   18077071.2674
  16989248.785   -18870686.65049 -14692909.44049  16989248.3684   16989254.2574
 97 10 29 20  7 29.9790000  0  7 14 15 30 29 25 22  1
  15806362.844   -36175043.98949 -27730586.04149  15806362.5434   15806368.0594
  14724478.442   -53706207.73049 -41822368.85749  14724477.8464   14724483.7004
  18245516.873   -25248450.63049 -19646400.12849  18245518.3214   18245521.6344
  14430954.956   -49861795.70749 -38493076.45049  14430954.7984   14430959.0364
  14581222.940   -54075705.81449 -42113429.18349  14581222.8004   14581226.7714
  18039843.314   -14239560.75849  -8376063.24349  18039842.1674   18039851.8824
  16984426.762   -18896026.70549 -14712654.98149  16984425.8474   16984432.6174
 97 10 29 20  7 59.9790000  0  7 14 15 30 29 25 22  1
  15772728.665   -36351792.66449 -27868312.27749  15772728.1684   15772734.0074
  14713599.778   -53763375.67449 -41866915.33949  14713599.0974   14713604.8524
  18230204.164   -25328918.89449 -19709102.64249  18230203.8134   18230209.9534
  14413393.212   -49954083.42649 -38564988.96149  14413393.1364   14413397.2074
  14567413.621   -54148274.21249 -42169975.99749  14567413.6394   14567417.5764
  18002615.505   -14435193.62349  -8528504.24149  18002613.7604   18002623.1344
  16979607.972   -18921350.02449 -14732387.48749  16979607.5224   16979613.7514
 97 10 29 20  8 29.9790000  0  7 14 15 30 29 25 22  1
  15739123.448   -36528389.36349 -28005920.06449  15739122.8724   15739128.5974
  14702834.210   -53819949.37549 -41910998.77149  14702833.6404   14702839.3284
  18214994.114   -25408848.03249 -19771385.08949  18214993.5724   18214999.7434
  14395875.651   -50046138.68549 -38636720.32549  14395875.3934   14395879.3414
  14553699.043   -54220345.07249 -42226135.11049  14553698.7944   14553702.8264
  17965386.455   -14630832.56549  -8680949.96949  17965384.5734   17965394.3054
  16974803.958   -18946595.49449 -14752059.32149  16974803.2584   16974808.9174
 97 10 29 20  8 59.9790000  0  7 14 15 30 29 25 22  1
  15705542.171   -36704860.00649 -28143429.60949  15705541.7404   15705547.7684
  14692177.121   -53875952.81249 -41954637.84549  14692176.5584   14692182.2474
  18199886.177   -25488241.21649 -19833249.90749  18199887.1504   18199892.9314
  14378395.236   -50137998.89749 -38708299.70849  14378395.0644   14378399.1734
  14540071.299   -54291959.21149 -42281938.33949  14540071.0984   14540075.2104
  17928151.338   -14826503.41049  -8833420.52349  17928150.7694   17928160.5234
  16970014.577   -18971764.04149 -14771671.22749  16970014.3144   16970020.3344
 97 10 29 20  9 29.9790000  0  7 14 15 30 29 25 22  1
  15671979.268   -36881234.30849 -28280864.08249  15671979.0454   15671984.8634
  14681619.474   -53931433.87249 -41997869.87749  14681619.0074   14681624.6404
  18184870.113   -25567150.83949 -19894737.93049  18184869.0774   18184875.2784
  14360942.227   -50229715.06149 -38779766.85349  14360942.1674   14360946.3214
  14526521.787   -54363162.26149 -42337421.25149  14526521.4984   14526525.7514
  17890901.474   -15022252.38449  -8985951.94149  17890899.9084   17890909.0804
  16965231.096   -18996901.62249 -14791259.01849  16965230.2854   16965236.3374
 97 10 29 20  9 59.9790000  0  7 14 15 30 29 25 22  1
  15638446.034   -37057452.63849 -28418177.03649  15638445.8494   15638451.7744
  14671169.333   -53986349.83149 -42040661.56549  14671168.4514   14671174.5694
  18169950.638   -25645552.85249 -19955830.38149  18169950.9254   18169956.3384
  14343524.402   -50321246.36249 -38851089.94849  14343524.3454   14343528.5374
  14513058.238   -54433913.53949 -42392552.13349  14513057.9394   14513062.0874
  17853647.060   -15218024.65549  -9138501.49149  17853645.8984   17853655.1164
  16960458.228   -19021983.30849 -14810803.22449  16960456.9904   16960463.3244
 97 10 29 20 10 29.9790000  0  7 14 15 30 29 25 22  1
  15604950.239   -37233474.18749 -28555336.65749  15604949.8584   15604955.5814
  14660831.795   -54040674.20349 -42082992.27649  14660831.2784   14660836.8394
  18155133.724   -25723416.06549 -20016502.98849  18155133.6534   18155140.0244
  14326144.627   -50412577.79249 -38922257.30549  14326144.4774   14326148.6034
  14499685.775   -54504186.31049 -42447310.15149  14499685.6374   14499689.7004
  17816393.723   -15413792.15949  -9291047.32849  17816392.1584   17816401.4664
  16955699.520   -19046990.80049 -14830289.63149  16955699.1344   16955704.7334
 97 10 29 20 10 59.9780000  0  7 14 15 30 29 25 22  1
  15571491.025   -37409303.61849 -28692346.57649  15571490.4124   15571496.3504
  14650603.626   -54094423.79749 -42124875.10649  14650603.0494   14650608.8584
  18140416.375   -25800756.79549 -20076768.48449  18140416.4514   18140424.4194
  14308801.200   -50503718.10249 -38993275.73349  14308801.0334   14308805.2744
  14486405.294   -54573975.85049 -42501691.62749  14486405.2204   14486409.3444
  17779142.655   -15609547.20549  -9443583.44249  17779140.8774   17779149.9534
  16950947.445   -19071963.01949 -14849748.54149  16950947.0344   16950952.0334
 97 10 29 20 11 29.9780000  0  7 14 15 30 29 25 22  1
  15538058.060   -37584995.07249 -28829248.98649  15538057.4374   15538063.1234
  14640473.350   -54147659.04249 -42166357.14949  14640472.7324   14640478.3304
  18125784.433   -25877647.92149 -20136683.63149  18125784.1814   18125791.2204
  14291486.074   -50594709.65049 -39064178.24549  14291485.9504   14291490.0814
  14473207.899   -54643328.60249 -42555732.75249  14473207.6074   14473211.6444
  17741883.293   -15805345.82649  -9596153.51549  17741881.5914   17741891.0164
  16946187.313   -19096977.82349 -14869240.65149  16946186.6594   16946192.8734
 97 10 29 20 11 59.9780000  0  7 14 15 30 29 25 22  1
  15504653.791   -37760535.26249 -28966033.52249  15504653.0624   15504658.9664
  14630444.443   -54200361.78549 -42207424.24849  14630443.7154   14630449.4434
  18111244.452   -25954056.15449 -20196222.50149  18111244.7564   18111251.3644
  14274206.118   -50685516.49249 -39134936.82549  14274206.1834   14274210.2184
  14460097.530   -54712223.85349 -42609417.36949  14460097.2934   14460101.4744
  17704620.638   -16001161.24449  -9748736.65749  17704618.5884   17704628.0184
  16941423.034   -19122014.76449 -14888750.00049  16941421.8784   16941428.3994
 97 10 29 20 12 29.9780000  0  8 14 15 30 29 25 22 16  1
  15471277.737   -37935927.20749 -29102702.54749  15471277.2284   15471282.8724
  14620516.636   -54252532.77849 -42248077.00649  14620515.9074   14620521.8124
  18096801.370   -26029954.49149 -20255364.05049  18096801.2654   18096807.0904
  14256963.838   -50776125.34449 -39205541.12549  14256963.5894   14256967.8114
  14447073.361   -54780666.57949 -42662749.37749  14447073.3494   14447077.4164
  17667354.629   -16196994.37849  -9901333.60449  17667352.6764   17667362.4734
  18277129.992    -7613850.35049  -5895943.17549  18277128.8274   18277136.8394
  16936655.270   -19147068.94349 -14908272.79649  16936654.6684   16936659.8884
 97 10 29 20 12 59.9780000  0  8 14 15 30 29 25 22 16  1
  15437937.127   -38111132.99049 -29239226.51249  15437936.3194   15437942.2984
  14610697.812   -54304131.13449 -42288283.55149  14610697.1954   14610702.7484
  18082465.249   -26105291.23049 -20314067.99549  18082464.9504   18082471.3084
  14239769.205   -50866483.62449 -39275950.18749  14239769.0834   14239773.2094
  14434140.972   -54848627.01049 -42715705.57449  14434140.9024   14434144.9734
  17630094.048   -16392798.98049 -10053908.32549  17630092.7914   17630101.0814
  18239917.437    -7809403.27649  -6048321.99649  18239916.0394   18239924.3824
  16931893.244   -19172093.93349 -14927772.84049  16931892.7954   16931898.2414
 97 10 29 20 13 29.9780000  0  8 14 15 30 29 25 22 16  1
  15404628.494   -38286170.89149 -29375619.65749  15404628.1484   15404633.8104
  14600981.548   -54355190.52449 -42328070.12349  14600980.5614   14600986.6014
  18068228.832   -26180104.35849 -20372363.93549  18068228.5264   18068235.3354
  14222616.438   -50956621.94149 -39346187.84549  14222616.2784   14222620.5364
  14421290.728   -54916155.73349 -42768325.36949  14421290.6584   14421294.8094
  17592829.691   -16588622.95049 -10206498.14349  17592828.2284   17592836.9884
  18202700.637    -8004978.38349  -6200718.08749  18202699.2344   18202708.0264
  16927133.292   -19197107.96049 -14947264.33949  16927133.7694   16927138.8564
 97 10 29 20 13 59.9780000  0  8 14 15 30 29 25 22 16  1
  15371359.331   -38461001.82049 -29511851.53149  15371358.8604   15371364.5614
  14591374.657   -54405674.97349 -42367408.69349  14591374.1624   14591379.8694
  18054099.513   -26254354.35049 -20430221.08049  18054099.1574   18054105.7924
  14205508.911   -51046522.75949 -39416240.43949  14205508.9814   14205513.0934
  14408528.596   -54983221.40549 -42820584.33549  14408528.5834   14408532.6954
  17555567.483   -16784436.50549 -10359079.86349  17555566.0054   17555574.8614
  18165483.540    -8200554.63849  -6353115.09449  18165482.9684   18165490.3544
  16922384.240   -19222064.70449 -14966711.21349  16922383.6484   16922390.5104
 97 10 29 20 14 29.9780000  0  8 14 15 30 29 25 22 16  1
  15338129.524   -38635625.67549 -29647922.04149  15338129.3844   15338134.9954
  14581875.700   -54455592.49749 -42406305.49949  14581875.0584   14581880.7224
  18040073.891   -26328060.29749 -20487654.27549  18040073.9974   18040079.9844
  14188442.842   -51136205.52549 -39486123.12049  14188442.8154   14188447.0354
  14395853.840   -55049827.73049 -42872485.37349  14395853.7484   14395857.9134
  17518306.856   -16980241.75849 -10511655.12049  17518305.5494   17518313.7804
  18128262.229    -8396153.12249  -6505529.37849  18128261.3664   18128269.9494
  16917644.662   -19246971.28649 -14986118.99849  16917644.8584   16917650.0324
 97 10 29 20 14 59.9780000  0  8 14 15 30 29 25 22 16  1
  15304940.197   -38810036.57249 -29783826.61749  15304939.7214   15304945.5914
  14572482.539   -54504953.92349 -42444768.98349  14572481.7214   14572487.3874
  18026145.499   -26401254.64049 -20544688.82349  18026146.2694   18026151.0724
  14171412.101   -51225702.71549 -39555861.19349  14171412.0264   14171416.0434
  14383267.232   -55115970.55649 -42924025.23349  14383266.9914   14383271.1224
  17481048.915   -17176032.72549 -10664219.25049  17481047.3734   17481055.2994
  18091035.293    -8591781.50149  -6657966.96349  18091034.4574   18091043.3784
  16912914.605   -19271828.21449 -15005488.08749  16912915.0034   16912920.1714
 97 10 29 20 15 29.9780000  0  8 14 15 30 29 25 22 16  1
  15271793.869   -38984221.63149 -29919555.21049  15271793.4074   15271799.0614
  14563197.024   -54553749.74249 -42482791.73749  14563196.2794   14563202.1244
  18012314.525   -26473937.09549 -20601324.50549  18012314.2344   18012320.7104
  14154417.188   -51315011.78049 -39625452.68149  14154417.1214   14154421.1494
  14370774.000   -55181623.06549 -42975183.03649  14370773.6804   14370778.0124
  17443798.736   -17371782.88349 -10816751.61149  17443796.3314   17443806.0944
  18053804.649    -8787429.37849  -6810419.74249  18053802.9324   18053812.2214
  16908195.833   -19296626.11749 -15024811.18249  16908195.6104   16908201.6724
 97 10 29 20 15 59.9780000  0  8 14 15 30 29 25 22 16  1
  15238682.291   -39158223.90049 -30055141.36749  15238681.6304   15238687.3164
  14554014.004   -54602006.95649 -42520394.80249  14554013.1264   14554019.3364
  17998577.943   -26546122.65549 -20657572.99749  17998578.3734   17998584.3264
  14137451.844   -51404165.29949 -39694922.96149  14137451.6564   14137455.8494
  14358368.722   -55246813.23649 -43025980.58649  14358368.5684   14358372.6694
  17406554.352   -17567502.32149 -10969260.05349  17406554.2234   17406561.1644
  18016566.265    -8983117.54249  -6962903.90649  18016565.2614   18016574.0744
  16903481.233   -19321401.84849 -15044117.00049  16903480.5044   16903487.3224
 97 10 29 20 16 29.9780000  0  8 14 15 30 29 25 22 16  1
  15205605.888   -39332041.77649 -30190583.83749  15205605.7084   15205611.1404
  14544935.219   -54649716.32649 -42557570.97349  14544934.6914   14544940.2864
  17984937.576   -26617802.92349 -20713427.75149  17984936.9474   17984943.2204
  14120520.305   -51493141.15249 -39764254.79849  14120520.1274   14120524.4794
  14346051.846   -55311538.77349 -43076416.07649  14346051.7154   14346055.8514
  17369319.095   -17763173.60249 -11121730.94549  17369318.1114   17369326.1364
  17979324.907    -9178820.69749  -7115399.72649  17979322.8244   17979332.5584
  16898771.428   -19346152.35849 -15063403.18249  16898770.8844   16898776.8514
 97 10 29 20 16 59.9780000  0  8 14 15 30 29 25 22 16  1
  15172561.320   -39505692.02049 -30325895.68749  15172560.6654   15172566.7164
  14535958.036   -54696892.00949 -42594331.28549  14535957.4064   14535963.1814
  17971393.502   -26688977.70149 -20768888.62449  17971393.7934   17971399.2354
  14103621.607   -51581944.50549 -39833452.21549  14103621.4864   14103625.6764
  14333818.650   -55375824.74049 -43126509.04649  14333818.2944   14333822.5404
  17332089.832   -17958813.11149 -11274177.06749  17332087.5454   17332097.1654
  17942080.862    -9374538.17449  -7267906.71949  17942078.9774   17942088.8194
  16894063.036   -19370895.39149 -15082683.52649  16894062.4044   16894068.8504
 97 10 29 20 17 29.9780000  0  8 14 15 30 29 25 22 16  1
  15139550.587   -39679164.26349 -30461068.83649  15139550.0084   15139556.0444
  14527087.608   -54743506.52849 -42630654.32749  14527086.8774   14527093.0504
  17957955.567   -26759594.53449 -20823914.75349  17957955.5964   17957960.7304
  14086765.109   -51670526.07549 -39902476.81049  14086764.9964   14086769.1564
  14321672.770   -55439651.64049 -43176244.30049  14321672.6224   14321676.8674
  17294869.101   -18154407.99149 -11426588.40349  17294866.4234   17294876.2594
  17904840.179    -9570237.73449  -7420399.77049  17904838.2184   17904847.8244
  16889359.450   -19395613.06249 -15101944.10449  16889359.1704   16889364.9944
 97 10 29 20 17 59.9780000  0  8 14 15 30 29 25 22 16  1
  15106558.293   -39852539.76749 -30596166.60449  15106557.5784   15106563.6114
  14518306.793   -54789650.19349 -42666610.47349  14518306.1364   14518312.0014
  17944607.808   -26829737.59549 -20878571.70849  17944607.9964   17944613.8564
  14069935.484   -51758966.37049 -39971391.32349  14069935.2174   14069939.5164
  14309595.088   -55503120.45149 -43225700.52449  14309594.8544   14309599.1584
  17257638.048   -18350056.76649 -11579041.74149  17257635.8874   17257644.6924
  17867586.500    -9766006.17549  -7572946.49749  17867586.1574   17867595.9354
  16884644.019   -19420392.96649 -15121253.17249  16884643.6144   16884650.0994
 97 10 29 20 18 29.9780000  0  8 14 15 30 29 25 22 16  1
  15073599.096   -40025741.37849 -30731128.87049  15073598.3954   15073604.2834
  14509625.788   -54835269.44549 -42702157.98149  14509624.8964   14509631.1234
  17931360.110   -26899354.92649 -20932818.98849  17931360.2884   17931367.3154
  14053145.664   -51847197.36349 -40040142.74349  14053145.5204   14053149.6254
  14297599.046   -55566160.14849 -43274822.37049  14297598.8084   14297603.1524
  17220408.161   -18545699.91549 -11731490.68149  17220407.0604   17220413.9884
  17830330.263    -9961789.34549  -7725504.70149  17830329.7504   17830338.5864
  16879928.037   -19445175.66049 -15140564.42049  16879926.4404   16879934.9154
 97 10 29 20 18 59.9770000  0  8 14 15 30 29 25 22 16  1
  15040674.553   -40198761.16849 -30865949.45749  15040674.1384   15040680.0204
  14501040.170   -54880387.00949 -42737314.56749  14501039.6494   14501045.4854
  17918209.590   -26968461.74049 -20986668.47249  17918209.5024   17918216.4504
  14036391.479   -51935241.19349 -40108748.31949  14036391.1094   14036395.5344
  14285682.083   -55628784.29949 -43323620.41749  14285681.8784   14285686.0824
  17183178.696   -18741341.15949 -11883938.16949  17183177.5444   17183185.2874
  17793068.643   -10157600.95649  -7878085.08449  17793068.0654   17793077.4494
  16875210.046   -19469968.79749 -15159883.80649  16875209.4164   16875216.0354
 97 10 29 20 19 29.9770000  0  8 14 15 30 29 25 22 16  1
  15007793.227   -40371553.68949 -31000592.94749  15007792.7514   15007798.5484
  14492557.492   -54924964.07049 -42772049.98349  14492556.8424   14492562.6474
  17905160.731   -27037033.93349 -21040101.38049  17905161.0654   17905166.8614
  14019679.868   -52023061.21949 -40177179.49949  14019679.6884   14019684.0884
  14273852.664   -55690948.40149 -43372059.97449  14273852.4884   14273856.8104
  17145959.789   -18936927.31049 -12036342.74349  17145958.5504   17145966.5634
  17755805.683   -10353419.30349  -8030670.72749  17755804.8224   17755813.9854
  16870500.498   -19494717.65149 -15179168.68049  16870500.1864   16870506.5794
 97 10 29 20 19 59.9770000  0  8 14 15 30 29 25 22 16  1
  14974941.150   -40544192.46149 -31135116.63349  14974940.4744   14974946.2734
  14484159.317   -54969097.01349 -42806439.33449  14484158.5164   14484164.4544
  17892193.167   -27105179.02849 -21093201.47649  17892193.6924   17892199.6454
  14002991.056   -52110761.50849 -40245517.37849  14002990.8714   14002994.8474
  14262093.443   -55752743.47749 -43420211.97849  14262093.0684   14262097.2534
  17108738.648   -19132525.61949 -12188756.80249  17108737.1884   17108745.0694
  17718523.125   -10549340.61249  -8183336.61049  17718522.7524   17718531.4314
  16865784.279   -19519501.45549 -15198480.78649  16865783.5214   16865790.1524
 97 10 29 20 20 29.9770000  0  8 14 15 30 29 25 22 16  1
  14942125.343   -40716640.53549 -31269491.72949  14942125.0124   14942130.9614
  14475851.332   -55012755.79849 -42840459.21249  14475850.9974   14475856.5394
  17879312.760   -27172866.50549 -21145944.99449  17879312.2704   17879318.8014
  13986329.541   -52198318.38049 -40313743.50449  13986329.3664   13986333.7784
  14250410.033   -55814139.85049 -43468053.30049  14250409.7374   14250413.8144
  17071521.632   -19328102.25849 -12341153.99849  17071520.2924   17071527.9964
  17681227.196   -10745332.45749  -8336057.46649  17681226.6514   17681235.6294
  16861070.332   -19544273.96849 -15217784.09249  16861069.5844   16861076.9094
 97 10 29 20 20 59.9770000  0  8 14 15 30 29 25 22 16  1
  14909351.538   -40888867.95249 -31403694.87849  14909351.1014   14909356.4864
  14467639.871   -55055907.42549 -42874083.89649  14467639.3524   14467645.2914
  17866525.145   -27240065.37749 -21198307.78049  17866524.5324   17866531.1714
  13969699.352   -52285710.76149 -40381841.45549  13969699.0394   13969703.2564
  14238806.991   -55875114.17949 -43515565.75749  14238806.8094   14238811.1174
  17034315.830   -19523619.56349 -12493504.99149  17034314.2504   17034321.9824
  17643923.870   -10941362.35649  -8488807.95749  17643923.2064   17643932.2044
  16856365.056   -19569000.85449 -15237051.84849  16856364.5524   16856371.8134
 97 10 29 20 21 29.9770000  0  8 14 15 30 29 25 22 16  1
  14876613.299   -41060908.46549 -31537752.39649  14876612.7154   14876618.4294
  14459520.692   -55098574.11149 -42907330.71349  14459520.0134   14459526.0604
  17853825.462   -27306802.86549 -21250311.04749  17853825.5344   17853831.5564
  13953097.049   -52372956.45949 -40449825.10949  13953096.8324   13953101.0014
  14227281.862   -55935679.11449 -43562759.20949  14227281.6184   14227285.8714
  16997116.506   -19719102.16649 -12645828.93249  16997115.0424   16997122.6724
  17606609.873   -11137448.43449  -8641602.22149  17606608.3094   17606617.9824
  16851660.380   -19593724.73349 -15256317.25049  16851660.4784   16851666.6354
 97 10 29 20 21 59.9770000  0  8 14 15 30 29 25 22 16  1
  14843915.725   -41232735.23349 -31671643.35949  14843915.3714   14843921.0214
  14451498.259   -55140732.48449 -42940181.43349  14451497.8364   14451503.6914
  17841218.439   -27373053.64449 -21301935.06949  17841219.5014   17841224.5314
  13936527.024   -52460032.32849 -40517676.42649  13936526.8534   13936530.9764
  14215839.224   -55995810.61749 -43609614.92249  14215838.9294   14215843.0844
  16959925.985   -19914538.72349 -12798117.01749  16959924.2594   16959932.0444
  17569291.942   -11333555.11049  -8794412.55749  17569290.8634   17569300.4434
  16846957.523   -19618438.66149 -15275574.90549  16846957.0044   16846964.1574
 97 10 29 20 22 29.9770000  0  7 14 15 29 25 22 16  1
  14811255.067   -41404368.09349 -31805383.22949  14811254.7224   14811260.1804
  14443570.875   -55182391.48849 -42972643.03349  14443570.1244   14443576.2194
  13919988.282   -52546943.96149 -40585399.77449  13919988.0534   13919992.2474
  14204476.666   -56055521.24849 -43656142.68249  14204476.5854   14204480.8024
  16922740.733   -20109947.26449 -12950383.24749  16922739.3814   16922746.8514
  17531970.294   -11529681.60249  -8947238.30049  17531968.9504   17531978.1454
  16842249.775   -19643177.91149 -15294852.28849  16842249.2134   16842255.1544
 97 10 29 20 22 59.9770000  0  7 14 15 29 25 22 16  1
  14778633.834   -41575793.61149 -31938961.53849  14778633.4654   14778638.9424
  14435742.974   -55223527.60049 -43004697.19549  14435742.4834   14435748.4144
  13903485.456   -52633666.96149 -40652976.13849  13903485.4374   13903489.7274
  14193200.869   -56114776.04049 -43702315.24849  14193200.7024   14193204.7954
  16885567.983   -20305290.16549 -13102598.33849  16885566.4364   16885574.6494
  17494650.529   -11725798.30149  -9100056.41849  17494650.9054   17494658.1704
  16837535.957   -19667949.87249 -15314155.16149  16837535.1274   16837541.8264
 97 10 29 20 23 29.9770000  0  7 14 15 29 25 22 16  1
  14746049.040   -41747027.85849 -32072390.79649  14746048.6034   14746054.0464
  14428011.256   -55264158.50149 -43036357.67549  14428010.7764   14428016.7584
  13887017.216   -52720208.10049 -40720410.78849  13887017.0584   13887021.1734
  14182008.019   -56173594.89049 -43748148.11149  14182007.7104   14182012.0244
  16848404.238   -20500585.99949 -13254776.75249  16848403.1434   16848411.5784
  17457332.251   -11921907.19549  -9252868.43849  17457330.8514   17457339.6384
  16832814.656   -19692760.77849 -15333488.37349  16832813.3664   16832819.1944
 97 10 29 20 23 59.9770000  0  7 14 15 29 25 22 16  1
  14713496.436   -41918092.92149 -32205688.21749  14713495.9394   14713501.6484
  14420372.039   -55304303.24549 -43067639.34149  14420371.3754   14420377.4544
  13870579.249   -52806590.23749 -40787721.54249  13870579.1084   13870583.2334
  14170891.163   -56232014.51949 -43793669.89849  14170890.8964   14170895.1514
  16811247.079   -20695847.35549 -13406928.28649  16811245.2474   16811253.6224
  17420013.122   -12118020.84349  -9405684.17349  17420012.5964   17420021.6854
  16828085.525   -19717612.51449 -15352853.40549  16828084.6194   16828091.8764
 97 10 29 20 24 29.9770000  0  7 14 15 29 25 22 16  1
  14680977.806   -42088979.48549 -32338846.55649  14680977.4814   14680983.3214
  14412827.685   -55343949.25649 -43098532.38649  14412827.1274   14412833.0024
  13854174.727   -52892796.52449 -40854895.27049  13854174.6144   13854178.6214
  14159851.409   -56290028.84549 -43838875.86649  14159850.9794   14159855.1514
  16774100.214   -20891054.69849 -13559037.76549  16774099.2234   16774107.7954
  17382695.417   -12314126.20749  -9558493.43949  17382694.5814   17382702.7954
  16823354.968   -19742471.94849 -15372224.43449  16823354.3144   16823360.4344
 97 10 29 20 24 59.9770000  0  7 14 15 29 25 22 16  1
  14648500.076   -42259651.11249 -32471837.40749  14648499.4354   14648505.0414
  14405381.515   -55383079.51749 -43129023.53649  14405380.9724   14405386.8344
  13837809.379   -52978797.17849 -40921908.76649  13837809.2144   13837813.2964
  14148891.535   -56347623.45149 -43883754.78049  14148891.5264   14148895.7314
  16736969.981   -21086174.48049 -13711079.00949  16736969.1174   16736976.7634
  17345383.569   -12510200.83849  -9711278.74349  17345383.9714   17345390.7994
  16818635.307   -19767274.02749 -15391550.76649  16818635.2814   16818641.6684
 97 10 29 20 25 29.9770000  0  7 14 15 29 25 22 16  1
  14616061.691   -42430115.85149 -32604667.05049  14616061.4114   14616066.8574
  14398028.143   -55421721.70349 -43159134.38149  14398027.3334   14398033.5274
  13821481.508   -53064600.80949 -40988768.74149  13821481.4084   13821485.6154
  14138003.839   -56404838.66749 -43928338.06649  14138003.6044   14138007.8474
  16699852.409   -21281228.26149 -13863068.83649  16699850.8844   16699859.2884
  17308072.816   -12706269.85549  -9864059.67349  17308072.2214   17308079.8764
  16813928.024   -19792010.94949 -15410826.34449  16813927.9404   16813933.6104
 97 10 29 20 25 59.9770000  0  7 14 15 29 25 22 16  1
  14583668.681   -42600341.92049 -32737310.71449  14583668.2074   14583673.8804
  14390771.918   -55459853.41049 -43188847.44849  14390771.5764   14390777.2844
  13805195.307   -53150185.19749 -41055457.87649  13805195.1524   13805199.4074
  14127193.454   -56461647.60249 -43972604.77449  14127193.3884   14127197.4054
  16662753.575   -21476183.56449 -14014981.93149  16662752.2874   16662759.2454
  17270765.419   -12902321.25449 -10016826.87249  17270764.3694   17270774.1924
  16809237.293   -19816660.93349 -15430034.16849  16809237.0574   16809243.7154
 97 10 29 20 26 29.9770000  0  7 14 15 29 25 22 16  1
  14551318.278   -42770344.27849 -32869780.06049  14551317.6624   14551323.3814
  14383605.601   -55497512.89449 -43218192.53949  14383605.2174   14383610.9514
  13788944.591   -53235583.30649 -41122001.85849  13788944.4524   13788948.5184
  14116456.864   -56518068.74049 -44016569.30349  14116456.8004   14116460.9744
  16625668.478   -21671066.88349 -14166838.94249  16625667.7504   16625674.4914
  17233453.307   -13098397.11049 -10169613.12649  17233452.4094   17233460.4474
  16804555.538   -19841263.80149 -15449205.28449  16804555.4984   16804561.8444
 97 10 29 20 26 59.9760000  0  7 14 15 29 25 22 16  1
  14519008.997   -42940130.70149 -33002081.13949  14519008.7594   14519014.1314
  14376522.446   -55534735.31749 -43247197.06549  14376521.7214   14376527.8844
  13772722.793   -53320829.40749 -41188427.39449  13772722.5634   13772726.9864
  14105789.119   -56574128.24949 -44060252.04049  14105788.9564   14105793.1144
  16588594.045   -21865893.32149 -14318651.61249  16588592.6264   16588600.9844
  17196131.996   -13294520.96449 -10322436.78549  17196129.9274   17196139.2504
  16799873.224   -19865870.20949 -15468379.15849  16799872.2604   16799878.6094
 97 10 29 20 27 29.9760000  0  7 14 15 29 25 22 16  1
  14486759.805   -43109601.25449 -33134136.09349  14486758.9754   14486764.8164
  14369543.760   -55571408.85249 -43275773.89249  14369543.4224   14369549.3174
  13756548.577   -53405825.40649 -41254658.04649  13756548.4904   13756552.5704
  14095213.863   -56629701.57249 -44103555.93349  14095213.7774   14095217.8214
  16551549.946   -22060560.47549 -14470340.16549  16551548.2024   16551556.6944
  17158821.679   -13490586.86549 -10475215.30649  17158820.9954   17158828.4534
  16795202.792   -19890414.00749 -15487504.25949  16795202.6334   16795208.1284
 97 10 29 20 27 59.9760000  0  7 14 15 29 25 22 16  1
  14454560.395   -43278809.82249 -33265986.90249  14454559.9464   14454565.8314
  14362659.226   -55607587.77449 -43303965.30649  14362658.5984   14362664.6964
  13740407.515   -53490647.23449 -41320752.98049  13740407.4244   13740411.4794
  14084722.638   -56684833.47249 -44146515.85949  14084722.3304   14084726.4744
  16514527.236   -22255116.02349 -14621941.79449  16514525.7824   16514532.5844
  17121514.247   -13686638.12249 -10627982.42549  17121513.5934   17121521.5964
  16790530.121   -19914968.81349 -15506637.93349  16790530.1284   16790535.4984
 97 10 29 20 28 29.9760000  0  7 14 15 29 25 22 16  1
  14422407.287   -43447775.37449 -33397648.34849  14422406.8164   14422412.2384
  14355865.067   -55643291.25249 -43331786.24749  14355864.2824   14355870.6464
  13724296.908   -53575309.09349 -41386723.26349  13724296.7574   13724300.9454
  14074310.455   -56739550.03349 -44189152.14849  14074310.2984   14074314.2524
  16477522.484   -22449577.19349 -14773469.88549  16477521.4994   16477528.9164
  17084209.475   -13882675.61049 -10780738.83849  17084208.5294   17084216.7154
  16785851.659   -19939554.69649 -15525795.81949  16785851.3874   16785857.8814
 97 10 29 20 28 59.9760000  0  7 14 15 29 25 22 16  1
  14390305.753   -43616470.26349 -33529098.88949  14390305.5194   14390310.9034
  14349167.967   -55678484.97249 -43359209.96049  14349167.5184   14349173.4734
  13708224.097   -53659772.17549 -41452538.65649  13708223.8044   13708228.0824
  14063982.875   -56793821.78549 -44231441.82449  14063982.6274   14063986.8694
  16440541.752   -22643912.12349 -14924899.62549  16440540.6314   16440547.6004
  17046914.249   -14078662.93749 -10933456.15749  17046913.2684   17046921.4684
  16781175.061   -19964130.46449 -15544945.83249  16781175.2844   16781180.9504
 97 10 29 20 29 29.9760000  0  7 14 15 29 25 22 16  1
  14358248.221   -43784933.96449 -33660369.27849  14358247.8724   14358253.3974
  14342563.651   -55713191.07449 -43386253.72249  14342563.0004   14342569.3024
  13692185.547   -53744055.33149 -41518213.84749  13692185.4474   13692189.6304
  14053736.138   -56847668.84849 -44273400.58349  14053735.9314   14053740.1334
  16403580.157   -22838146.16949 -15076250.74949  16403578.8594   16403585.9644
  17009623.821   -14274625.47049 -11086154.14949  17009623.7034   17009631.1474
  16776499.363   -19988701.46649 -15564092.12349  16776499.6614   16776506.1044
 97 10 29 20 29 59.9760000  0  7 14 15 29 25 22 16  1
  14326236.886   -43953154.68749 -33791450.34049  14326236.4234   14326242.1304
  14336051.655   -55747411.84249 -43412919.30349  14336050.9684   14336057.0894
  13676182.350   -53828152.92849 -41583744.44049  13676182.3464   13676186.2804
  14043566.308   -56901111.70849 -44315044.37349  14043566.0724   14043570.1554
  16366637.584   -23032280.24049 -15227523.95849  16366636.9634   16366644.0364
  16972337.636   -14470565.49549 -11238834.60349  16972336.2964   16972345.3374
  16771829.188   -20013243.62849 -15583215.95649  16771828.5354   16771835.6134
 97 10 29 20 30 29.9760000  0  7 14 15 29 25 22 16  1
  14294274.184   -44121119.61949 -33922332.08249  14294273.6904   14294279.5064
  14329632.315   -55781145.75949 -43439205.51049  14329631.9024   14329637.8864
  13660217.793   -53912047.35749 -41649116.72249  13660217.7084   13660222.0534
  14033474.548   -56954144.21549 -44356368.41349  14033474.3384   14033478.3854
  16329716.453   -23226300.96649 -15378708.86549  16329714.5844   16329722.8984
  16935055.862   -14666482.33949 -11391497.00149  16935055.3054   16935062.9464
  16767165.989   -20037749.07549 -15602311.17049  16767165.4434   16767172.6834
 97 10 29 20 30 59.9760000  0  7 14 15 29 25 22 16  1
  14262361.395   -44288822.53849 -34053009.66049  14262361.1734   14262366.2724
  14323306.356   -55814389.13149 -43465109.48049  14323305.7424   14323312.1894
  13644292.711   -53995734.27649 -41714327.30449  13644292.6134   13644296.8204
  14023461.764   -57006761.91049 -44397369.21749  14023461.6894   14023465.7074
  16292818.900   -23420198.11649 -15529797.50249  16292818.7364   16292825.6134
  16897779.039   -14862373.12749 -11544139.08049  16897778.1224   16897786.0724
  16762509.146   -20062221.13949 -15621380.37849  16762509.0964   16762515.6604
 97 10 29 20 31 29.9760000  0  7 14 15 29 25 22 16  1
  14230500.794   -44456251.19349 -34183473.52549  14230500.2804   14230505.8284
  14317073.769   -55847141.71249 -43490631.01949  14317072.9974   14317079.4124
  13628404.868   -54079225.31049 -41779385.25749  13628404.7224   13628408.8504
  14013527.037   -57058969.32849 -44438050.33349  14013526.8974   14013530.9904
  16255946.853   -23613962.50349 -15680782.69149  16255945.7634   16255953.3944
  16860510.651   -15058219.59749 -11696746.64549  16860510.3224   16860517.4564
  16757858.495   -20086660.76749 -15640424.30449  16757859.0164   16757864.3574
 97 10 29 20 31 59.9760000  0  7 14 15 29 25 22 16  1
  14198694.783   -44623392.88749 -34313713.78849  14198694.6984   14198700.0424
  14310933.808   -55879407.63049 -43515773.33649  14310933.1274   14310939.1864
  13612553.809   -54162523.17249 -41844292.68249  13612553.6154   13612557.8234
  14003669.730   -57110769.99949 -44478414.49149  14003669.7514   14003673.8004
  16219102.166   -23807582.47349 -15831655.37749  16219101.1804   16219108.7114
  16823253.397   -15254007.69149 -11849308.70749  16823253.0144   16823260.4844
  16753211.568   -20111080.73649 -15659452.91349  16753211.0934   16753218.2264
 97 10 29 20 32 29.9760000  0  7 14 15 29 25 22 16  1
  14166944.115   -44790243.70549 -34443727.39049  14166943.4994   14166948.9634
  14304888.178   -55911177.57349 -43540529.18649  14304887.0334   14304894.0354
  13596741.595   -54245617.01049 -41909041.12549  13596741.4224   13596745.6454
  13993893.290   -57162145.48849 -44518447.34249  13993892.9794   13993897.3354
  16182288.554   -24001039.36749 -15982400.98849  16182288.0754   16182294.7514
  16786011.034   -15449717.86449 -12001810.06049  16786010.4274   16786018.4994
  16748571.521   -20135464.57649 -15678453.35849  16748572.2854   16748577.6054
 97 10 29 20 32 59.9760000  0  7 14 15 29 25 22 16  1
  14135243.296   -44956831.99449 -34573536.42849  14135242.8154   14135248.3004
  14298928.545   -55942495.61249 -43564932.90349  14298927.9084   14298934.2324
  13580960.112   -54328549.22949 -41973663.63149  13580959.7774   13580963.8134
  13984188.805   -57213142.93849 -44558185.61849  13984188.5484   13984192.8344
  16145498.317   -24194373.61749 -16133051.05049  16145497.2754   16145505.1214
  16748776.192   -15645387.57849 -12154279.87449  16748775.1844   16748783.6184
  16743933.148   -20159840.03749 -15697447.26549  16743932.9364   16743939.4294
 97 10 29 20 33 29.9760000  0  7 14 15 29 25 22 16  1
  14103600.882   -45123113.81249 -34703106.65049  14103600.4414   14103605.8104
  14293061.872   -55973325.75849 -43588956.43949  14293061.0604   14293067.2454
  13565217.458   -54411277.37749 -42038127.11949  13565217.3454   13565221.4344
  13974564.205   -57263720.35949 -44597596.59549  13974564.0114   13974568.1394
  16108742.003   -24387529.51049 -16283562.10749  16108740.7414   16108748.8334
  16711558.123   -15840969.49649 -12306681.27749  16711557.5694   16711565.0084
  16739306.213   -20184154.98849 -15716394.04849  16739305.3404   16739312.9674
 97 10 29 20 33 59.9760000  0  7 14 15 29 25 22 16  1
  14072007.910   -45289135.70849 -34832474.34049  14072007.5624   14072012.8984
  14287281.383   -56003702.31149 -43612626.52849  14287280.5514   14287286.9174
  13549512.143   -54493809.46949 -42102437.83949  13549511.9384   13549516.0344
  13965012.830   -57313913.04549 -44636707.78549  13965012.7734   13965016.8064
  16072013.641   -24580538.22049 -16433958.46849  16072012.4774   16072019.7124
  16674350.300   -16036497.59449 -12459040.73949  16674349.2784   16674356.6354
  16734685.047   -20208439.26249 -15735316.91349  16734684.9994   16734691.5524
 97 10 29 20 34 29.9760000  0  7 14 15 29 25 22 16  1
  14040457.278   -45454935.44749 -34961668.91749  14040456.6244   14040462.2824
  14281580.016   -56033663.31949 -43635972.81849  14281579.4884   14281585.8444
  13533836.712   -54576184.19649 -42166625.93549  13533836.5404   13533840.7544
  13955528.959   -57363751.18649 -44675542.69749  13955528.8684   13955532.9514
  16035306.463   -24773435.44249 -16584267.94349  16035306.1894   16035312.7204
  16637144.019   -16232017.91449 -12611394.12949  16637142.3364   16637151.5864
  16730064.622   -20232719.43049 -15754236.58249  16730063.9384   16730072.4944
 97 10 29 20 34 59.9750000  0  7 14 15 29 25 22 16  1
  14008971.272   -45620395.31449 -35090598.66049  14008970.8614   14008976.5324
  14275977.871   -56063103.13249 -43658912.98049  14275976.9074   14275983.7054
  13518212.273   -54658291.06449 -42230605.30749  13518212.3464   13518216.2734
  13946134.225   -57413120.89749 -44714012.59749  13946133.9724   13946138.2154
  15998642.946   -24966103.75849 -16734399.06849  15998641.3914   15998649.0734
  16599960.253   -16427419.30049 -12763654.86749  16599959.1674   16599965.8334
  16725462.486   -20256904.50049 -15773082.16949  16725462.4834   16725469.2204
 97 10 29 20 35 29.9750000  0  7 14 15 29 25 22 16  1
  13977534.372   -45785596.99149 -35219327.21649  13977533.9054   13977539.4474
  14270465.753   -56092069.54749 -43681484.26849  14270465.4624   14270471.6684
  13502628.594   -54740184.08049 -42294418.04349  13502628.4154   13502632.7004
  13936819.857   -57462068.43949 -44752153.53549  13936819.6904   13936823.7974
  15962011.933   -25158600.67449 -16884396.64149  15962011.3394   15962018.3864
  16562788.763   -16622756.62249 -12915865.67449  16562787.2414   16562796.1614
  16720868.274   -20281048.25149 -15791895.55049  16720867.9544   16720874.5544
 97 10 29 20 35 59.9750000  0  7 14 15 29 25 22 16  1
  13946147.799   -45950534.72249 -35347850.10049  13946147.3734   13946152.8144
  14265042.238   -56120570.51749 -43703692.86349  14265041.6474   14265048.6334
  13487082.354   -54821880.09049 -42358077.26349  13487082.1374   13487086.3204
  13927584.576   -57510600.09049 -44789970.39849  13927584.4344   13927588.5314
  15925411.799   -25350935.54549 -17034267.95349  15925410.4284   15925417.4794
  16525627.263   -16818041.37849 -13068035.51349  16525625.1484   16525633.8384
  16716280.823   -20305155.80249 -15810680.72549  16716280.5004   16716287.4324
 97 10 29 20 36 29.9750000  0  7 14 15 29 25 22 16  1
  13914817.038   -46115178.99549 -35476144.31449  13914816.7534   13914822.1464
  14259708.537   -56148599.84849 -43725533.95449  14259708.1004   14259714.3144
  13471572.576   -54903384.45449 -42421587.15449  13471572.4344   13471576.5514
  13918432.002   -57558697.25849 -44827448.71149  13918431.7404   13918435.9824
  15888845.634   -25543091.77549 -17184000.05249  15888844.2924   15888852.1354
  16488476.301   -17013270.49249 -13220162.00249  16488475.2564   16488483.6874
  16711700.981   -20329222.96449 -15829434.41849  16711699.6414   16711707.5444
 97 10 29 20 36 59.9750000  0  7 14 15 29 25 22 16  1
  13883541.122   -46279534.93249 -35604213.85149  13883540.7854   13883546.1624
  14254463.752   -56176161.51949 -43747010.64249  14254462.9914   14254469.8854
  13456101.208   -54984686.93449 -42484939.73149  13456101.1054   13456105.1844
  13909359.495   -57606373.57949 -44864599.09349  13909359.3614   13909363.6784
  15852312.220   -25735075.74949 -17333597.92349  15852310.8644   15852318.7184
  16451337.565   -17208435.72749 -13372238.71949  16451336.6074   16451343.7254
  16707127.507   -20353256.71449 -15848162.04849  16707127.3564   16707134.9504
 97 10 29 20 37 29.9750000  0  7 14 15 29 25 22 16  1
  13852301.842   -46443698.35849 -35732133.37749  13852301.4814   13852307.0994
  14249288.257   -56203359.28549 -43768203.74849  14249287.7034   14249293.9344
  13440648.502   -55065891.51449 -42548216.02049  13440648.1234   13440652.3044
  13900345.497   -57653742.39149 -44901509.85449  13900345.1714   13900349.6384
  15815793.260   -25926984.38549 -17483137.05449  15815792.3654   15815799.6654
  16414192.309   -17403634.41549 -13524341.49249  16414191.0624   16414199.7304
  16702543.510   -20377346.03849 -15866932.98949  16702542.9304   16702550.6444
 97 10 29 20 37 59.9750000  0  7 14 15 29 25 22 16  1
  13821106.309   -46607631.95349 -35859873.81849  13821105.8584   13821111.3704
  14244183.251   -56230186.57349 -43789108.17849  14244182.5684   14244188.6584
  13425217.473   -55146982.09349 -42611403.47749  13425217.3554   13425221.7044
  13891391.879   -57700793.80249 -44938173.29249  13891391.5104   13891395.8324
  15779291.894   -26118800.29549 -17632603.94849  15779291.2544   15779298.1164
  16377042.271   -17598858.38749 -13676463.96949  16377040.9304   16377049.3884
  16697948.769   -20401491.99349 -15885748.06449  16697948.5814   16697954.6694
 97 10 29 20 38 29.9750000  0  7 14 15 29 25 22 16  1
  13789965.567   -46771277.69549 -35987389.96549  13789965.4864   13789970.6104
  14239158.316   -56256592.88849 -43809684.59049  14239157.6264   14239164.1044
  13409820.934   -55227891.43749 -42674449.71949  13409820.5844   13409824.9294
  13882507.342   -57747482.24849 -44974553.90649  13882507.0704   13882511.5684
  15742819.690   -26310463.36449 -17781951.75749  15742818.7734   15742826.0064
  16339898.653   -17794048.71649 -13828560.23649  16339897.7844   16339906.2134
  16693351.414   -20425651.15949 -15904573.43749  16693349.9744   16693357.6294
 97 10 29 20 38 59.9750000  0  7 14 15 29 25 22 16  1
  13758887.048   -46934596.29949 -36114651.19349  13758886.6914   13758892.1994
  14234219.826   -56282545.16849 -43829907.19949  14234219.3554   14234225.6124
  13394464.094   -55308592.07949 -42737333.33049  13394463.8964   13394468.2694
  13873695.516   -57793788.64949 -45010636.82249  13873695.1514   13873699.5714
  15706383.678   -26501935.89649 -17931151.10949  15706382.9874   15706390.1184
  16302768.656   -17989167.80849 -13980600.97049  16302767.7994   16302776.2944
  16688759.585   -20449781.70949 -15923376.52249  16688759.3124   16688766.1264
 97 10 29 20 39 29.9750000  0  7 14 15 29 25 22 16  1
  13727871.731   -47097582.89549 -36241653.71649  13727871.3924   13727876.9184
  14229363.916   -56308063.50649 -43849791.67249  14229363.0474   14229369.4994
  13379140.899   -55389115.93949 -42800079.18949  13379140.9334   13379145.0094
  13864952.695   -57839732.61649 -45046437.32349  13864952.4834   13864956.6674
  15669982.962   -26693223.15249 -18080206.09149  15669982.3674   15669989.4694
  16265647.859   -18184238.61349 -14132604.10049  16265646.9274   16265655.0264
  16684169.646   -20473901.80149 -15942171.46649  16684168.5304   16684176.2894
 97 10 29 20 39 59.9750000  0  7 14 15 29 25 22 16  1
  13696924.510   -47260211.58249 -36368377.35049  13696924.2974   13696929.6304
  14224595.249   -56333123.02749 -43869318.62449  14224594.5484   14224600.8834
  13363857.319   -55469431.79149 -42862662.96349  13363857.2144   13363861.3824
  13856284.117   -57885286.10049 -45081933.55549  13856283.9844   13856288.0434
  15633624.169   -26884290.01149 -18229089.34449  15633623.3284   15633630.2334
  16228543.357   -18379223.85249 -14284540.55949  16228542.4244   16228550.6664
  16679586.345   -20497987.08249 -15960939.29449  16679585.9934   16679593.1634
 97 10 29 20 40 29.9750000  0  7 14 15 29 25 22 16  1
  13666031.062   -47422557.58349 -36494880.70949  13666030.5944   13666036.1534
  14219900.937   -56357792.03449 -43888541.26649  14219900.3384   14219906.8904
  13348600.138   -55549608.70049 -42925138.46849  13348599.8774   13348604.2664
  13847677.256   -57930515.83149 -45117177.50949  13847677.2734   13847681.0624
  15597294.142   -27075205.16449 -18377854.38349  15597292.4094   15597299.4744
  16191445.349   -18574174.95849 -14436450.40949  16191444.3964   16191452.4694
  16674999.889   -20522089.26649 -15979720.27649  16675000.0084   16675006.2764
 97 10 29 20 40 59.9750000  0  7 14 15 29 25 22 16  1
  13635203.503   -47584557.16149 -36621114.12649  13635202.7864   13635208.2784
  14215293.670   -56382003.79249 -43907407.62849  14215293.0974   14215299.5944
  13333381.913   -55629581.00649 -42987454.54849  13333381.6024   13333386.0724
  13839146.767   -57975343.98749 -45152108.55249  13839146.6784   13839150.4904
  15561006.703   -27265896.44249 -18526444.97049  15561005.7104   15561012.8064
  16154369.185   -18769011.12649 -14588270.70049  16154368.3144   16154376.3384
  16670423.227   -20546139.92749 -15998461.13049  16670422.5674   16670430.2424
 97 10 29 20 41 29.9750000  0  7 14 15 29 25 22 16  1
  13604437.228   -47746235.17849 -36747096.98049  13604437.0044   13604442.1644
  14210770.269   -56405774.43349 -43925930.25649  14210769.7694   14210775.9844
  13318203.596   -55709343.44249 -43049607.09849  13318203.4404   13318207.7024
  13830691.126   -58019778.58649 -45186732.92249  13830691.0324   13830695.1064
  15524758.541   -27456381.50549 -18674874.86549  15524757.7444   15524763.9734
  16117314.736   -18963733.02749 -14740001.95649  16117313.9664   16117321.5234
  16665852.826   -20570158.44949 -16017176.90049  16665852.7704   16665859.8214
 97 10 29 20 41 59.9750000  0  7 14 15 29 25 22 16  1
  13573719.422   -47907658.46949 -36872881.34749  13573719.1604   13573724.1884
  14206322.455   -56429147.99149 -43944143.46649  14206322.1984   14206328.0294
  13303057.563   -55788936.44349 -43111627.62249  13303057.4454   13303061.4764
  13822302.258   -58063862.59749 -45221084.10549  13822301.9694   13822306.2774
  15488541.400   -27646703.97949 -18823178.06849  15488540.4774   15488547.3484
  16080274.816   -19158378.75749 -14891673.84349  16080273.8584   16080280.5444
  16661281.105   -20594183.53549 -16035897.79149  16661281.3854   16661287.6174
 97 10 29 20 42 29.9750000  0  7 14 15 29 25 22 16  1
  13543050.655   -48068823.78149 -36998464.69349  13543050.4814   13543055.7614
  14201948.902   -56452131.50249 -43962052.75649  14201948.1664   14201954.6164
  13287942.715   -55868365.63349 -43173520.49949  13287942.7194   13287946.6594
  13813979.325   -58107599.88349 -45255165.11649  13813979.1314   13813983.3574
  15452352.965   -27836875.74449 -18971363.82149  15452351.3004   15452359.0774
  16043247.390   -19352958.56449 -15043294.37349  16043245.9524   16043254.7604
  16656706.731   -20618221.83849 -16054628.99449  16656706.5824   16656712.8644
 97 10 29 20 42 59.9740000  0  7 14 15 29 25 22 16  1
  13512436.184   -48229704.22049 -37123826.05849  13512435.9454   13512441.2504
  14197653.016   -56474706.51549 -43979643.73049  14197652.0804   14197659.1434
  13272863.844   -55947605.77149 -43235266.06049  13272863.9374   13272868.0194
  13805723.321   -58150985.54549 -45288972.13449  13805723.1774   13805727.4384
  15416201.289   -28026853.88449 -19119398.69449  15416199.2974   15416207.1184
  16006234.786   -19547460.54049 -15194854.24949  16006233.4554   16006241.3104
  16652134.142   -20642251.26549 -16073353.29549  16652133.9684   16652141.0004
 97 10 29 20 43 29.9740000  0  7 14 15 29 25 22 16  1
  13481875.064   -48390304.17049 -37248968.86249  13481874.5924   13481879.8834
  14193434.164   -56496876.74149 -43996919.27649  14193434.0904   14193439.9914
  13257818.833   -56026667.85949 -43296872.88449  13257818.7634   13257822.7914
  13797532.134   -58194030.51249 -45322513.67149  13797532.0374   13797536.1624
  15380087.019   -28216634.81049 -19267279.87849  15380085.9084   15380093.0964
  15969232.828   -19741906.09349 -15346370.17349  15969231.0614   15969240.0764
  16647565.616   -20666258.96749 -16092060.65449  16647566.9594   16647572.6284
 97 10 29 20 43 59.9740000  0  7 14 15 29 25 22 16  1
  13451364.507   -48550638.01749 -37373904.30949  13451364.1144   13451369.5754
  14189285.152   -56518680.38749 -44013909.17149  14189284.5134   14189291.3634
  13242801.268   -56105585.53649 -43358367.17849  13242801.0204   13242805.1934
  13789398.443   -58236773.18849 -45355819.65949  13789398.3084   13789402.5254
  15344008.362   -28406229.13749 -19415015.65049  15344006.3054   15344014.1724
  15932235.432   -19936327.93949 -15497867.60249  15932234.0944   15932242.4004
  16642995.883   -20690273.78049 -16110773.55049  16642996.1144   16643002.4494
 97 10 29 20 44 29.9740000  0  7 14 15 29 25 22 16  1
  13420924.533   -48710601.15449 -37498550.89449  13420924.0284   13420929.2654
  14185219.597   -56540045.12449 -44030557.07249  14185218.8174   14185225.6814
  13227828.440   -56184268.31749 -43419678.44249  13227828.3054   13227832.5914
  13781336.142   -58279140.74149 -45388833.34549  13781335.8704   13781340.1834
  15307980.521   -28595556.67049 -19562543.53149  15307979.3464   15307986.4264
  15895257.587   -20130647.15049 -15649285.07249  15895256.1034   15895264.1364
  16638440.809   -20714211.68949 -16129426.52449  16638439.9284   16638446.5294
 97 10 29 20 44 59.9740000  0  7 14 15 29 25 22 16  1
  13390537.605   -48870285.44649 -37622980.19849  13390537.0044   13390542.3734
  14181219.102   -56561067.85849 -44046938.47849  14181218.5974   14181224.8804
  13212883.516   -56262804.42149 -43480875.41749  13212883.3514   13212887.5464
  13773328.801   -58321219.64349 -45421622.11049  13773328.6234   13773332.8504
  15271988.377   -28784696.26249 -19709924.96249  15271986.8934   15271994.5624
  15858281.624   -20324956.73249 -15800695.04149  15858280.5414   15858288.7614
  16633883.659   -20738159.93849 -16148087.57749  16633883.5624   16633889.9624
 97 10 29 20 45 29.9740000  0  7 14 15 29 25 22 16  1
  13360219.612   -49029607.19449 -37747127.00249  13360218.9934   13360224.6224
  14177297.163   -56581678.11749 -44062998.47249  14177296.2324   14177302.6954
  13197981.902   -56341113.10349 -43541895.17549  13197981.6874   13197985.7224
  13765392.733   -58362924.02449 -45454119.04049  13765392.5474   13765396.7814
  15236044.065   -28973584.56249 -19857110.56049  15236043.2174   15236050.3734
  15821324.510   -20519167.49749 -15952028.00549  15821323.5064   15821331.7304
  16629337.094   -20762052.42649 -16166705.14949  16629336.8804   16629343.1204
 97 10 29 20 45 59.9740000  0  7 14 15 29 25 22 16  1
  13329969.233   -49188573.53049 -37870996.86249  13329968.9754   13329974.2064
  14173451.799   -56601885.77049 -44078744.74749  14173451.0944   14173457.5574
  13183122.728   -56419198.48649 -43602740.93249  13183122.7144   13183126.8484
  13757525.204   -58404268.28949 -45486335.35249  13757525.0044   13757529.1434
  15200143.711   -29162241.83249 -20004116.12249  15200142.7404   15200149.6994
  15784386.758   -20713276.61349 -16103281.77649  15784385.4474   15784393.7784
  16624797.415   -20785909.25149 -16185294.94349  16624797.1524   16624804.7394
 97 10 29 20 46 29.9740000  0  7 14 15 29 25 22 16  1
  13299784.751   -49347194.00249 -37994597.21649  13299784.4614   13299789.8204
  14169682.383   -56621694.14249 -44094179.89649  14169681.9234   14169688.2004
  13168303.752   -56497072.72649 -43663422.16349  13168303.8234   13168307.8254
  13749727.215   -58445247.00949 -45518266.82849  13749727.1024   13749731.0904
  15164286.489   -29350672.34949 -20150944.97049  15164284.6544   15164293.3114
  15747467.192   -20907290.52849 -16254461.36849  15747466.2164   15747473.9634
  16620263.168   -20809736.59849 -16203861.77949  16620261.5024   16620269.2074
 97 10 29 20 46 59.9740000  0  7 14 15 29 25 22 16  1
  13269657.519   -49505513.83349 -38117963.30249  13269656.9984   13269662.4954
  14165983.479   -56641132.30449 -44109326.56249  14165982.6944   14165989.3604
  13153516.814   -56574778.45849 -43723972.08349  13153516.5904   13153520.7224
  13741993.740   -58485886.77449 -45549934.18149  13741993.8064   13741997.6284
  15128468.743   -29538895.69549 -20297612.38749  15128466.9804   15128474.2274
  15710560.612   -21101235.82449 -16405587.47949  15710559.9964   15710567.2474
  16615726.323   -20833577.24549 -16222439.04749  16615725.1334   16615732.7844
 97 10 29 20 47 29.9740000  0  7 14 15 29 25 22 16  1
  13239593.261   -49663502.57849 -38241071.40049  13239593.1204   13239598.3064
  14162361.150   -56660168.17149 -44124159.76949  14162360.1824   14162366.9624
  13138766.549   -56652291.76049 -43784372.05849  13138766.2914   13138770.5404
  13734329.310   -58526163.81149 -45581318.89449  13734329.2524   13734333.2224
  15092697.290   -29726875.78649 -20444090.27649  15092696.2244   15092703.1594
  15673676.022   -21295065.95749 -16556623.86449  15673675.2704   15673682.3494
  16611191.858   -20857405.77749 -16241006.74449  16611191.6714   16611199.3324
 97 10 29 20 47 59.9740000  0  7 14 15 29 25 22 16  1
  13209576.566   -49821241.41749 -38363984.76149  13209576.2514   13209581.5454
  14158800.007   -56678882.15649 -44138742.15349  14158799.3074   14158806.3834
  13124034.459   -56729709.33149 -43844697.43649  13124034.4304   13124038.4984
  13726717.847   -58566162.25749 -45612486.51249  13726717.3714   13726721.6914
  15056959.221   -29914680.64449 -20590431.62249  15056957.7854   15056965.2934
  15636797.750   -21488862.56949 -16707634.12749  15636797.0814   15636802.5674
  16606647.679   -20881286.03649 -16259614.75749  16606647.5074   16606654.4434
 97 10 29 20 48 29.9740000  0  7 14 15 29 25 22 16  1
  13179618.677   -49978671.14849 -38486657.26049  13179618.1704   13179623.5114
  14155309.480   -56697225.29149 -44153035.55149  14155309.3034   14155315.4754
  13109330.309   -56806980.09649 -43904908.41649  13109330.1504   13109334.2904
  13719172.717   -58605811.93849 -45643382.36649  13719172.3454   13719176.3694
  15021265.052   -30102254.23449 -20736592.74949  15021264.2554   15021270.8914
  15599936.185   -21682570.71549 -16858575.45349  15599935.3204   15599942.1634
  16602103.790   -20905164.35849 -16278221.30049  16602102.7434   16602110.2204
 97 10 29 20 48 59.9740000  0  7 14 15 29 25 22 16  1
  13149712.346   -50135829.83349 -38609118.55249  13149711.9544   13149717.3194
  14151879.494   -56715250.36549 -44167081.12449  14151878.8384   14151885.8834
  13094643.940   -56884157.57949 -43965046.71349  13094643.6774   13094647.9964
  13711683.892   -58645165.81249 -45674047.72649  13711683.9194   13711688.0444
  14985605.577   -30289645.58449 -20882611.88449  14985604.7824   14985611.3624
  15563084.796   -21876225.65449 -17009475.33049  15563084.1714   15563090.4044
  16597551.306   -20929087.59449 -16296862.84949  16597550.4554   16597558.0344
 97 10 29 20 49 29.9740000  0  7 14 15 29 25 22 16  1
  13119869.839   -50292653.52149 -38731318.80749  13119869.6534   13119875.0734
  14148519.267   -56732908.14149 -44180840.48849  14148518.4354   14148525.5054
  13079984.842   -56961191.65449 -44025073.26449  13079984.6954   13079988.8334
  13704260.837   -58684174.49349 -45704444.10949  13704260.6684   13704264.9384
  14949989.615   -30476808.53849 -21028453.03949  14949988.2394   14949995.3004
  15526254.373   -22069770.90849 -17160289.72949  15526254.0984   15526260.6804
  16593003.206   -20952988.84349 -16315487.26549  16593003.3534   16593010.2184
 97 10 29 20 49 59.9740000  0  7 14 15 29 25 22 16  1
  13090097.938   -50449105.57549 -38853229.48349  13090097.3844   13090102.5934
  14145232.798   -56750178.88649 -44194298.26649  14145231.8404   14145238.9764
  13065357.247   -57038060.33749 -44084970.94749  13065357.0724   13065361.0334
  13696907.925   -58722814.29749 -45734553.05449  13696907.7484   13696911.8454
  14914421.682   -30663718.86649 -21174097.33949  14914420.2924   14914427.2504
  15489449.023   -22263184.17649 -17311001.28549  15489448.1884   15489455.5654
  16588464.105   -20976842.62449 -16334074.68349  16588464.9154   16588471.5744
 97 10 29 20 50 29.9730000  0  7 14 15 29 25 22 16  1
  13060384.757   -50605249.26849 -38974899.87349  13060384.2644   13060389.8794
  14142004.701   -56767143.02049 -44207517.12649  14142004.3044   14142010.7264
  13050749.977   -57114822.11749 -44144785.31449  13050749.8644   13050754.0064
  13689610.738   -58761161.41849 -45764433.93649  13689610.3504   13689614.7204
  14878889.949   -30850438.71249 -21319593.22249  14878889.1894   14878895.3614
  15452655.061   -22456537.48649 -17461666.11749  15452653.6404   15452661.7034
  16583916.568   -21000740.58449 -16352696.55649  16583916.0144   16583922.9554
 97 10 29 20 50 59.9730000  0  7 14 15 29 25 22 16  1
  13030720.607   -50761135.26749 -39096369.46849  13030720.3404   13030725.7764
  14138826.636   -56783844.09449 -44220531.01349  14138826.0544   14138832.9294
  13036154.888   -57191519.89949 -44204549.81849  13036154.8584   13036158.9994
  13682355.084   -58799289.96849 -45794144.50149  13682354.9534   13682359.4314
  14843387.073   -31037007.02849 -21464971.03649  14843386.3874   14843392.1934
  15415861.445   -22649888.80949 -17612329.40349  15415860.1424   15415867.3474
  16579353.600   -21024719.55149 -16371381.53049  16579353.5324   16579361.2424
 97 10 29 20 51 29.9730000  0  7 14 15 29 25 22 16  1
  13001130.884   -50916630.46449 -39217534.53749  13001130.6454   13001135.8324
  14135721.170   -56800163.99549 -44233247.87149  14135721.0444   14135727.3504
  13021597.549   -57268019.21249 -44264159.67849  13021597.3864   13021601.5854
  13675161.978   -58837090.08649 -45823599.14249  13675162.0924   13675166.1704
  14807939.355   -31223285.91649 -21610123.32349  14807938.4484   14807944.8974
  15379092.172   -22843112.43349 -17762893.18849  15379090.8974   15379099.1964
  16574797.675   -21048661.89149 -16390037.96449  16574797.2574   16574803.1414
 97 10 29 20 51 59.9730000  0  7 14 15 29 25 22 16  1
  12971605.198   -51071788.92149 -39338437.21049  12971604.8354   12971610.1374
  14132676.315   -56816165.24449 -44245716.41849  14132675.6924   14132682.5254
  13007070.018   -57344361.86649 -44323647.46149  13007069.9234   13007074.1964
  13668019.426   -58874624.60649 -45852846.82949  13668019.2374   13668023.5464
  14772538.112   -31409320.55049 -21755085.28549  14772536.1964   14772544.3254
  15342334.319   -23036275.90549 -17913410.10049  15342334.0334   15342340.6134
  16570236.098   -21072633.98449 -16408717.61149  16570236.6944   16570243.2074
 97 10 29 20 52 29.9730000  0  7 14 15 29 25 22 16  1
  12942132.169   -51226670.51749 -39459124.14949  12942131.9984   12942137.0584
  14129681.040   -56831905.68249 -44257981.75149  14129680.2864   14129686.9094
  12992564.314   -57420589.93249 -44383045.95049  12992564.2854   12992568.4144
  13660915.045   -58911958.63949 -45881938.29349  13660914.8454   13660918.9684
  14737172.888   -31595165.13949 -21899899.16349  14737171.3594   14737178.2724
  15305576.383   -23229439.83249 -18063927.36349  15305575.4914   15305582.5984
  16565659.908   -21096682.87349 -16427457.06749  16565659.7024   16565666.5144
 97 10 29 20 52 59.9730000  0  7 14 15 29 25 22 16  1
  12912723.300   -51381215.25049 -39579548.59449  12912723.0484   12912728.3804
  14126747.028   -56847323.96549 -44269996.04949  14126746.3374   14126753.7534
  12978091.810   -57496643.55349 -44442308.50149  12978091.9244   12978095.7594
  13653862.341   -58949020.91349 -45910817.98749  13653861.9284   13653866.5854
  14701855.640   -31780757.85549 -22044516.76449  14701854.9684   14701861.4134
  15268832.502   -23422530.02149 -18214387.16149  15268831.4284   15268838.2094
  16561083.024   -21120734.47249 -16446198.64949  16561083.1614   16561088.7404
 97 10 29 20 53 29.9730000  0  7 14 15 29 25 22 16  1
  12883378.009   -51535425.67449 -39699712.54749  12883377.6834   12883382.9244
  14123873.812   -56862423.16449 -44281761.72049  14123873.1864   14123880.3694
  12963653.564   -57572517.26149 -44501430.87649  12963653.5294   12963657.6614
  13646866.933   -58985782.07449 -45939463.06249  13646866.5414   13646870.7364
  14666586.780   -31966096.85449 -22188936.68749  14666585.5244   14666592.7774
  15232103.566   -23615541.38249 -18364785.53849  15232102.5954   15232110.3534
  16556505.161   -21144791.09149 -16464944.13049  16556504.4304   16556512.5324
 97 10 29 20 53 59.9730000  0  7 14 15 29 25 22 16  1
  12854096.361   -51689301.76949 -39819615.97849  12854096.0844   12854101.2834
  14121062.528   -56877196.61249 -44293273.55649  14121061.7024   14121068.8584
  12949251.428   -57648200.95049 -44560405.17549  12949251.3204   12949255.3494
  13639930.549   -59022232.74849 -45967866.19249  13639930.2434   13639934.6214
  14631367.785   -32151173.61949 -22333152.26749  14631366.4764   14631373.6184
  15195391.907   -23808462.21049 -18515113.37249  15195390.6404   15195398.0194
  16551927.758   -21168845.69849 -16483688.04549  16551928.0094   16551933.8854
 97 10 29 20 54 29.9730000  0  7 14 15 29 25 22 16  1
  12824875.540   -51842858.33749 -39939270.42749  12824875.0744   12824880.5784
  14118310.333   -56891659.78149 -44304543.62649  14118309.5484   14118316.7034
  12934880.800   -57723719.14849 -44619250.53149  12934880.6184   12934884.6014
  13633053.343   -59058372.60649 -45996027.12949  13633053.2744   13633057.6034
  14596195.114   -32336007.05449 -22477178.25549  14596193.7754   14596200.5814
  15158698.402   -24001287.30249 -18665366.60249  15158697.3024   15158704.3254
  16547347.153   -21192917.11849 -16502445.05749  16547346.5204   16547352.6744
 97 10 29 20 54 59.9730000  0  7 14 15 29 25 22 16  1
  12795718.169   -51996081.46849 -40058665.05349  12795717.7694   12795723.0144
  14115618.910   -56905803.64449 -44315564.87749  14115618.7604   14115624.9144
  12920541.810   -57799070.95449 -44677966.22349  12920541.6954   12920545.7064
  13626239.902   -59094177.45149 -46023927.01649  13626239.6814   13626244.1474
  14561072.293   -32520578.06549 -22620999.74649  14561070.7504   14561077.7974
  15122027.240   -24193995.17849 -18815528.49749  15122026.3594   15122033.6294
  16542763.390   -21217005.10949 -16521215.01049  16542763.0234   16542770.4694
 97 10 29 20 55 29.9730000  0  7 14 15 29 25 22 16  1
  12766626.274   -52148960.30149 -40177791.40049  12766625.7594   12766631.1284
  14112988.394   -56919627.75549 -44326336.96149  14112987.8124   14112994.6324
  12906236.018   -57874248.48749 -44736546.12349  12906235.9294   12906240.0984
  13619486.420   -59129667.31449 -46051581.46849  13619486.4664   13619490.2934
  14526000.498   -32704881.28649 -22764612.56949  14525999.9494   14526006.4294
  15085379.158   -24386581.91149 -18965595.98349  15085378.6504   15085385.1854
  16538176.478   -21241110.11349 -16539998.21049  16538175.4494   16538183.9184
 97 10 29 20 55 59.9730000  0  7 14 15 29 25 22 16  1
  12737606.947   -52301457.70249 -40296620.52849  12737606.5384   12737611.8744
  14110423.700   -56933105.69749 -44336839.32249  14110422.6084   14110430.0714
  12891966.658   -57949234.50949 -44794976.80149  12891966.5574   12891970.6564
  13612795.326   -59164829.42949 -46078980.53449  13612795.1284   13612799.4644
  14490984.001   -32888894.25349 -22907999.20149  14490982.9614   14490989.7374
  15048761.230   -24579009.83449 -19115539.73949  15048759.5714   15048766.7684
  16533592.381   -21265199.43849 -16558769.18949  16533591.4734   16533598.9954
 97 10 29 20 56 29.9730000  0  7 14 15 29 25 22 16  1
  12708669.143   -52453526.55349 -40415115.71749  12708668.6824   12708673.9414
  14107932.627   -56946196.36249 -44347039.90349  14107931.9024   14107938.4194
  12877740.794   -58023991.80349 -44853229.23749  12877740.5064   12877744.7764
  13606175.595   -59199616.39949 -46106087.27849  13606175.2914   13606179.6684
  14456031.391   -33072571.17049 -23051123.97749  14456030.3684   14456036.8214
  15012181.637   -24771236.23649 -19265326.44949  15012180.6644   15012188.1904
  16529022.037   -21289216.72549 -16577484.05049  16529021.5274   16529028.4354
